[[{"header":{"parameterUnit":"m.s-1","parameterCategory":1,"la1":30.6,"la2":28.766,"lo1":-90.7593,"lo2":-88.6598,"dy":0.0162,"dx":0.0183,"nx":116,"ny":114,"refTime":"2023-04-26T00:00:00:Z","depth":0,"parameterNumber":2,"parameterNumberName":"U-component_of_WINDS"},"data":[0.0,0.0,0.0,0.0,0.0,0.0,0.0,0.0,0.0,0.0,0.0,0.0,0.0,0.0,0.0,0.0,0.0,0.0,0.0,0.0,0.0,0.0,0.0,0.0,0.0,0.0,0.0,0.0,0.0,0.0,0.0,0.0,0.0,0.0,0.0,0.0,0.0,0.0,0.0,0.0,0.0,0.0,0.0,0.0,0.0,0.0,0.0,0.0,0.0,0.0,0.0,0.0,0.0,0.0,0.0,0.0,0.0,0.0,0.0,0.0,0.0,0.0,0.0,0.0,0.0,0.0,0.0,0.0,0.0,0.0,0.0,0.0,0.0,0.0,0.0,0.0,0.0,0.0,0.0,0.0,0.0,0.0,0.0,0.0,0.0,0.0,0.0,0.0,0.0,0.0,0.0,0.0,0.0,0.0,0.0,0.0,0.0,0.0,0.0,0.0,0.0,0.0,0.0,0.0,0.0,0.0,0.0,0.0,0.0,0.0,0.0,0.0,0.0,0.0,0.0,0.0,0.0,0.0,0.0,0.0,0.0,0.0,0.0,0.0,0.0,0.0,0.0,0.0,0.0,0.0,0.0,0.0,0.0,0.0,0.0,0.0,0.0,0.0,0.0,0.0,0.0,0.0,0.0,0.0,0.0,0.0,0.0,0.0,0.0,0.0,0.0,0.0,0.0,0.0,0.0,0.0,0.0,0.0,0.0,0.0,0.0,0.0,0.0,0.0,0.0,0.0,0.0,0.0,0.0,0.0,0.0,0.0,0.0,0.0,0.0,0.0,0.0,0.0,0.0,0.0,0.0,0.0,0.0,0.0,0.0,0.0,0.0,0.0,0.0,0.0,0.0,0.0,0.0,0.0,0.0,0.0,0.0,0.0,0.0,0.0,0.0,0.0,0.0,0.0,0.0,0.0,0.0,0.0,0.0,0.0,0.0,0.0,0.0,0.0,0.0,0.0,0.0,0.0,0.0,0.0,0.0,0.0,0.0,0.0,0.0,0.0,0.0,0.0,0.0,0.0,0.0,0.0,0.0,0.0,0.0,0.0,0.0,0.0,0.0,0.0,0.0,0.0,0.0,0.0,0.0,0.0,0.0,0.0,0.0,0.0,0.0,0.0,0.0,0.0,0.0,0.0,0.0,0.0,0.0,0.0,0.0,0.0,0.0,0.0,0.0,0.0,0.0,0.0,0.0,0.0,0.0,0.0,0.0,0.0,0.0,0.0,0.0,0.0,0.0,0.0,0.0,0.0,0.0,0.0,0.0,0.0,0.0,0.0,0.0,0.0,0.0,0.0,0.0,0.0,0.0,0.0,0.0,0.0,0.0,0.0,0.0,0.0,0.0,0.0,0.0,0.0,0.0,0.0,0.0,0.0,0.0,0.0,0.0,0.0,0.0,0.0,0.0,0.0,0.0,0.0,0.0,0.0,0.0,0.0,0.0,0.0,0.0,0.0,0.0,0.0,0.0,0.0,0.0,0.0,0.0,0.0,0.0,0.0,0.0,0.0,0.0,0.0,0.0,0.0,0.0,0.0,0.0,0.0,0.0,0.0,0.0,0.0,0.0,0.0,0.0,0.0,0.0,0.0,0.0,0.0,0.0,0.0,0.0,0.0,0.0,0.0,0.0,0.0,0.0,0.0,0.0,0.0,0.0,0.0,0.0,0.0,0.0,0.0,0.0,0.0,0.0,0.0,0.0,0.0,0.0,0.0,0.0,0.0,0.0,0.0,0.0,0.0,0.0,0.0,0.0,0.0,0.0,0.0,0.0,0.0,0.0,0.0,0.0,0.0,0.0,0.0,0.0,0.0,0.0,0.0,0.0,0.0,0.0,0.0,0.0,0.0,0.0,0.0,0.0,0.0,0.0,0.0,0.0,0.0,0.0,0.0,0.0,0.0,0.0,0.0,0.0,0.0,0.0,0.0,0.0,0.0,0.0,0.0,0.0,0.0,0.0,0.0,0.0,0.0,0.0,0.0,0.0,0.0,0.0,0.0,0.0,0.0,0.0,0.0,0.0,0.0,0.0,0.0,0.0,0.0,0.0,0.0,0.0,0.0,0.0,0.0,0.0,0.0,0.0,0.0,0.0,0.0,0.0,0.0,0.0,0.0,0.0,0.0,0.0,0.0,0.0,0.0,0.0,0.0,0.0,0.0,0.0,0.0,0.0,0.0,0.0,0.0,0.0,0.0,0.0,0.0,0.0,0.0,0.0,0.0,0.0,0.0,0.0,0.0,0.0,0.0,0.0,0.0,0.0,0.0,0.0,0.0,0.0,0.0,0.0,0.0,0.0,0.0,0.0,0.0,0.0,0.0,0.0,0.0,0.0,0.0,0.0,0.0,0.0,0.0,0.0,0.0,0.0,0.0,0.0,0.0,0.0,0.0,0.0,0.0,0.0,0.0,0.0,0.0,0.0,0.0,0.0,0.0,0.0,0.0,0.0,0.0,0.0,0.0,0.0,0.0,0.0,0.0,0.0,0.0,0.0,0.0,0.0,0.0,0.0,0.0,0.0,0.0,0.0,0.0,0.0,0.0,0.0,0.0,0.0,0.0,0.0,0.0,0.0,0.0,0.0,0.0,0.0,0.0,0.0,0.0,0.0,0.0,0.0,0.0,0.0,0.0,0.0,0.0,0.0,0.0,0.0,0.0,0.0,0.0,0.0,0.0,0.0,0.0,0.0,0.0,0.0,0.0,0.0,0.0,0.0,0.0,0.0,0.0,0.0,0.0,0.0,0.0,0.0,0.0,0.0,0.0,0.0,0.0,0.0,0.0,0.0,0.0,0.0,0.0,0.0,0.0,0.0,0.0,0.0,0.0,0.0,0.0,0.0,0.0,0.0,0.0,0.0,0.0,0.0,0.0,0.0,0.0,0.0,0.0,0.0,0.0,0.0,0.0,0.0,0.0,0.0,0.0,0.0,0.0,0.0,0.0,0.0,0.0,0.0,0.0,0.0,0.0,0.0,0.0,0.0,0.0,0.0,0.0,0.0,0.0,0.0,0.0,0.0,0.0,0.0,0.0,0.0,0.0,0.0,0.0,0.0,0.0,0.0,0.0,0.0,0.0,0.0,0.0,0.0,0.0,0.0,0.0,0.0,0.0,0.0,0.0,0.0,0.0,0.0,0.0,0.0,0.0,0.0,0.0,0.0,0.0,0.0,0.0,0.0,0.0,0.0,0.0,0.0,0.0,0.0,0.0,0.0,0.0,0.0,0.0,0.0,0.0,0.0,0.0,0.0,0.0,0.0,0.0,0.0,0.0,0.0,0.0,0.0,0.0,0.0,0.0,0.0,0.0,0.0,0.0,0.0,0.0,0.0,0.0,0.0,0.0,0.0,0.0,0.0,0.0,0.0,0.0,0.0,0.0,0.0,0.0,0.0,0.0,0.0,0.0,0.0,0.0,0.0,0.0,0.0,0.0,0.0,0.0,0.0,0.0,0.0,0.0,0.0,0.0,0.0,0.0,0.0,0.0,0.0,0.0,0.0,0.0,0.0,0.0,0.0,0.0,0.0,0.0,0.0,0.0,0.0,0.0,0.0,0.0,0.0,0.0,0.0,0.0,0.0,0.0,0.0,0.0,0.0,0.0,0.0,0.0,0.0,0.0,0.0,0.0,0.0,0.0,0.0,0.0,0.0,0.0,0.0,0.0,0.0,0.0,0.0,0.0,0.0,0.0,0.0,0.0,0.0,0.0,0.0,0.0,0.0,0.0,0.0,0.0,0.0,0.0,0.0,0.0,0.0,0.0,0.0,0.0,0.0,0.0,0.0,0.0,0.0,0.0,0.0,0.0,0.0,0.0,0.0,0.0,0.0,0.0,0.0,0.0,0.0,0.0,0.0,0.0,0.0,0.0,0.0,0.0,0.0,0.0,0.0,0.0,0.0,0.0,0.0,0.0,0.0,0.0,0.0,0.0,0.0,0.0,0.0,0.0,0.0,0.0,0.0,0.0,0.0,0.0,0.0,0.0,0.0,0.0,0.0,0.0,0.0,0.0,0.0,0.0,0.0,0.0,0.0,0.0,0.0,0.0,0.0,0.0,0.0,0.0,0.0,0.0,0.0,0.0,0.0,0.0,0.0,0.0,0.0,0.0,0.0,0.0,0.0,0.0,0.0,0.0,0.0,0.0,0.0,0.0,0.0,0.0,0.0,0.0,0.0,0.0,0.0,0.0,0.0,0.0,0.0,0.0,0.0,0.0,0.0,0.0,0.0,0.0,0.0,0.0,0.0,0.0,0.0,0.0,0.0,0.0,0.0,0.0,0.0,0.0,0.0,0.0,0.0,0.0,0.0,0.0,0.0,0.0,0.0,0.0,0.0,0.0,0.0,0.0,0.0,0.0,0.0,0.0,0.0,0.0,0.0,0.0,0.0,0.0,0.0,0.0,0.0,0.0,0.0,0.0,0.0,0.0,0.0,0.0,0.0,0.0,0.0,0.0,0.0,0.0,0.0,0.0,0.0,0.0,0.0,0.0,0.0,0.0,0.0,0.0,0.0,0.0,0.0,0.0,0.0,0.0,0.0,0.0,0.0,0.0,0.0,0.0,0.0,0.0,0.0,0.0,0.0,0.0,0.0,0.0,0.0,0.0,0.0,0.0,0.0,0.0,0.0,0.0,0.0,0.0,0.0,0.0,0.0,0.0,0.0,0.0,0.0,0.0,0.0,0.0,0.0,0.0,0.0,0.0,0.0,0.0,0.0,0.0,0.0,0.0,0.0,0.0,0.0,0.0,0.0,0.0,0.0,0.0,0.0,0.0,0.0,0.0,0.0,0.0,0.0,0.0,0.0,0.0,0.0,0.0,0.0,0.0,0.0,0.0,0.0,0.0,0.0,0.0,0.0,0.0,0.0,0.0,0.0,0.0,0.0,0.0,0.0,0.0,0.0,0.0,0.0,0.0,0.0,0.0,0.0,0.0,0.0,0.0,0.0,0.0,0.0,0.0,0.0,0.0,0.0,0.0,0.0,0.0,0.0,0.0,0.0,0.0,0.0,0.0,0.0,0.0,0.0,0.0,0.0,0.0,0.0,0.0,0.0,0.0,0.0,0.0,0.0,0.0,0.0,0.0,0.0,0.0,0.0,0.0,0.0,0.0,0.0,0.0,0.0,0.0,0.0,0.0,0.0,0.0,0.0,0.0,0.0,0.0,0.0,0.0,0.0,0.0,0.0,0.0,0.0,0.0,0.0,0.0,0.0,0.0,0.0,0.0,0.0,0.0,0.0,0.0,0.0,0.0,0.0,0.0,0.0,0.0,0.0,0.0,0.0,0.0,0.0,0.0,0.0,0.0,0.0,0.0,0.0,0.0,0.0,0.0,0.0,0.0,0.0,0.0,0.0,0.0,0.0,0.0,0.0,0.0,0.0,0.0,0.0,0.0,0.0,0.0,0.0,0.0,0.0,0.0,0.0,0.0,0.0,0.0,0.0,0.0,0.0,0.0,0.0,0.0,0.0,0.0,0.0,0.0,0.0,0.0,0.0,0.0,0.0,0.0,0.0,0.0,0.0,0.0,0.0,0.0,0.0,0.0,0.0,0.0,0.0,0.0,0.0,0.0,0.0,0.0,0.0,0.0,0.0,0.0,0.0,0.0,0.0,0.0,0.0,0.0,0.0,0.0,0.0,0.0,0.0,0.0,0.0,0.0,0.0,0.0,0.0,0.0,0.0,0.0,0.0,0.0,0.0,0.0,0.0,0.0,0.0,0.0,0.0,0.0,0.0,0.0,0.0,0.0,0.0,0.0,0.0,0.0,0.0,0.0,0.0,0.0,0.0,0.0,0.0,0.0,0.0,0.0,0.0,0.0,0.0,0.0,0.0,0.0,0.0,0.0,0.0,0.0,0.0,0.0,0.0,0.0,0.0,0.0,0.0,0.0,0.0,0.0,0.0,0.0,0.0,0.0,0.0,0.0,0.0,0.0,0.0,0.0,0.0,0.0,0.0,0.0,0.0,0.0,0.0,0.0,0.0,0.0,0.0,0.0,0.0,0.0,0.0,0.0,0.0,0.0,0.0,0.0,0.0,0.0,0.0,0.0,0.0,0.0,0.0,0.0,0.0,0.0,0.0,0.0,0.0,0.0,0.0,0.0,0.0,0.0,0.0,0.0,0.0,0.0,-0.3199,0.0,0.0,0.0,0.0,0.0,0.0,0.0,0.0,0.0,0.0,0.0,0.0,0.0,0.0,0.0,0.0,0.0,0.0,0.0,0.0,0.0,0.0,0.0,0.0,0.0,0.0,0.0,0.0,0.0,0.0,0.0,0.0,0.0,0.0,0.0,0.0,0.0,0.0,-1.9344,-2.0749,-2.1601,-2.2005,-2.1933,-2.1629,-2.1164,0.0,0.0,0.0,0.0,0.0,0.0,0.0,0.0,0.0,0.0,0.0,0.0,0.0,0.0,0.0,0.0,0.0,0.0,0.0,0.0,0.0,0.0,0.0,0.0,0.0,0.0,0.0,0.0,0.0,0.0,0.0,0.0,0.0,0.0,0.0,0.0,0.0,0.0,0.0,0.0,0.0,0.0,0.0,0.0,0.0,0.0,0.0,0.0,0.0,0.0,0.0,0.0,0.0,0.0,0.0,0.0,0.0,0.0,0.0,0.0,0.0,0.0,0.0,0.0,0.0,0.0,0.0,0.0,0.0,0.0,0.0,-0.3745,0.0,0.0,0.0,0.0,0.0,0.0,0.0,0.0,0.0,0.0,0.0,0.0,0.0,0.0,0.0,0.0,0.0,0.0,0.0,0.0,0.0,0.0,0.0,-1.5027,-1.5049,-1.4542,-1.5272,-1.5827,0.0,0.0,0.0,0.0,0.0,0.0,-1.7462,-1.8244,-1.849,-1.8018,-1.9873,-2.0914,-2.1151,-2.1553,-2.1486,-2.1181,-2.2266,0.0,0.0,0.0,0.0,0.0,0.0,0.0,0.0,0.0,0.0,0.0,0.0,0.0,0.0,0.0,0.0,0.0,0.0,0.0,0.0,0.0,0.0,0.0,0.0,0.0,0.0,0.0,0.0,0.0,0.0,0.0,0.0,0.0,0.0,0.0,0.0,0.0,0.0,0.0,0.0,0.0,0.0,0.0,0.0,0.0,0.0,0.0,0.0,0.0,0.0,0.0,0.0,0.0,0.0,0.0,0.0,0.0,0.0,0.0,0.0,0.0,0.0,0.0,-0.5325,-0.5146,-0.47,-0.4342,-0.4021,-0.3731,-0.4076,-0.4293,-0.4419,-0.4965,0.0,0.0,0.0,0.0,0.0,0.0,0.0,0.0,0.0,0.0,0.0,0.0,0.0,0.0,0.0,0.0,0.0,0.0,0.0,0.0,0.0,-1.5796,-1.5857,-1.5002,-1.5557,-1.591,-1.5734,0.0,0.0,0.0,0.0,0.0,-1.6497,-1.7115,-1.7169,-1.6554,-1.7435,-1.8197,-1.8865,-1.9178,-1.9204,-1.9105,-2.1112,-2.1499,-2.0499,0.0,0.0,0.0,0.0,0.0,0.0,0.0,0.0,0.0,0.0,0.0,0.0,0.0,0.0,0.0,0.0,0.0,0.0,0.0,0.0,0.0,0.0,0.0,0.0,0.0,0.0,0.0,0.0,0.0,0.0,0.0,0.0,0.0,0.0,0.0,0.0,0.0,0.0,0.0,0.0,0.0,-1.0606,-1.0287,0.0,0.0,0.0,0.0,0.0,0.0,0.0,0.0,0.0,0.0,0.0,0.0,0.0,-0.5502,-0.5747,-0.5576,-0.5657,-0.603,-0.5768,-0.5617,-0.5562,-0.5653,-0.5268,-0.4571,-0.5257,0.0,-0.4821,-0.5856,0.0,0.0,0.0,0.0,0.0,0.0,0.0,0.0,0.0,0.0,0.0,0.0,0.0,0.0,0.0,0.0,0.0,0.0,0.0,0.0,0.0,-1.6005,-1.5937,-1.5792,-1.6136,-1.6213,-1.5944,-1.5942,0.0,0.0,0.0,-1.5107,-1.5061,-1.5513,-1.5807,-1.5945,-1.6536,-1.7153,-1.7872,-1.8347,-1.8472,-1.8395,-1.9057,-1.9366,-1.9497,-1.8505,0.0,0.0,0.0,0.0,0.0,0.0,0.0,0.0,0.0,0.0,0.0,0.0,0.0,0.0,0.0,0.0,0.0,0.0,0.0,0.0,0.0,0.0,0.0,0.0,0.0,0.0,0.0,0.0,0.0,0.0,0.0,0.0,0.0,0.0,0.0,0.0,0.0,0.0,0.0,-1.2717,-1.2908,-1.2263,-1.1756,-1.1119,0.0,0.0,0.0,0.0,0.0,0.0,0.0,0.0,0.0,-0.8228,-0.7904,-0.7603,-0.7315,-0.7437,-0.7255,-0.6825,-0.6887,-0.6711,-0.6319,-0.6482,-0.6179,-0.5584,-0.6319,-0.6447,-0.6113,-0.6225,-0.6825,-0.7734,0.0,0.0,0.0,0.0,-1.3579,-1.4823,0.0,0.0,0.0,0.0,0.0,0.0,0.0,0.0,0.0,0.0,0.0,0.0,-1.6363,-1.6198,-1.6097,-1.6217,-1.6476,-1.6533,-1.6111,-1.5919,-1.5676,-1.5377,-1.4519,-1.4043,-1.4054,-1.439,-1.4934,-1.5662,-1.5841,-1.6306,-1.6963,-1.7242,-1.7277,-1.7173,-1.6675,-1.724,-1.8513,-1.7634,-1.6797,-1.582,0.0,0.0,0.0,0.0,0.0,0.0,0.0,0.0,0.0,0.0,0.0,0.0,0.0,0.0,0.0,0.0,0.0,0.0,0.0,0.0,0.0,0.0,0.0,0.0,0.0,0.0,0.0,0.0,0.0,0.0,0.0,0.0,0.0,0.0,0.0,0.0,0.0,-1.4394,-1.4788,-1.4004,-1.3642,-1.2968,0.0,0.0,0.0,0.0,0.0,0.0,-1.094,-1.0739,-1.0659,-1.0632,-1.0121,-0.9559,-0.8978,-0.8971,-0.8485,-0.7502,-0.772,-0.7486,-0.6848,-0.7056,-0.6816,-0.6274,-0.7027,-0.7272,-0.7051,-0.69,-0.7477,-0.8566,-0.9315,-1.0409,-1.1769,-1.3418,-1.4511,-1.5385,0.0,0.0,0.0,0.0,0.0,0.0,0.0,0.0,0.0,0.0,0.0,-1.6516,-1.5981,-1.6648,-1.6746,-1.5824,-1.6439,-1.6664,-1.6137,-1.5406,-1.5057,-1.5287,-1.3695,-1.315,-1.4003,-1.4274,-1.4827,-1.5625,-1.5035,-1.5047,-1.5627,-1.4924,-1.4564,-1.4505,-1.4344,-1.5619,-1.777,-1.6251,-1.5415,-1.4924,-1.3301,0.0,0.0,0.0,0.0,0.0,0.0,0.0,0.0,0.0,0.0,0.0,0.0,0.0,0.0,0.0,0.0,0.0,0.0,0.0,0.0,0.0,0.0,0.0,0.0,0.0,0.0,0.0,0.0,0.0,0.0,0.0,0.0,0.0,0.0,0.0,0.0,0.0,0.0,-1.4744,-1.4014,0.0,0.0,0.0,0.0,-1.3367,-1.3473,-1.3674,-1.4031,-1.353,-1.3025,-1.2674,-1.1211,-1.038,-1.0214,-0.9026,-0.8311,-0.8059,-0.7759,-0.7391,-0.6996,-0.7318,-0.7042,-0.6342,-0.7213,-0.7376,-0.7102,-0.8266,-0.896,-0.9428,-1.1297,-1.2283,-1.2841,-1.4926,-1.5875,-1.6295,0.0,0.0,0.0,0.0,0.0,0.0,0.0,0.0,-1.4742,-1.4638,-1.5695,-1.6471,-1.6551,-1.6775,-1.6937,-1.6981,-1.6664,-1.6606,-1.6981,-1.5315,-1.4803,-1.5903,-1.431,-1.3782,-1.4526,-1.4753,-1.485,-1.4976,-1.4845,-1.4698,-1.4579,-1.4086,-1.359,-1.3219,-1.3032,-1.3601,-1.4718,-1.4773,-1.4614,-1.4274,-1.34,-1.2205,0.0,0.0,0.0,0.0,0.0,0.0,0.0,0.0,0.0,0.0,0.0,0.0,0.0,0.0,0.0,0.0,0.0,0.0,0.0,0.0,0.0,0.0,0.0,0.0,0.0,0.0,0.0,0.0,0.0,0.0,0.0,0.0,0.0,0.0,0.0,0.0,0.0,-1.7839,-1.7499,0.0,-1.6743,-1.5933,-1.5424,-1.5298,-1.4734,-1.4485,-1.4674,-1.4361,-1.4076,-1.3844,-1.3128,-1.2323,-1.1466,-1.0791,-0.9965,-0.9018,-0.9071,-0.8855,-0.8439,-0.876,-0.8701,-0.8359,-0.855,-0.8626,-0.8671,-0.9555,-0.993,-1.0099,-1.1478,-1.2541,-1.3472,-1.4953,-1.5815,-1.6347,0.0,0.0,0.0,0.0,0.0,0.0,0.0,0.0,-1.4788,-1.5128,-1.6124,-1.6877,-1.7182,-1.733,-1.7472,-1.772,-1.7116,-1.6943,-1.741,-1.5798,-1.5175,-1.5994,-1.4713,-1.4288,-1.4931,-1.4987,-1.5008,-1.5002,-1.4595,-1.4042,-1.3394,-1.266,-1.2012,-1.1441,-1.1481,-1.1814,-1.2423,-1.3563,-1.4132,-1.4256,-1.3866,-1.2946,-1.1782,0.0,0.0,0.0,0.0,0.0,0.0,0.0,0.0,0.0,0.0,0.0,0.0,0.0,0.0,0.0,0.0,0.0,0.0,0.0,0.0,0.0,0.0,0.0,0.0,0.0,0.0,0.0,0.0,0.0,0.0,0.0,0.0,0.0,0.0,-1.8609,-1.9074,-1.9518,-1.9449,-1.9198,-1.8792,-1.7993,-1.7371,-1.6937,-1.6124,-1.5665,-1.5697,-1.5534,-1.5344,-1.5068,-1.4526,-1.3731,-1.272,-1.2047,-1.1185,-1.0116,-1.0185,-0.9958,-0.9505,-0.9689,-0.9659,-0.9499,-0.9369,-0.9381,-0.9574,-1.0222,-1.0587,-1.0843,-1.2123,-1.3071,-1.3954,-1.5282,-1.6011,-1.6401,0.0,0.0,0.0,0.0,0.0,0.0,0.0,-1.4454,-1.509,-1.636,-1.7212,-1.7722,-1.7813,-1.8295,-1.8383,-1.7868,-1.7801,-1.7675,-1.7394,-1.6725,-1.6087,-1.5502,-1.4763,-1.457,-1.5028,-1.5004,-1.5273,-1.5736,-1.43,-1.3042,-1.1858,-1.0581,-0.966,-0.9037,-0.9684,-1.0363,-1.1186,-1.2674,-1.3917,-1.4888,-1.464,-1.41,-1.3417,0.0,0.0,0.0,0.0,0.0,0.0,0.0,0.0,0.0,0.0,0.0,0.0,0.0,0.0,0.0,0.0,0.0,0.0,0.0,0.0,0.0,0.0,0.0,0.0,0.0,0.0,0.0,0.0,0.0,0.0,0.0,0.0,0.0,-1.8869,-1.9253,-1.959,-1.9569,-1.9569,-1.9542,-1.9487,-1.8884,-1.8423,-1.8379,-1.7773,-1.7355,-1.7231,-1.7124,-1.6837,-1.6301,-1.5276,-1.4451,-1.3883,-1.2577,-1.1725,-1.1369,-1.0994,-1.0576,-1.0124,-0.9994,-0.9784,-0.9538,-0.9538,-0.9625,-0.9734,-1.0312,-1.0974,-1.1801,-1.3383,-1.4038,-1.4332,-1.5892,-1.6479,-1.664,0.0,0.0,0.0,0.0,0.0,0.0,0.0,-1.5153,-1.5661,-1.6664,-1.7332,-1.7855,-1.8267,-1.8592,-1.8769,-1.8616,-1.772,-1.764,-1.8826,-1.6355,-1.4839,-1.4858,-1.5874,-1.6265,-1.5795,-1.5731,-1.5194,-1.4051,-1.2483,-1.0872,-0.914,-0.792,-0.729,-0.7189,-0.8195,-0.9296,-1.0547,-1.2495,-1.4019,-1.5184,-1.5286,-1.487,-1.4243,0.0,0.0,0.0,0.0,0.0,0.0,0.0,0.0,0.0,0.0,0.0,0.0,0.0,0.0,0.0,0.0,0.0,0.0,0.0,0.0,0.0,0.0,0.0,0.0,0.0,0.0,0.0,0.0,0.0,0.0,0.0,-2.0357,-2.0395,-2.0137,-2.013,-2.0377,-2.0964,-2.1055,-2.1143,-2.123,-2.0505,-2.0047,-2.002,-1.8759,-1.7915,-1.7791,-1.6987,-1.6409,-1.6163,-1.5474,-1.46,-1.3558,-1.2887,-1.1989,-1.09,-1.0952,-1.0743,-1.0409,-1.0566,-1.0739,-1.088,-1.0845,-1.1105,-1.1593,-1.184,-1.2189,-1.2602,-1.3323,-1.4088,-1.4809,-1.5671,-1.6175,-1.6504,0.0,0.0,0.0,0.0,0.0,0.0,0.0,-1.5397,-1.613,-1.7491,-1.782,-1.8271,-1.9036,-1.8969,-1.8848,-1.8877,-1.7841,-1.7562,-1.8403,-1.6365,-1.5184,-1.5258,-1.5952,-1.5965,-1.5245,-1.4482,-1.3354,-1.1871,-0.9815,-0.7804,-0.5828,-0.5115,-0.4947,-0.5355,-0.7072,-0.8802,-1.0521,-1.2605,-1.4137,-1.5271,-1.5972,-1.6007,-1.5716,-1.6167,-1.5153,-1.3484,-1.3607,-1.2617,-1.1288,-1.1392,0.0,0.0,0.0,0.0,0.0,0.0,0.0,0.0,0.0,0.0,0.0,0.0,0.0,0.0,0.0,0.0,0.0,0.0,0.0,0.0,0.0,0.0,0.0,0.0,-2.0978,-2.1029,-2.0863,-2.0828,-2.101,-2.1556,-2.165,-2.1648,-2.1675,-2.1048,-2.0591,-2.0443,-1.9256,-1.8501,-1.8335,-1.7616,-1.6959,-1.6452,-1.5889,-1.4989,-1.3699,-1.3129,-1.239,-1.1439,-1.1307,-1.111,-1.0808,-1.0856,-1.1098,-1.1389,-1.1304,-1.1669,-1.2377,-1.242,-1.2701,0.0,0.0,0.0,0.0,0.0,-1.5957,-1.6262,0.0,0.0,0.0,0.0,0.0,0.0,0.0,-1.5336,-1.6358,-1.8302,-1.8314,-1.856,-1.9641,-1.9144,-1.8714,-1.868,-1.8017,-1.7389,-1.6849,-1.6655,-1.6354,-1.5997,-1.5274,-1.4486,-1.3672,-1.193,-1.0374,-0.902,-0.6369,-0.4069,-0.2126,-0.2107,-0.2603,-0.3667,-0.6307,-0.8677,-1.081,-1.2831,-1.4251,-1.5208,-1.6578,-1.7235,-1.7371,-1.7839,-1.7199,-1.6115,-1.6375,-1.5207,-1.3557,-1.3541,0.0,0.0,0.0,0.0,0.0,0.0,0.0,0.0,0.0,0.0,0.0,0.0,0.0,0.0,0.0,0.0,0.0,0.0,0.0,0.0,0.0,0.0,0.0,0.0,-2.1151,-2.1562,-2.1376,-2.1408,-2.1502,-2.1528,-2.1589,-2.1559,-2.1433,-2.0907,-2.0518,-2.0247,-1.9514,-1.9012,-1.8865,0.0,0.0,0.0,0.0,-1.5417,-1.4159,-1.3352,-1.2769,-1.2401,-1.1836,-1.1394,-1.1153,-1.0964,-1.11,-1.1429,-1.1327,-1.1714,-1.2529,-1.2529,-1.2912,-1.3606,-1.4092,-1.436,-1.4609,-1.5353,-1.5756,-1.5981,0.0,0.0,0.0,0.0,0.0,0.0,0.0,-1.5261,-1.5831,-1.7381,-1.7333,-1.7455,-1.8148,-1.8115,-1.8022,-1.7924,-1.7422,-1.6729,-1.5773,-1.6391,-1.6138,-1.467,-1.4303,-1.3283,-1.1528,-0.988,-0.7633,-0.4701,-0.1909,0.0084,0.1249,0.1035,-0.027,-0.2624,-0.5927,-0.8644,-1.0845,-1.2869,-1.4219,-1.5174,-1.6775,-1.7425,-1.7559,-1.8399,-1.8313,-1.778,-1.8042,-1.7983,-1.7727,-1.7858,-1.7413,-1.6701,-1.5844,-1.4847,0.0,0.0,0.0,0.0,0.0,0.0,0.0,0.0,0.0,0.0,0.0,0.0,0.0,0.0,0.0,0.0,0.0,0.0,0.0,-2.1286,-2.1521,-2.1725,-2.2118,-2.2085,-2.1857,-2.1342,-2.1371,-2.1464,-2.1559,-2.1364,-2.1175,-2.1083,-2.0128,-1.9468,-1.928,-1.8245,-1.7459,-1.7011,-1.6334,-1.547,-1.4428,-1.3679,-1.2839,-1.1932,0.0,0.0,-1.0736,-1.0697,-1.1065,-1.1704,-1.1641,-1.2212,-1.3211,-1.3211,-1.3533,-1.4082,-1.4449,-1.4812,-1.513,-1.5334,-1.5402,-1.5492,0.0,0.0,0.0,0.0,0.0,0.0,0.0,-1.4562,-1.5327,-1.6447,-1.6788,-1.7151,-1.7817,-1.7637,-1.7424,-1.7362,-1.6818,-1.6307,-1.5918,-1.6314,-1.5848,-1.4167,-1.3471,-1.1866,-0.9193,-0.6936,-0.4119,-0.0736,0.1745,0.3181,0.3625,0.2618,0.0461,-0.2751,-0.6198,-0.8978,-1.1124,-1.329,-1.4647,-1.5499,-1.7407,-1.8219,-1.832,-1.9425,-1.9562,-1.918,-1.9447,-1.9535,-1.9479,-1.932,-1.9074,-1.8741,-1.7916,-1.682,-1.5545,0.0,0.0,0.0,0.0,0.0,0.0,0.0,0.0,0.0,0.0,0.0,0.0,0.0,0.0,-1.9783,-2.0384,0.0,-2.1595,-2.1923,-2.1988,-2.2151,-2.2629,-2.2665,-2.2408,-2.1826,-2.1794,-2.1693,-2.1436,-2.1633,-2.1633,-2.1247,-2.086,-2.0438,-1.9862,-1.8951,-1.8104,-1.7363,-1.6647,-1.5717,-1.455,-1.379,-1.3048,-1.2329,-1.1676,-1.1304,-1.1124,-1.0864,-1.1116,-1.1804,-1.185,-1.2385,-1.3218,-1.3478,-1.3936,-1.4462,-1.4273,-1.4534,-1.4949,-1.4949,-1.4994,-1.5108,0.0,0.0,0.0,0.0,0.0,0.0,0.0,-1.3574,-1.4495,-1.5261,-1.5949,-1.6578,-1.7091,-1.6879,-1.6668,-1.6576,-1.6182,-1.5948,-1.6006,-1.5974,-1.5341,-1.3987,-1.2705,-1.0504,-0.7346,-0.4316,-0.1106,0.2386,0.4347,0.5199,0.4979,0.3163,0.0312,-0.3389,-0.6692,-0.9327,-1.1412,-1.3692,-1.5038,-1.5809,-1.7916,-1.8836,-1.9027,-2.0419,-2.067,-2.0355,-2.0512,-2.0414,-2.0152,-1.9971,-1.9815,-1.9684,-1.9061,-1.8215,-1.7113,-1.559,-1.4868,0.0,0.0,0.0,0.0,0.0,0.0,0.0,0.0,-1.697,-1.8208,-1.8768,-2.032,-2.1521,-2.1161,-2.185,-2.247,-2.2437,-2.2504,-2.273,-2.3191,-2.3251,-2.3096,-2.2657,-2.2442,-2.2151,-2.1666,-2.2051,-2.2015,-2.131,-2.1418,-2.1171,-2.0216,-1.9617,-1.8795,-1.7731,-1.694,-1.5903,-1.47,-1.3813,-1.3145,-1.2764,-1.1923,-1.1526,-1.1538,-1.1103,-1.1179,-1.1715,-1.1978,-1.2397,-1.2929,-1.356,-1.4118,-1.4461,-1.4139,-1.4212,-1.4457,-1.4466,-1.456,-1.4766,0.0,0.0,0.0,0.0,0.0,0.0,0.0,0.0,-1.2682,-1.339,-1.4081,-1.4398,-1.4112,-1.5061,-1.5476,-1.4996,-1.5385,-1.5358,-1.4687,-1.4686,-1.44,-1.3702,-1.1918,-0.967,-0.6825,-0.3698,-0.0187,0.3786,0.5103,0.5393,0.4711,0.2579,-0.0414,-0.4205,-0.714,-0.943,-1.1259,-1.3548,-1.4831,-1.5538,-1.7543,-1.8539,-1.8969,-2.0769,-2.1336,-2.1227,-2.0963,-2.069,-2.0634,-2.1369,-2.0863,-2.0026,-2.0225,-1.9468,-1.82,-1.6538,-1.5723,-1.5348,-1.5292,-1.5857,-1.6369,-1.6316,-1.6154,-1.6571,0.0,-1.9088,-1.9295,-2.1046,-2.1865,-2.2282,-2.2251,-2.265,-2.3003,-2.3003,-2.3106,-2.3398,-2.3962,-2.3941,-2.379,-2.3658,-2.3206,-2.2946,-2.3062,-2.2911,-2.2572,-2.1945,-2.1561,-2.0885,-1.9827,-1.9184,-1.8549,-1.7826,-1.6959,-1.5994,-1.4952,-1.3891,-1.2978,-1.2276,-1.1504,-1.1129,-1.1053,-1.0883,-1.1058,-1.148,-1.2041,-1.2374,-1.2646,-1.3511,-1.3862,-1.3892,-1.4543,-1.4471,-1.396,-1.3909,-1.4046,-1.4258,0.0,0.0,0.0,0.0,0.0,0.0,0.0,0.0,0.0,-1.2019,-1.2678,-1.3123,-1.3195,-1.4194,-1.4627,-1.4116,-1.4621,-1.4681,-1.3979,-1.4003,-1.3718,-1.2996,-1.1937,-1.0377,-0.8257,-0.4316,-0.0993,0.1605,0.3927,0.4426,0.3131,0.1219,-0.1483,-0.4828,-0.704,-0.9023,-1.0845,-1.3216,-1.4941,-1.6288,-1.8479,-1.9656,-2.0316,-2.1607,-2.2131,-2.2075,-2.1406,-2.1151,0.0,-2.0914,-2.0525,-2.0089,-2.0135,-1.9302,-1.813,-1.7273,-1.6909,-1.7059,-1.8345,-1.8439,-1.8346,-1.9154,-1.9179,-1.9321,-2.0452,-2.0909,-2.1362,-2.2324,-2.2819,-2.3061,-2.2893,-2.3026,-2.3217,-2.3368,-2.3368,-2.3582,-2.4194,-2.4248,-2.416,-2.3948,-2.3832,-2.3544,-2.2996,-2.3269,-2.3001,-2.1796,-2.2084,-2.1455,-1.9641,-1.9229,-1.8587,-1.7544,-1.6642,-1.5768,-1.4852,-1.4,-1.3181,-1.2444,-1.1731,-1.138,-1.1381,-1.1006,-1.1066,-1.1585,-1.1895,-1.2184,-1.245,-1.3219,-1.3652,-1.3834,-1.4222,-1.4393,-1.448,-1.4133,-1.3897,-1.3742,0.0,0.0,0.0,0.0,0.0,0.0,0.0,0.0,0.0,0.0,-1.1342,-1.2071,-1.2788,-1.3453,-1.3724,-1.3355,-1.3915,-1.4003,-1.3405,-1.3476,-1.3286,-1.2754,-1.2162,-1.1147,-0.96,-0.5524,-0.2593,-0.0891,0.1511,0.2086,0.0889,-0.0792,-0.2963,-0.5466,-0.6899,-0.8541,-1.0384,-1.2805,-1.4924,-1.6849,-1.936,-2.0785,-2.158,-2.2523,-2.2936,-2.2826,-2.1637,-2.1266,-2.1207,-2.0442,-1.9904,-1.9627,-1.9852,-1.9101,-1.811,-1.7963,-1.8238,-1.8826,-2.0375,-2.0461,-2.0388,-2.1295,-2.1497,-2.1572,-2.1793,-2.2361,-2.2959,-2.3264,-2.3534,-2.3673,-2.3468,-2.3458,-2.3508,-2.3778,-2.3699,-2.3804,-2.4256,-2.4359,-2.4214,-2.3716,-2.3823,-2.3538,-2.2485,-2.3335,-2.3311,-2.1823,-2.2263,-2.1633,-1.9346,-1.9041,-1.8385,-1.7214,-1.6324,-1.5445,-1.4606,-1.3931,-1.319,-1.2461,-1.187,-1.1598,-1.1519,-1.1092,-1.1158,-1.1586,-1.1844,-1.2049,-1.2337,-1.3167,-1.367,-1.3936,-1.4105,-1.4443,-1.4707,-1.4241,-1.3881,-1.358,0.0,0.0,0.0,0.0,0.0,0.0,0.0,0.0,0.0,0.0,0.0,0.0,0.0,-1.2602,-1.2531,-1.2623,-1.3287,-1.3426,-1.2766,-1.2947,-1.3152,-1.3268,-1.2457,-1.1461,-1.0297,-0.7257,-0.4789,-0.2923,-0.2173,-0.1861,-0.2001,-0.3634,-0.5016,-0.6187,-0.6834,-0.8076,-0.9873,-1.2381,-1.4598,-1.6784,-1.9757,-2.1517,-2.2459,-2.332,-2.3673,-2.3461,-2.1727,-2.0852,-2.0516,-2.0495,-1.9494,-1.8454,-1.9701,-1.9317,-1.8479,-1.8766,-1.9639,-2.0475,-2.0264,-2.1245,-2.2189,-2.1708,-2.2014,-2.2661,-2.3274,-2.335,-2.3446,-2.3967,-2.412,-2.4109,-2.3994,-2.4006,-2.4131,-2.4287,-2.4287,-2.4287,-2.4317,-2.4204,-2.3793,-2.2866,-2.2888,-2.2576,-2.1715,-2.3071,-2.3538,-2.2393,-2.182,-2.0759,-1.8903,-1.8333,-1.7666,-1.6837,-1.5908,-1.5062,-1.4305,-1.3437,-1.2735,-1.2116,-1.1819,-1.1501,-1.1116,-1.1116,-1.1167,-1.1335,-1.1818,-1.2097,-1.2307,-1.3405,-1.3902,-1.3958,-1.4713,-1.4638,-1.411,-1.4091,-1.4088,-1.399,0.0,0.0,0.0,0.0,0.0,0.0,0.0,0.0,0.0,0.0,0.0,0.0,0.0,0.0,0.0,0.0,-1.2535,-1.2725,-1.2157,-1.252,-1.2808,-1.2907,-1.3092,-1.3136,-1.3029,-1.0139,-0.8396,-0.7829,-0.5959,-0.487,-0.4497,-0.5038,-0.5392,-0.5527,-0.5549,-0.6657,-0.8654,-1.1165,-1.3942,-1.6967,-1.9958,-2.1935,-2.3255,-2.4077,-2.4173,-2.3699,0.0,-2.1686,-2.1108,-2.0349,-1.9691,-1.92,-1.9229,-1.884,-1.8525,-1.9534,-2.0734,-2.191,-2.2772,-2.3243,-2.3754,-2.4627,-2.4378,-2.4106,-2.4914,-2.4523,-2.404,-2.4297,-2.4193,-2.4024,-2.4024,-2.3867,-2.3932,-2.4297,-2.3953,-2.3759,-2.4164,-2.4134,-2.3763,-2.3054,-2.3349,-2.3216,-2.2081,-2.2222,-2.2064,-2.1113,-2.1001,-2.0233,-1.8503,-1.8181,-1.7565,-1.6429,-1.5511,-1.4698,-1.3956,-1.3218,-1.2608,-1.2067,-1.1619,-1.1267,-1.0981,-1.0981,-1.1149,-1.1505,-1.1728,-1.2094,-1.2517,-1.3268,-1.3557,-1.3651,-1.4164,-1.4218,-1.4015,-1.382,-1.3726,-1.3651,0.0,0.0,0.0,0.0,0.0,0.0,0.0,0.0,0.0,0.0,0.0,0.0,0.0,0.0,0.0,0.0,0.0,-1.1666,-1.1419,-1.1944,-1.2251,-1.2338,-1.3698,-1.4556,-1.4791,-1.3022,-1.1825,-1.1363,-0.937,-0.7717,-0.6413,-0.6247,-0.5872,-0.5273,-0.491,-0.5884,-0.793,-1.0354,-1.3458,-1.705,-2.0189,-2.2483,-2.4125,-2.4936,-2.4907,0.0,-2.3579,-2.2762,-2.1857,-2.0556,-2.0043,-1.9847,-1.949,-1.938,-1.9594,-2.0878,-2.1958,-2.3009,-2.4414,-2.4702,-2.4981,-2.6178,-2.5963,-2.5571,-2.6199,-2.5603,-2.4937,-2.502,-2.4596,-2.4193,-2.4109,-2.394,-2.3863,-2.4327,-2.397,-2.3716,-2.4036,-2.4002,-2.3543,-2.2582,-2.2669,-2.2351,-2.131,-2.0669,-2.0283,-2.0187,-2.0026,-1.9348,-1.7938,-1.7716,-1.7058,-1.5952,-1.5242,-1.4468,-1.3674,-1.3094,-1.2578,-1.2017,-1.1519,-1.1285,-1.1319,-1.1319,-1.1574,-1.2001,-1.2192,-1.2491,-1.2863,-1.3362,-1.3521,-1.3479,-1.3784,-1.389,-1.3795,-1.3549,-1.3483,-1.3408,0.0,0.0,0.0,0.0,0.0,0.0,0.0,0.0,0.0,0.0,0.0,0.0,0.0,0.0,0.0,0.0,0.0,0.0,-1.0703,-1.1309,-1.1694,-1.1794,-1.4268,-1.5616,-1.5525,-1.556,-1.486,-1.3364,-1.2204,-1.0296,-0.779,-0.7307,-0.6523,-0.5467,-0.4882,-0.572,-0.7714,-0.9939,-1.3151,-1.6979,-2.046,-2.3139,-2.5072,-2.5745,-2.5727,-2.5334,-2.4712,-2.3815,-2.2735,-2.1147,-2.0499,-2.0357,-2.0514,-2.0922,-2.1558,-2.2669,-2.3241,-2.3808,-2.507,-2.5521,-2.5817,-2.6441,-2.666,-2.6816,-2.704,-2.6483,-2.5914,-2.5914,-2.5183,-2.4502,-2.4236,-2.412,-2.4096,-2.4372,-2.4309,-2.4153,-2.3949,-2.3873,-2.3213,-2.1636,-2.104,-2.0401,-1.9585,-1.8617,-1.8559,-1.9644,0.0,-1.8165,-1.7323,-1.6876,-1.6286,-1.54,-1.4903,-1.4261,-1.3409,-1.3065,-1.2529,-1.1936,-1.1536,-1.1644,-1.2079,-1.2167,-1.2342,-1.2727,-1.3055,-1.3212,-1.3264,-1.3612,-1.3649,-1.3511,-1.3709,-1.3649,-1.345,-1.3329,-1.3268,-1.3278,0.0,0.0,0.0,0.0,0.0,0.0,0.0,0.0,0.0,0.0,0.0,0.0,0.0,0.0,0.0,0.0,0.0,0.0,-1.094,-1.1771,-1.256,-1.3388,-1.5141,-1.6125,-1.6087,-1.5574,-1.5,-1.4331,-1.2714,-1.0871,-0.8871,-0.8379,-0.7193,-0.5473,-0.4981,-0.5599,-0.7156,-0.9581,-1.2943,-1.6887,-2.0138,-2.2966,-2.5198,-2.5745,-2.5705,-2.5317,-2.4783,-2.4128,-2.3386,-2.2269,-2.1472,-2.0996,-2.1258,-2.1766,-2.236,-2.2748,-2.3631,-2.4657,-2.5236,-2.5414,-2.5777,-2.7248,-2.6318,-2.5415,-2.6659,-2.557,-2.4351,-2.4537,-2.4225,-2.3787,-2.321,-2.3876,-2.4507,-2.4341,-2.4411,-2.4442,-2.4373,-2.4049,-2.342,-2.2409,-2.2198,-2.1788,-2.0906,-1.9773,-1.9022,-1.8793,-1.8123,-1.7508,-1.7119,-1.6504,-1.5864,-1.52,-1.4628,-1.405,-1.3409,-1.2852,-1.2431,-1.2036,-1.2277,-1.2322,-1.229,-1.2681,-1.291,-1.3072,-1.3159,-1.331,-1.3451,-1.3433,-1.3285,-1.3103,-1.3042,-1.2981,-1.2797,-1.2736,-1.2658,-1.2536,0.0,0.0,0.0,0.0,0.0,0.0,0.0,0.0,0.0,0.0,0.0,0.0,0.0,0.0,0.0,0.0,0.0,0.0,0.0,-0.9408,-1.0213,-0.9834,-1.3464,-1.5385,-1.5215,-1.5734,-1.5855,-1.5641,-1.4178,-1.2588,-1.094,-0.9625,-0.8162,-0.6589,-0.5717,-0.6125,-0.7655,-0.9914,-1.3084,0.0,0.0,-2.2676,-2.5052,-2.5529,-2.5644,-2.548,-2.4996,-2.4614,-2.4149,-2.3045,-2.2324,-2.1894,-2.2046,-2.2363,-2.279,-2.3142,-2.3898,-2.4797,-2.5449,-2.5517,-2.5747,-2.698,-2.626,-2.5419,-2.6143,-2.5237,-2.4232,-2.4137,-2.3745,-2.3248,-2.2834,-2.3496,-2.4126,-2.4282,-2.4509,-2.4575,-2.4255,-2.4002,-2.3426,-2.2292,-2.1971,-2.1608,-2.101,-1.9971,-1.9128,-1.8631,-1.7626,-1.6914,-1.6679,-1.6137,-1.5534,-1.4879,-1.4488,-1.3952,-1.3238,-1.2803,-1.248,-1.2283,-1.2674,-1.2868,-1.2877,-1.3442,-1.3734,-1.3749,0.0,-1.3637,-1.3631,-1.3424,-1.3119,-1.2797,-1.2752,-1.2552,-1.2367,-1.2243,-1.2182,-1.2058,0.0,0.0,0.0,0.0,0.0,0.0,0.0,0.0,0.0,0.0,0.0,0.0,0.0,0.0,0.0,0.0,0.0,0.0,0.0,0.0,-0.6179,-0.4758,-1.0505,-1.3744,-1.3839,-1.5859,-1.6888,-1.6767,-1.5683,-1.4431,-1.2992,-1.0802,-0.9166,-0.8034,-0.6718,-0.7011,-0.8557,-1.0555,-1.3377,-1.6749,-1.9599,-2.2254,-2.4537,0.0,-2.5246,-2.5383,-2.5079,-2.4918,-2.4614,-2.3571,-2.3136,-2.3012,-2.2854,-2.2963,-2.3204,-2.3685,-2.404,-2.4477,-2.5409,-2.553,-2.5481,-2.5943,-2.5828,-2.5588,-2.5277,-2.4851,-2.4404,-2.3989,-2.3347,-2.2798,-2.256,-2.2947,-2.3427,-2.3926,-2.4382,-2.441,-2.3839,-2.3738,-2.3192,-2.1787,-2.1137,-2.0743,-2.0603,-1.9733,-1.9042,-1.8858,-1.7448,-1.6492,-1.6298,-1.5893,-1.5355,-1.4652,-1.4482,-1.4047,-1.3233,-1.3027,-1.2849,-1.275,-1.3099,-1.3393,-1.3606,-1.4204,-1.4466,-1.4446,-1.4249,0.0,-1.3709,-1.3363,-1.2997,-1.2567,-1.2553,-1.2352,-1.2011,-1.1854,-1.1777,-1.1685,0.0,0.0,0.0,0.0,0.0,0.0,0.0,0.0,0.0,0.0,-0.7433,-0.7145,0.0,0.0,0.0,0.0,0.0,0.0,0.0,0.0,0.0,-0.5546,-0.8622,-1.1449,-1.3909,-1.5697,-1.6571,-1.6562,-1.5027,-1.3783,-1.2734,-1.1051,-0.9427,-0.7921,-0.7264,-0.756,-0.869,-1.0605,-1.3333,-1.66,-1.8556,-2.0985,-2.3422,-2.3247,0.0,0.0,-2.3987,-2.3989,-2.4053,-2.3846,-2.4159,-2.4453,-2.3688,-2.3772,-2.4116,-2.4073,-2.4173,-2.4353,-2.4395,-2.4251,-2.4132,-2.4086,-2.3538,-2.3088,-2.3509,-2.284,-2.2164,-2.2353,-2.2261,-2.1972,-2.1268,-2.2251,-2.3031,-2.2697,-2.3235,-2.3587,-2.3119,-2.2948,-2.2572,-2.1856,-2.1472,-2.1274,-2.1274,-2.0067,-1.9061,-1.8693,-1.7713,-1.7065,-1.6864,-1.6065,-1.5357,-1.4855,-1.4531,-1.4386,-1.449,-1.4108,-1.3926,-1.3893,-1.4192,-1.4332,-1.4279,-1.4677,-1.4669,-1.4249,-1.413,0.0,-1.3363,-1.2997,-1.2674,-1.2336,-1.2363,-1.2049,-1.1714,-1.1789,-1.1589,-1.1373,0.0,0.0,0.0,0.0,0.0,0.0,0.0,-0.7232,-0.7603,-0.8087,-0.7792,-0.7484,-0.7436,-0.6862,-0.6403,0.0,0.0,0.0,0.0,0.0,0.0,0.0,-0.8563,-1.1357,-1.3125,-1.4099,-1.503,-1.5934,0.0,-1.3579,-1.3344,-1.1367,-0.9919,-0.8928,-0.8552,-0.9109,-1.0354,-1.1683,-1.3968,-1.6782,-1.8241,-2.0393,-2.2658,0.0,0.0,0.0,-2.3797,-2.4072,-2.4491,-2.4204,-2.4554,-2.4925,-2.3745,-2.3568,-2.3866,-2.3824,-2.3982,-2.4079,-2.4163,-2.3771,-2.3354,-2.3459,-2.2751,-2.2102,-2.2244,-2.1751,-2.1255,-2.1227,-2.1198,-2.1104,-2.0724,-2.1399,-2.1991,-2.1839,-2.2265,-2.2516,-2.2228,-2.2138,-2.1882,-2.134,-2.1215,-2.1118,-2.1019,-2.032,-1.9716,-1.9328,-1.8553,-1.7671,-1.6735,-1.6103,-1.5656,-1.5377,-1.4919,-1.4718,-1.4779,-1.4445,-1.436,-1.441,-1.4535,-1.4559,-1.4468,-1.483,-1.4743,-1.4267,-1.413,0.0,-1.3346,-1.2981,-1.2613,-1.2274,-1.2168,-1.1941,-1.1725,-1.1633,-1.1595,-1.1442,0.0,0.0,0.0,0.0,0.0,0.0,0.0,-0.8747,-0.8897,-0.8828,-0.843,-0.8175,-0.8137,-0.7167,-0.6455,0.0,0.0,0.0,0.0,0.0,0.0,0.0,0.0,0.0,-1.1804,0.0,0.0,-1.4875,-1.3771,0.0,0.0,0.0,0.0,0.0,-0.959,-1.0363,-1.1828,-1.287,-1.4701,0.0,0.0,-2.005,-2.2085,0.0,0.0,0.0,0.0,-2.4309,-2.4834,-2.4429,-2.4563,-2.4641,-2.3467,-2.3323,-2.3662,-2.3713,-2.3832,-2.3923,-2.3974,-2.3411,-2.2777,-2.285,-2.215,-2.1384,-2.1164,-2.0865,-2.0574,-2.0454,-2.0335,-2.0304,-2.0395,-2.0579,-2.0828,-2.1129,-2.1249,-2.1352,-2.147,-2.1363,-2.1151,-2.0894,-2.0871,-2.0822,-2.0573,-2.0369,-2.0091,-1.9762,-1.8982,-1.7921,-1.6598,-1.621,-1.5992,-1.5931,-1.549,-1.5205,-1.5185,-1.4887,-1.4765,-1.4838,-1.4766,-1.4675,-1.462,-1.4809,-1.4666,-1.4267,-1.413,0.0,0.0,-1.292,-1.249,-1.2212,-1.204,-1.1848,-1.168,-1.1452,-1.1491,-1.1464,0.0,0.0,0.0,0.0,0.0,0.0,0.0,-1.0409,-1.0396,-1.0388,-0.9477,-0.8787,-0.8642,-0.7136,-0.6113,0.0,0.0,0.0,0.0,0.0,0.0,0.0,0.0,0.0,0.0,0.0,0.0,-1.3135,-1.3119,0.0,0.0,0.0,0.0,0.0,0.0,-1.0359,-1.1733,-1.3591,0.0,0.0,0.0,0.0,0.0,0.0,0.0,0.0,0.0,-2.4137,-2.4152,-2.4309,-2.4013,-2.3446,-2.3018,-2.369,-2.4512,-2.4138,-2.4008,-2.3787,-2.3275,-2.2734,-2.2166,-2.1345,-2.0669,-2.0259,-2.0233,-1.9561,-1.917,-2.0128,-1.9829,-1.958,-2.0062,-2.0005,-1.9995,-2.0264,-1.9976,-2.0021,-2.0872,-2.0549,-2.0407,-2.0917,-2.0772,-2.0573,-2.0422,-1.9982,-1.9428,-1.8933,-1.8178,-1.751,-1.6973,-1.6435,-1.6254,-1.6439,-1.6166,-1.6161,-1.6427,-1.6017,-1.5736,-1.5565,-1.5274,-1.51,-1.4904,-1.4647,-1.441,-1.4189,-1.3752,0.0,0.0,-1.2552,-1.2243,-1.2088,-1.1911,-1.1717,-1.1483,-1.1452,-1.1286,-1.108,0.0,0.0,0.0,0.0,0.0,0.0,-1.1364,-1.134,-1.1164,-1.0721,-1.0143,-0.9453,-0.8478,-0.7673,-0.7107,-0.6925,0.0,0.0,0.0,0.0,0.0,0.0,0.0,0.0,0.0,0.0,-1.2392,-1.1831,-1.1796,0.0,0.0,0.0,0.0,0.0,0.0,-1.1858,-1.343,-1.4193,0.0,0.0,0.0,0.0,0.0,0.0,0.0,0.0,0.0,0.0,-2.4897,-2.5141,-2.471,-2.4191,-2.4241,-2.4371,-2.4395,-2.3808,-2.3696,-2.3695,-2.3548,-2.2799,-2.2053,-2.1878,-2.0839,-1.9931,-2.0353,-1.9493,-1.8847,-1.9788,-1.9528,-1.9253,-1.9783,-1.969,-1.9524,-1.9526,-1.9247,-1.9204,-1.9666,-1.9473,-1.9512,-2.014,-2.0077,-2.001,-2.0144,-1.999,-1.9611,-1.8998,-1.8319,-1.7748,-1.733,-1.7131,-1.6928,-1.6809,-1.6616,-1.6461,-1.6296,-1.6009,-1.5856,-1.5818,-1.5332,-1.502,-1.498,-1.4547,-1.4249,-1.395,-1.3631,0.0,0.0,-1.2444,-1.212,-1.2026,-1.1589,-1.1376,-1.1313,-1.1309,-1.1339,-1.1339,0.0,0.0,0.0,0.0,0.0,-1.1722,-1.2005,-1.2001,-1.1708,-1.0929,-1.058,-0.989,-0.8584,-0.8191,-0.7946,-0.7781,-0.8973,0.0,0.0,0.0,0.0,0.0,0.0,0.0,0.0,0.0,-1.1452,-1.1033,-1.0882,-1.0487,0.0,0.0,-0.9784,-1.0362,0.0,0.0,0.0,0.0,0.0,0.0,0.0,0.0,0.0,0.0,0.0,0.0,0.0,0.0,0.0,0.0,0.0,-2.4729,-2.4851,-2.454,-2.4046,-2.3687,-2.3517,-2.3462,-2.3545,-2.2704,-2.1897,-2.2273,-2.1032,-1.9927,-2.0571,-1.9362,-1.8342,-1.9306,-1.8985,-1.8744,-1.9301,-1.9169,-1.9046,-1.9109,-1.8559,-1.8331,-1.8962,-1.8602,-1.8612,-1.9368,-1.9239,-1.9253,-1.9636,-1.9736,-1.9525,-1.8946,-1.8302,-1.781,-1.7346,-1.7234,-1.7067,-1.6899,-1.6673,-1.6446,-1.6066,-1.5856,-1.574,-1.5702,-1.5136,-1.4821,-1.4666,-1.4207,-1.389,-1.3649,-1.3268,0.0,0.0,-1.2243,-1.1934,-1.1917,-1.1395,-1.1234,-1.1236,-1.1256,-1.1344,-1.1348,0.0,0.0,0.0,0.0,0.0,0.0,-1.2555,-1.2473,-1.2095,-1.1205,-1.0709,-1.0032,-0.9087,-0.8563,-0.8326,-0.8382,-0.859,0.0,0.0,0.0,0.0,0.0,0.0,0.0,0.0,0.0,-1.1435,-1.0908,-1.0688,-1.0274,-0.9601,-0.973,-1.0087,-1.0642,0.0,0.0,0.0,0.0,0.0,0.0,0.0,0.0,0.0,0.0,0.0,0.0,0.0,0.0,0.0,0.0,0.0,0.0,0.0,-2.3933,-2.3644,-2.383,-2.3513,-2.3043,-2.2778,-2.222,-2.1771,-2.2054,-2.0955,-1.9954,-2.0641,-1.8864,-1.7427,-1.8514,-1.8123,-1.7818,-1.8505,-1.8455,-1.8483,-1.8985,-1.7813,-1.7382,-1.8946,-1.8084,-1.7702,-1.8767,-1.8273,-1.8141,-1.8933,-1.9152,-1.9028,-1.8602,-1.803,0.0,-1.7011,-1.656,-1.641,-1.6581,-1.6275,-1.6104,-1.612,-1.5623,-1.5332,-1.5174,-1.474,-1.4345,-1.401,-1.3511,-1.3329,-1.3268,-1.2613,0.0,0.0,-1.1856,-1.1637,-1.1556,-1.133,-1.1303,-1.1381,-1.1333,-1.1253,-1.1031,0.0,0.0,0.0,0.0,0.0,0.0,0.0,-1.1909,-1.1534,-1.0856,-1.0287,-0.9702,-0.889,-0.8416,-0.8156,-0.8184,-0.859,0.0,0.0,0.0,0.0,0.0,0.0,0.0,0.0,0.0,-1.1192,-1.1063,-1.1199,-1.1102,-1.0696,-1.1074,-1.1792,-1.2826,-1.4117,-1.573,0.0,0.0,0.0,0.0,0.0,0.0,-2.6387,0.0,0.0,0.0,0.0,0.0,0.0,0.0,0.0,0.0,0.0,0.0,0.0,-2.2998,-2.2579,-2.2346,-2.2199,-2.1567,-2.1084,-2.1348,-2.0501,-1.9739,-2.0148,-1.8731,-1.7562,-1.845,-1.767,-1.7008,-1.7524,-1.7436,-1.7498,-1.8177,-1.7804,-1.765,-1.835,-1.8236,-1.8164,-1.8431,-1.8635,-1.8902,-1.9253,-1.9061,-1.8839,-1.8625,-1.7975,-1.7368,-1.692,-1.6332,-1.6046,-1.6104,-1.5874,-1.5642,-1.5371,-1.5313,-1.5098,-1.4743,-1.4446,-1.4148,-1.383,-1.345,-1.318,-1.2907,0.0,0.0,0.0,-1.1512,-1.1247,-1.1199,-1.0789,-1.0613,-1.0588,-1.0399,-1.0453,-1.0478,0.0,0.0,0.0,0.0,0.0,0.0,0.0,-1.1244,-1.0946,-1.0267,-0.964,-0.9094,-0.862,-0.8039,-0.7753,-0.7956,-0.8298,0.0,0.0,0.0,0.0,0.0,0.0,0.0,0.0,-1.1166,-1.148,-1.193,-1.1792,-1.1856,-1.2033,-1.2647,-1.3435,-1.4472,-1.6009,-1.7733,0.0,0.0,0.0,0.0,0.0,0.0,-2.7512,0.0,0.0,0.0,0.0,0.0,0.0,0.0,0.0,0.0,0.0,0.0,0.0,0.0,-2.1801,-2.1426,-2.1522,-2.1114,-2.0629,-2.0581,-2.0021,-1.9478,-1.9334,-1.8201,-1.7349,-1.7692,-1.7004,-1.6437,-1.6746,-1.6637,-1.6711,-1.7394,-1.7139,-1.7087,-1.7734,-1.7746,-1.7723,-1.782,-1.841,-1.879,-1.871,-1.8606,-1.8395,-1.8077,-1.7413,-1.6852,-1.6364,-1.5802,-1.5464,-1.5468,-1.5352,-1.5079,-1.4666,-1.4725,-1.4547,-1.4112,-1.389,-1.3588,-1.3285,-1.2964,-1.2674,-1.2414,0.0,0.0,0.0,-1.1136,-1.0947,-1.0898,-1.0496,-1.0328,-1.0324,-1.0244,-1.0208,-1.0149,0.0,0.0,0.0,0.0,0.0,0.0,0.0,-1.0582,-1.027,-0.9521,-0.8816,-0.8357,-0.8315,-0.7525,-0.7196,-0.7715,0.0,0.0,0.0,0.0,0.0,0.0,0.0,0.0,-1.1415,-1.1605,-1.2228,-1.3276,-1.2563,-1.2651,-1.3537,-1.4369,-1.5021,-1.5669,-1.7878,-1.9712,0.0,0.0,0.0,0.0,0.0,0.0,0.0,0.0,0.0,0.0,0.0,0.0,0.0,0.0,0.0,0.0,0.0,0.0,0.0,0.0,0.0,0.0,0.0,-2.0662,-2.0299,-1.9672,-1.9421,-1.908,-1.8238,-1.7453,0.0,-1.6437,-1.6195,-1.6006,-1.6035,-1.5941,-1.6075,-1.6648,-1.6007,-1.5865,-1.7127,-1.6829,-1.6692,-1.7046,-1.7763,-1.8049,-1.7711,-1.7843,-1.7768,-1.7247,-1.6564,-1.6011,-1.5587,-1.5114,-1.4752,-1.465,-1.461,-1.4451,-1.413,-1.401,-1.3769,-1.345,-1.3103,-1.2797,-1.249,-1.2182,-1.1934,0.0,0.0,0.0,0.0,-1.0744,-1.0568,-1.0558,-1.043,-1.0362,-1.0275,-1.0468,-1.029,-0.9841,0.0,0.0,0.0,0.0,0.0,0.0,0.0,0.0,0.0,0.0,-0.8352,-0.7826,-0.7363,-0.708,-0.6987,0.0,0.0,0.0,0.0,0.0,0.0,0.0,0.0,0.0,-1.0722,-1.1903,-1.2745,-1.3226,-1.3668,-1.4135,-1.4631,-1.555,-1.6476,-1.7473,-1.9494,-2.1758,0.0,0.0,0.0,0.0,0.0,0.0,0.0,0.0,0.0,0.0,-2.7961,-2.7672,0.0,0.0,0.0,0.0,0.0,0.0,0.0,0.0,-2.0606,-1.9713,-1.9649,0.0,-1.8804,-1.7992,-1.7705,-1.7548,0.0,-1.6757,-1.6235,-1.6253,-1.569,-1.5237,-1.5357,-1.5119,-1.5119,-1.5981,-1.588,-1.5849,-1.6353,-1.6614,-1.7044,-1.7944,-1.81,-1.8116,-1.8193,-1.7897,-1.7612,-1.7381,-1.6439,-1.5734,-1.5342,-1.4546,-1.4088,-1.3992,-1.3607,-1.3473,-1.3692,-1.3511,-1.3268,-1.2981,-1.2613,-1.2367,-1.2182,-1.1872,-1.1622,0.0,0.0,0.0,-1.0744,-1.0301,-1.006,-0.9957,-0.9838,-0.967,-0.9525,-0.9346,-0.9353,-0.9311,0.0,0.0,0.0,0.0,0.0,0.0,0.0,0.0,0.0,0.0,0.0,-0.7048,-0.6512,-0.6418,0.0,0.0,0.0,0.0,0.0,0.0,0.0,0.0,0.0,-1.0447,-1.0772,-1.2002,-1.2897,-1.3471,-1.4222,-1.5006,-1.5828,-1.6847,-1.779,-1.8746,-2.1343,-2.3894,0.0,0.0,0.0,0.0,-2.8905,0.0,0.0,0.0,0.0,0.0,-2.8045,-2.7672,0.0,-2.699,-2.6691,-2.6114,0.0,0.0,0.0,0.0,-2.0289,-1.9276,-1.8707,-1.8263,-1.7763,-1.6888,-1.6732,-1.6673,-1.6055,-1.5797,-1.5684,-1.5435,-1.4938,-1.4607,-1.4707,-1.4424,-1.4352,-1.5081,-1.5258,-1.5521,-1.6332,-1.6683,-1.7162,-1.7993,-1.777,-1.7634,-1.7817,-1.7203,-1.6642,-1.6541,-1.5719,-1.5098,-1.4809,-1.4268,-1.3841,-1.3589,-1.3223,-1.3083,-1.3147,-1.2964,-1.2658,-1.2243,-1.1934,-1.1685,-1.1498,-1.1247,-1.1059,0.0,0.0,0.0,-1.0174,-0.9919,-0.9737,-0.9676,-0.9475,-0.9354,-0.9249,-0.899,-0.8857,-0.8856,0.0,0.0,0.0,0.0,0.0,0.0,0.0,0.0,0.0,0.0,0.0,0.0,0.0,0.0,0.0,0.0,0.0,0.0,0.0,0.0,0.0,0.0,-0.9836,-1.0475,-1.1087,-1.2043,-1.2949,-1.3766,-1.4599,-1.5591,-1.6879,-1.8007,-1.9092,-2.0192,-2.3088,-2.5548,0.0,0.0,0.0,0.0,-2.9044,0.0,0.0,0.0,0.0,0.0,0.0,0.0,0.0,-2.6753,-2.6286,-2.557,-2.4116,0.0,0.0,0.0,0.0,0.0,-1.7921,-1.7405,-1.6858,-1.5946,-1.5989,-1.5887,-1.4628,-1.4767,-1.4964,-1.4382,-1.4203,-1.4132,-1.4146,-1.3913,-1.3857,-1.4279,-1.4461,-1.5055,-1.6469,-1.6757,-1.702,-1.7523,-1.7144,-1.6961,-1.7089,-1.6237,-1.5578,-1.5434,-1.4846,-1.4381,-1.413,-1.3886,-1.3541,-1.315,-1.2939,-1.2728,-1.2594,-1.2274,-1.1934,-1.1498,-1.1122,-1.0898,-1.0749,-1.0558,-1.0456,-1.0303,0.0,0.0,-0.9799,-0.9515,-0.9449,-0.9468,-0.9151,-0.9066,-0.9071,-0.8871,-0.8552,-0.8322,0.0,0.0,0.0,0.0,0.0,0.0,0.0,0.0,0.0,0.0,0.0,0.0,0.0,0.0,0.0,0.0,0.0,0.0,0.0,0.0,0.0,-0.943,-0.9814,-1.0333,-1.1001,-1.2433,-1.3331,-1.3709,-1.5416,-1.6487,-1.7,-1.8531,-2.0572,-2.2995,-2.3914,-2.5459,-2.7396,0.0,0.0,0.0,-2.9067,0.0,0.0,0.0,0.0,0.0,0.0,0.0,0.0,-2.5573,-2.4913,-2.3814,-2.2733,0.0,0.0,0.0,0.0,0.0,-1.7242,-1.6411,-1.5387,-1.4796,-1.4506,-1.4268,-1.3839,-1.3812,-1.3853,-1.3741,-1.3715,-1.3736,-1.3907,-1.3813,-1.3803,-1.4021,-1.4264,-1.4831,-1.5947,-1.6034,-1.6252,-1.7014,-1.6689,-1.646,-1.6567,-1.5842,-1.5266,-1.4996,-1.4419,-1.3852,-1.3222,-1.2811,-1.2517,-1.2396,-1.2069,-1.1821,-1.1675,-1.1537,-1.1373,-1.1185,-1.0681,-1.0431,-1.0456,-1.0258,-1.0196,-1.02,0.0,-0.9731,-0.9662,-0.9306,-0.912,-0.8964,-0.8734,-0.8626,-0.8494,-0.8298,-0.8067,-0.7863,0.0,0.0,0.0,0.0,0.0,0.0,0.0,0.0,0.0,0.0,0.0,0.0,0.0,0.0,0.0,0.0,0.0,0.0,0.0,0.0,-0.8014,-0.8986,-0.8948,-0.9602,-1.106,-1.2266,-1.3298,-1.4181,-1.5672,-1.6929,-1.7997,-1.9364,-2.1015,-2.2931,-2.3386,-2.4723,-2.6653,-2.7155,-2.7817,0.0,0.0,0.0,0.0,0.0,0.0,0.0,0.0,0.0,0.0,0.0,-2.4183,-2.3252,-2.2337,0.0,0.0,0.0,0.0,0.0,-1.6733,-1.5908,-1.4864,-1.4085,-1.3982,-1.3951,-1.3626,-1.3468,-1.3409,-1.3289,-1.3386,-1.3468,-1.3406,-1.3391,-1.3466,-1.3746,-1.4114,-1.4628,-1.529,-1.5322,-1.5531,-1.6063,-1.5668,-1.5391,-1.5647,-1.492,-1.4462,-1.4435,-1.4031,-1.3573,-1.3025,-1.27,-1.2328,-1.185,-1.16,-1.1298,-1.0857,-1.0532,-1.0456,-1.0681,-1.0047,-0.9725,-0.9652,-0.9464,-0.9389,-0.9434,0.0,-0.9276,-0.9076,-0.8925,-0.8715,-0.863,-0.8363,-0.8171,-0.8045,-0.76,-0.7403,-0.7249,0.0,0.0,0.0,0.0,0.0,0.0,0.0,0.0,0.0,0.0,0.0,0.0,0.0,0.0,0.0,0.0,0.0,0.0,0.0,0.0,-0.7341,-0.8243,-0.8193,-0.9062,-1.1088,-1.1947,-1.3071,-1.4593,-1.5872,-1.7382,-1.9011,-1.994,-2.1007,-2.2246,-2.2667,-2.3969,-2.5891,-2.6312,-2.7091,0.0,0.0,0.0,0.0,0.0,0.0,0.0,0.0,0.0,0.0,0.0,0.0,0.0,0.0,0.0,0.0,-1.8864,-1.7422,-1.5975,-1.592,-1.5273,-1.4437,-1.3598,-1.3678,-1.3801,-1.3363,-1.315,-1.2955,-1.2901,-1.304,-1.3129,-1.2946,-1.3044,-1.328,-1.3561,-1.3995,-1.4406,-1.4735,-1.48,-1.4871,-1.5236,-1.4746,-1.4453,-1.4701,-1.4083,-1.3716,-1.381,-1.3621,-1.3266,-1.288,-1.2695,-1.2175,-1.1436,-1.122,-1.079,-1.0179,-0.9727,-0.9705,-1.0047,-0.9472,-0.911,-0.8918,-0.8775,-0.8711,-0.8758,-0.8855,-0.8745,-0.8519,-0.8447,-0.8325,-0.8254,-0.7957,-0.7744,-0.7548,-0.6942,-0.6788,-0.671,0.0,0.0,0.0,0.0,0.0,0.0,0.0,0.0,0.0,0.0,0.0,0.0,0.0,0.0,0.0,0.0,0.0,0.0,0.0,0.0,-0.6809,-0.7376,-0.8068,-0.9247,-1.0993,-1.1572,-1.2722,-1.4497,-1.6273,-1.7998,-1.9666,-1.9773,-2.0632,-2.2011,-2.2313,-2.3555,-2.5479,-2.601,-2.64,-2.669,-2.7128,0.0,0.0,0.0,0.0,0.0,0.0,0.0,0.0,0.0,0.0,0.0,0.0,0.0,-1.7617,-1.6836,-1.5624,-1.4514,-1.439,-1.4069,-1.3666,-1.3144,-1.3245,-1.3319,-1.2768,-1.2383,-1.2189,-1.2539,-1.2546,-1.2489,-1.2594,-1.3044,-1.3493,-1.3731,-1.3905,-1.4143,-1.451,-1.4403,-1.4469,-1.4768,-1.4317,-1.3983,-1.4154,-1.3723,-1.3362,-1.3266,-1.3122,-1.288,-1.2578,-1.2054,-1.1604,-1.1116,-1.0783,-1.0343,-0.9833,-0.9475,-0.9321,-0.9332,-0.9022,-0.8756,-0.8638,-0.8435,-0.8463,-0.8719,-0.8354,-0.8254,-0.8362,-0.8049,-0.7829,-0.7838,-0.7387,-0.7165,-0.6942,-0.6486,-0.6338,-0.6261,0.0,0.0,0.0,0.0,0.0,0.0,0.0,0.0,0.0,0.0,0.0,0.0,0.0,0.0,0.0,0.0,0.0,0.0,0.0,-0.5298,-0.5845,-0.6355,-0.6977,-0.7968,-0.9297,-1.1023,-1.2901,-1.4873,-1.6886,-1.8247,-1.8959,-1.9406,-2.0025,-2.0763,-2.1242,-2.2248,-2.3621,-2.4,-2.4697,-2.549,-2.5743,0.0,0.0,0.0,0.0,0.0,0.0,0.0,0.0,0.0,-2.0638,-1.978,-1.8902,-1.7783,-1.674,-1.6632,-1.5388,-1.4138,-1.4327,-1.408,-1.3634,-1.3031,-1.317,-1.3289,-1.2686,-1.2579,-1.2494,-1.2214,-1.2378,-1.2689,-1.2945,-1.3273,-1.3554,-1.3647,-1.3763,-1.3873,-1.3945,-1.3987,-1.4,-1.392,-1.3679,-1.3431,-1.3451,-1.3193,-1.2946,-1.2555,-1.2599,-1.2396,-1.1766,-1.1545,-1.1167,-1.0557,-1.0061,-0.9672,-0.9382,-0.8836,-0.8611,-0.8624,-0.8376,-0.8234,-0.8062,-0.799,-0.8051,-0.815,-0.8105,-0.8031,-0.7863,-0.771,-0.748,-0.7173,-0.6795,-0.6486,-0.6247,-0.5944,-0.5924,-0.5915,0.0,0.0,0.0,0.0,0.0,0.0,0.0,0.0,0.0,0.0,0.0,0.0,0.0,0.0,0.0,0.0,0.0,0.0,-0.3737,-0.4256,-0.4769,-0.5288,-0.5937,-0.6827,-0.8067,-1.0266,-1.2381,-1.4382,-1.6728,-1.8028,-1.8305,-1.8921,-1.9406,-1.9797,-2.0395,-2.1242,-2.228,-2.2604,-2.331,-2.4173,-2.435,-2.4039,0.0,0.0,0.0,0.0,0.0,0.0,0.0,0.0,-1.9496,-1.8903,-1.8037,-1.7024,-1.6108,-1.5766,-1.4734,-1.3738,-1.3735,-1.3523,-1.3174,-1.2641,-1.2893,-1.3077,-1.2451,-1.2559,-1.2618,-1.2175,-1.2349,-1.2695,-1.3102,-1.3355,-1.3549,-1.3647,-1.3716,-1.3763,-1.3668,-1.3621,-1.3525,-1.3362,-1.305,-1.2887,-1.29,-1.2754,-1.2502,-1.2186,-1.2261,-1.2006,-1.1393,-1.113,-1.071,-1.0095,-0.951,-0.9126,-0.8857,-0.8269,-0.7971,-0.7977,-0.7792,-0.7596,-0.754,-0.755,-0.7531,-0.7602,-0.7716,-0.7584,-0.7411,-0.718,-0.6865,-0.6479,-0.6099,-0.5867,-0.5712,-0.5448,-0.5439,-0.5433,0.0,0.0,0.0,0.0,0.0,0.0,0.0,0.0,0.0,0.0,0.0,0.0,0.0,0.0,0.0,0.0,0.0,0.0,-0.2898,-0.3208,-0.3642,-0.4256,-0.5125,-0.6229,-0.7575,-0.9228,-1.1004,-1.2885,-1.5645,-1.7271,-1.7773,-1.8238,-1.8779,-1.931,-1.9844,-2.0698,-2.1708,-2.2215,-2.2475,-2.2603,-2.3006,-2.2361,-2.1199,0.0,0.0,0.0,0.0,0.0,0.0,0.0,-1.8498,-1.8038,-1.6782,-1.6198,-1.5652,-1.3918,-1.3412,-1.3175,-1.2251,-1.208,-1.2155,-1.1962,-1.2297,-1.2574,-1.2022,-1.2187,-1.2457,-1.2425,-1.2374,-1.2483,-1.309,-1.3248,-1.3422,-1.3747,-1.381,-1.381,-1.381,-1.3457,-1.3218,-1.3218,-1.2622,-1.2355,-1.2686,-1.2291,-1.2073,-1.2276,-1.2017,-1.1769,-1.1519,-1.0812,-1.0182,-0.9821,-0.9145,-0.8677,-0.8375,-0.7736,-0.7419,-0.7521,-0.7073,-0.7007,-0.7204,-0.7009,-0.699,-0.7166,-0.6984,-0.7017,-0.718,-0.657,-0.6028,-0.5556,-0.5401,-0.5323,-0.5263,-0.4908,-0.4794,-0.4728,0.0,0.0,0.0,0.0,0.0,0.0,0.0,0.0,0.0,0.0,0.0,0.0,0.0,0.0,0.0,0.0,0.0,0.0,-0.1832,-0.2322,-0.2854,-0.329,-0.4335,-0.5389,-0.644,-0.8625,-1.0867,-1.3173,-1.4693,-1.5645,-1.6059,-1.6863,-1.738,-1.7731,-1.8382,-1.8826,-1.9052,-1.9373,-1.9941,-2.0667,-2.0302,-2.0344,-2.0577,0.0,0.0,0.0,0.0,0.0,0.0,0.0,0.0,0.0,-1.5861,-1.5068,-1.4197,-1.3747,-1.3085,-1.2431,-1.2274,-1.2142,-1.2031,-1.193,-1.2569,-1.2991,-1.211,-1.2345,-1.2637,-1.2388,-1.2412,-1.257,-1.2949,-1.3117,-1.3314,-1.3505,-1.3525,-1.3573,-1.3668,-1.3573,-1.3409,-1.3218,-1.2836,-1.2497,-1.2214,-1.1849,-1.1388,-1.0909,-1.11,-1.0915,-1.0262,-1.0134,-0.9888,-0.942,-0.8844,-0.8416,-0.8269,-0.7607,-0.7348,-0.7521,-0.7007,-0.6811,-0.7016,-0.6798,-0.6843,-0.6952,-0.6772,-0.6648,-0.6493,-0.5867,-0.5395,-0.5174,-0.5026,-0.4898,-0.4748,-0.4531,-0.4532,-0.4516,0.0,0.0,0.0,0.0,0.0,0.0,0.0,0.0,0.0,0.0,-0.2258,0.0,0.0,0.0,0.0,0.0,0.0,0.0,0.0,-0.1567,-0.207,-0.2652,-0.3681,-0.4934,-0.637,-0.824,-0.9877,-1.1401,-1.3065,-1.414,-1.4773,-1.5618,-1.6243,-1.6811,-1.7435,-1.7733,-1.7743,-1.7978,-1.8461,-1.9092,-1.8716,-1.8801,-1.9132,0.0,0.0,0.0,0.0,0.0,0.0,0.0,0.0,0.0,-1.46,-1.3933,-1.3178,-1.3072,-1.2576,-1.208,-1.2186,-1.2014,-1.186,-1.2196,-1.2616,-1.2841,-1.2357,-1.2391,-1.2547,-1.2563,-1.2461,-1.2464,-1.2929,-1.3097,-1.3252,-1.3579,-1.3621,-1.3668,-1.3763,-1.3502,-1.3238,-1.305,-1.2503,-1.2067,-1.1817,-1.1407,-1.0946,-1.0508,-1.0542,-1.0284,-0.959,-0.9539,-0.9336,-0.8875,-0.8357,-0.8038,-0.7888,-0.7339,-0.7064,-0.7085,-0.6702,-0.6474,-0.6416,-0.6527,-0.6573,-0.661,-0.6396,-0.609,-0.5789,-0.5318,-0.5007,-0.4784,-0.4583,-0.4465,-0.4322,-0.4206,-0.412,-0.4173,0.0,0.0,0.0,0.0,0.0,0.0,0.0,0.0,0.0,0.0,-0.174,-0.1609,0.0,0.0,0.0,0.0,0.0,0.0,0.0,0.0,-0.1412,-0.218,-0.3286,-0.4828,-0.6869,-0.7875,-0.8393,-0.8401,-1.0951,-1.2701,-1.3673,-1.4317,-1.5169,-1.6101,-1.6664,-1.7008,-1.7116,-1.7405,-1.7578,-1.7633,-1.7758,-1.7548,-1.7113,-1.7197,0.0,0.0,0.0,0.0,0.0,0.0,0.0,0.0,-1.3141,-1.2816,-1.2392,-1.2046,-1.194,-1.1942,-1.2006,-1.1784,-1.1734,-1.2525,-1.2498,-1.2378,-1.2643,-1.2467,-1.2359,-1.2772,-1.2472,-1.2383,-1.3042,-1.3129,-1.3328,-1.3841,-1.3973,-1.3952,-1.3956,-1.3345,-1.2872,-1.274,-1.1834,-1.1283,-1.1441,-1.0945,-1.0639,-1.0578,-1.0249,-0.9814,-0.9342,-0.9008,-0.8672,-0.8263,-0.7878,-0.7552,-0.7394,-0.6983,-0.6651,-0.6346,-0.6262,-0.5947,-0.5624,-0.6113,-0.6209,-0.6043,-0.5891,-0.5473,-0.5002,-0.4929,-0.4691,-0.4316,-0.4188,-0.4151,-0.41,-0.3852,-0.374,-0.3758,0.0,0.0,0.0,0.0,0.0,0.0,0.0,0.0,0.0,0.0,0.0,0.0,0.0,0.0,0.0,0.0,0.0,0.0,0.0,0.0,-0.1048,-0.1562,-0.3556,-0.5217,-0.643,-0.6935,-0.735,-0.7781,-0.9581,-1.087,-1.1728,-1.2488,-1.3083,-1.3549,-1.4292,-1.4487,-1.4288,-1.456,-1.5036,-1.5616,-1.5525,-1.5651,-1.5743,-1.5267,-1.5067,0.0,0.0,0.0,0.0,0.0,0.0,0.0,-1.2319,-1.1942,-1.1435,-1.1523,-1.1522,-1.149,-1.1425,-1.1629,-1.1836,-1.2049,-1.2254,-1.2318,-1.2218,-1.2219,-1.227,-1.252,-1.2559,-1.2657,-1.3045,-1.3158,-1.3307,-1.3647,-1.3621,-1.3496,-1.3464,-1.3135,-1.2748,-1.231,-1.1736,-1.1225,-1.0971,-1.0481,-0.9972,-0.964,-0.9478,-0.9212,-0.8728,-0.8543,-0.8304,-0.7999,-0.7605,-0.7276,-0.71,-0.6924,-0.6589,0.0,-0.6002,-0.5756,-0.5425,-0.5593,-0.5549,-0.5387,-0.5278,-0.5007,-0.4696,-0.4229,-0.3995,-0.3929,-0.3782,-0.3777,-0.3768,-0.3614,-0.3423,-0.3298,0.0,0.0,0.0,0.0,0.0,0.0,0.0,0.0,0.0,0.0,0.0,0.0,0.0,0.0,0.0,0.0,0.0,0.0,0.0,0.0,-0.0964,-0.2138,-0.3706,-0.4832,-0.5319,-0.5784,-0.6035,-0.6216,-0.727,-0.8564,-1.0094,-1.0704,-1.1295,-1.1966,-1.248,-1.2754,-1.2794,-1.2888,-1.3198,-1.3703,-1.355,-1.3783,-1.413,-1.36,-1.3507,-1.3587,-1.2811,0.0,0.0,0.0,0.0,0.0,0.0,0.0,-1.0196,-1.0677,-1.0742,-1.0716,-1.1123,-1.1257,-1.137,-1.1758,-1.213,-1.235,-1.2131,-1.2219,-1.225,-1.2164,-1.2445,-1.2822,-1.3162,-1.3152,-1.3196,-1.3495,-1.3331,-1.3099,-1.2999,-1.2722,-1.232,-1.1818,-1.1308,-1.0885,-1.0585,-1.0094,-0.9686,-0.9328,-0.9014,-0.8669,-0.8245,-0.8044,-0.7829,-0.7536,-0.7182,-0.6902,-0.6713,-0.6573,-0.6233,-0.5709,-0.5575,-0.5192,-0.4654,-0.4924,-0.4915,-0.4741,-0.4624,-0.4384,-0.4073,-0.3761,-0.3526,-0.3463,-0.3502,-0.3492,-0.3542,-0.3399,-0.3285,-0.3138,0.0,0.0,0.0,0.0,0.0,0.0,0.0,0.0,0.0,0.0,0.0,0.0,0.0,0.0,0.0,0.0,0.0,0.0,0.0,0.0,0.0,-0.2782,-0.3559,-0.4002,-0.4075,-0.4516,-0.465,-0.4427,-0.4898,-0.6167,-0.8178,-0.882,-0.9588,-1.0516,-1.0759,-1.1083,-1.1447,-1.1351,-1.1446,-1.1743,-1.1751,-1.1959,-1.2234,-1.1988,-1.1994,-1.2046,-1.1454,-1.0812,-1.0171,-0.979,0.0,0.0,0.0,0.0,-0.8972,-0.9694,-0.9809,-0.9922,-1.082,-1.0853,-1.0842,-1.1576,-1.2072,-1.2301,-1.2149,-1.2218,-1.2259,-1.1865,-1.2263,-1.2782,-1.3111,-1.3016,-1.2947,-1.3323,-1.3087,-1.2784,-1.253,-1.2229,-1.1831,-1.1327,-1.0843,-1.0428,-1.0235,-0.973,-0.9322,-0.9143,-0.8625,-0.814,-0.7706,-0.7544,-0.7322,-0.699,-0.6718,-0.6494,-0.6327,-0.6133,-0.5727,-0.5161,-0.4951,-0.4501,-0.3736,-0.4104,-0.4201,-0.4082,-0.4033,-0.3765,-0.337,-0.3306,-0.3156,-0.3094,-0.3227,-0.3367,-0.331,-0.3254,-0.3129,-0.3138,0.0,0.0,0.0,0.0,0.0,0.0,0.0,0.0,0.0,0.0,0.1683,0.2228,0.0,0.0,0.0,0.0,0.0,0.0,0.0,0.0,0.0,-0.2163,-0.2793,-0.308,-0.3076,-0.3268,-0.3371,-0.3302,-0.3517,-0.4014,-0.4886,-0.667,-0.7708,-0.8078,-0.8508,-0.8756,-0.8893,-0.8867,-0.9085,-0.9493,-1.005,-1.0113,-0.9866,-1.0069,-1.0217,-1.0204,-0.9276,-0.8834,-0.864,-0.8312,-0.7819,0.0,0.0,0.0,-0.8226,-0.8606,-0.9066,-0.9511,-0.991,-1.0494,-1.1081,-1.1383,-1.1831,-1.2132,-1.1694,-1.1858,-1.208,-1.1856,-1.2173,-1.2463,-1.2284,-1.2465,-1.2701,-1.2871,-1.2744,-1.2551,-1.2225,-1.1895,-1.1466,-1.0858,-1.0409,-1.0079,-0.9902,-0.9142,-0.8549,-0.8358,-0.7858,-0.7366,-0.6892,-0.6838,-0.676,-0.6605,-0.6309,-0.6076,-0.5882,-0.5709,-0.5314,-0.4674,-0.4175,-0.3792,-0.3479,-0.3197,-0.332,-0.3705,-0.3565,-0.337,-0.3146,-0.2807,-0.2831,-0.2921,-0.2997,-0.3062,-0.3114,-0.3132,-0.3002,-0.2964,0.0,0.0,0.0,0.0,0.0,0.0,0.0,0.0,0.0,0.0,0.0,0.2713,0.0,0.0,0.0,0.0,0.0,0.0,0.0,0.0,0.0,-0.1653,-0.1977,-0.209,-0.1965,-0.1974,-0.1937,-0.1853,-0.1937,-0.2209,-0.2634,-0.3704,-0.4847,-0.6108,-0.6115,-0.6422,-0.6868,-0.678,-0.7011,-0.7529,-0.7874,-0.7839,-0.752,-0.7854,-0.7892,-0.7756,-0.7372,-0.7221,-0.7147,-0.6628,-0.6287,-0.6098,-0.6097,0.0,0.0,0.0,-0.7842,-0.8458,-0.9409,-1.0116,-1.0724,-1.0929,-1.1214,-1.1473,-1.142,-1.1619,-1.1804,-1.1398,-1.1766,-1.2152,-1.221,-1.2257,-1.2313,-1.2457,-1.2079,-1.1627,-1.1297,-1.0856,-1.0422,-0.9965,-0.9587,-0.9355,-0.9298,-0.8506,-0.8044,-0.8206,-0.7514,-0.6985,-0.6622,-0.6403,-0.6191,-0.5926,-0.5594,-0.5387,-0.5273,-0.4955,-0.4505,-0.3914,-0.3624,-0.3251,-0.2772,-0.2769,-0.2827,-0.3011,-0.2888,-0.2744,-0.2594,-0.2575,-0.2602,-0.2529,-0.279,-0.2844,-0.2698,-0.2905,-0.2959,-0.2921,0.0,0.0,0.0,0.0,0.0,0.0,0.0,0.0,0.0,0.0,0.0,0.0,0.0,0.0,0.0,0.0,0.0,0.0,0.0,0.0,0.0,-0.0972,-0.1106,-0.1046,-0.0796,-0.0653,-0.0441,-0.0221,-0.0278,-0.0413,-0.0648,-0.0889,-0.186,-0.3313,-0.3693,-0.4088,-0.4629,-0.4529,-0.4805,-0.53,-0.537,-0.5269,-0.5096,-0.5273,-0.5239,-0.5116,-0.5329,-0.5363,-0.5281,-0.4929,-0.4724,-0.4592,-0.4637,-0.4821,0.0,0.0,0.0,-0.7446,-0.8694,-0.9475,-1.0048,-1.0432,-1.0664,-1.0881,-1.1031,-1.1329,-1.1411,-1.0919,-1.1233,-1.1666,-1.1902,-1.181,-1.1724,-1.1762,-1.127,-1.0753,-1.0422,-1.002,-0.9642,-0.9308,-0.897,-0.8739,-0.8693,-0.7891,-0.7456,-0.7747,-0.7072,-0.6494,-0.6173,-0.597,-0.5692,-0.5243,-0.4963,-0.4751,-0.462,-0.4053,-0.359,-0.3189,-0.2975,-0.263,-0.2189,-0.226,-0.2246,-0.2196,-0.2275,-0.2275,-0.2123,-0.2268,-0.2296,-0.2141,-0.2499,-0.2551,-0.2392,-0.27,-0.284,-0.2888,0.0,0.0,0.0,0.0,0.0,0.0,0.0,0.0,0.0,0.0,0.0,0.0,0.4401,0.4328,0.4351,0.4599,0.0,0.0,0.0,0.0,0.0,-0.0056,0.0056,0.0,0.032,0.0744,0.1225,0.165,0.1321,0.131,0.1534,0.1271,0.1115,0.0891,-0.1233,-0.2,-0.1648,-0.1968,-0.2238,-0.2498,-0.253,-0.25,-0.2483,-0.2318,-0.2294,-0.2452,-0.2983,-0.2944,-0.2784,-0.3326,-0.3128,-0.2692,-0.3014,-0.3519,-0.4041,0.0,0.0,0.0,-0.7562,-0.8317,-0.9059,-0.9843,-1.0386,-1.0657,-1.0383,-1.0785,-1.1,-1.0539,-1.0708,-1.0943,-1.0956,-1.0871,-1.0729,-1.068,-1.0441,-1.0146,-0.9883,-0.9763,-0.9576,-0.9241,-0.8867,-0.8489,-0.8176,-0.7228,-0.6651,-0.6673,-0.6172,-0.5652,-0.5212,-0.5416,-0.5241,-0.4578,-0.4542,-0.4292,-0.3878,-0.3105,-0.2707,-0.2722,-0.2229,-0.2008,-0.1971,-0.1604,-0.1424,-0.1414,-0.1804,-0.1961,-0.1893,-0.1814,-0.1846,-0.2024,-0.2202,-0.2268,-0.2216,-0.2495,-0.2621,-0.2661,0.0,0.0,0.0,0.0,0.0,0.0,0.0,0.0,0.0,0.0,0.0,0.0,0.0,0.4919,0.5039,0.5354,0.4321,0.0,0.0,0.0,0.0,0.1271,0.1356,0.151,0.1758,0.224,0.2631,0.2907,0.2994,0.3091,0.3201,0.2887,0.2902,0.3002,0.0985,0.0249,0.0483,0.0,-0.0202,-0.0151,-0.0503,-0.0396,0.0,-0.0295,-0.024,-0.0092,-0.083,-0.1137,-0.1254,-0.146,-0.1562,-0.1615,-0.1753,-0.2111,-0.2693,-0.3652,-0.4627,-0.5603,-0.6706,-0.7361,-0.7974,-0.8824,-0.936,-0.9731,-0.9894,-1.0172,-1.0388,-1.0276,-1.0236,-1.0253,-1.0203,-1.0401,-1.058,-1.0594,-1.0135,-0.9673,-0.9434,-0.9084,-0.8713,-0.8368,-0.7947,-0.7598,-0.7366,-0.6559,-0.6094,-0.6106,-0.5503,-0.5017,-0.4734,-0.4557,-0.4284,-0.3802,-0.3617,-0.3311,-0.2798,-0.2491,-0.2219,-0.2034,-0.1834,-0.1593,-0.1386,-0.1167,-0.0975,-0.0865,-0.1198,-0.1446,-0.1692,-0.1827,-0.1865,-0.1812,-0.2071,-0.2208,-0.2224,-0.2534,-0.2769,-0.2912,0.0,0.0,0.0,0.0,0.0,0.0,0.0,0.0,0.0,0.3726,0.0,0.0,0.0,0.0,0.5874,0.5975,0.494,0.4086,0.3519,0.283,0.2446,0.2506,0.2677,0.2879,0.301,0.3716,0.4151,0.4284,0.4553,0.4803,0.5041,0.4614,0.4652,0.5061,0.3618,0.2868,0.2513,0.2096,0.205,0.2213,0.1992,0.2022,0.2313,0.2111,0.2111,0.2112,0.1439,0.098,0.0584,0.036,0.0032,-0.031,-0.0526,-0.1032,-0.174,-0.2788,-0.3677,-0.4559,-0.5664,-0.6476,-0.7221,-0.8047,-0.848,-0.8749,-0.8955,-0.9131,-0.9232,-0.9323,-0.9349,-0.9413,-0.9508,-0.9579,-0.9739,-0.9987,-0.944,-0.8897,-0.8645,-0.8212,-0.7754,-0.7348,-0.7046,-0.6733,-0.6434,-0.5855,-0.5478,-0.542,-0.486,0.0,-0.4218,-0.3875,-0.343,-0.2997,-0.2681,-0.2291,-0.1902,-0.1793,-0.1603,-0.148,-0.1322,-0.1048,-0.0802,-0.0809,-0.068,-0.0393,-0.0725,-0.0977,-0.1306,-0.168,-0.163,-0.1485,-0.1821,-0.1952,-0.1968,-0.2387,-0.2631,-0.2875,0.0,0.0,0.0,0.0,0.0,0.0,0.0,0.0,0.3949,0.4791,0.0,0.0,0.0,0.0,0.0,0.631,0.5691,0.5147,0.4668,0.387,0.3503,0.363,0.0,0.0,0.4164,0.5154,0.5727,0.5891,0.6081,0.6556,0.722,0.6494,0.6497,0.7113,0.666,0.5786,0.4647,0.4504,0.4521,0.4594,0.4951,0.4779,0.4462,0.5013,0.4814,0.4141,0.3807,0.3375,0.2841,0.2109,0.1699,0.134,0.065,-0.0302,-0.1247,-0.1727,-0.2654,-0.3697,0.0,0.0,0.0,-0.752,-0.7792,-0.7798,-0.7709,-0.7693,-0.765,-0.7632,-0.7965,-0.8415,-0.8863,-0.8324,-0.8068,-0.8725,-0.8276,-0.7783,-0.7525,-0.7129,-0.6742,-0.6353,-0.6215,-0.5954,-0.541,-0.5077,-0.482,-0.4669,-0.4166,-0.3795,-0.3575,-0.331,-0.2804,-0.2105,-0.1663,-0.141,-0.1287,-0.0897,-0.0803,-0.0991,-0.0674,-0.0355,-0.0219,-0.0449,-0.0384,0.0,-0.0403,-0.057,-0.0654,-0.1195,-0.1218,-0.1051,-0.1368,-0.1501,-0.1627,-0.2144,-0.2384,-0.2532,0.0,0.0,0.0,0.0,0.0,0.0,0.3636,0.4262,0.4873,0.0,0.0,0.0,0.7193,0.7493,0.735,0.6511,0.6253,0.5956,0.5578,0.5123,0.4872,0.4872,0.5283,0.5586,0.574,0.6511,0.7084,0.7467,0.7518,0.7858,0.8514,0.812,0.8049,0.8357,0.8328,0.8203,0.7778,0.6414,0.6151,0.667,0.6578,0.6393,0.6271,0.6573,0.6345,0.5891,0.5454,0.4992,0.4509,0.3825,0.3218,0.252,0.141,0.0494,-0.0309,-0.087,-0.1642,-0.2528,-0.351,0.0,0.0,0.0,0.0,0.0,-0.7016,-0.708,-0.7177,-0.7653,-0.7452,-0.7285,-0.7501,-0.7196,-0.6913,-0.6986,-0.7112,-0.7167,-0.7066,-0.6845,-0.6503,-0.6083,-0.5702,-0.5274,-0.4812,-0.4406,-0.4112,0.0,-0.3499,-0.314,-0.2959,-0.2361,-0.1838,-0.1457,-0.116,-0.0952,-0.087,-0.0666,-0.05,-0.0447,-0.0204,0.0,0.0146,0.0224,0.023,0.0236,-0.0082,-0.0167,-0.0167,-0.0688,-0.0975,-0.1095,-0.1217,-0.1532,-0.1953,-0.2286,-0.2532,-0.2885,0.0,0.0,0.0,0.0,0.0,0.3484,0.4101,0.4828,0.5551,0.0,0.0,0.0,0.7831,0.8049,0.7875,0.7078,0.7012,0.6802,0.6349,0.6108,0.6002,0.6125,0.6745,0.7148,0.7331,0.8202,0.8729,0.899,0.9272,0.9645,1.0147,1.0077,1.0107,1.0294,1.0464,1.048,1.02,0.9184,0.8679,0.8548,0.8458,0.834,0.8237,0.8291,0.7985,0.7542,0.72,0.6709,0.6086,0.5395,0.4474,0.3361,0.2231,0.1487,0.0846,0.0073,-0.0654,-0.1405,-0.2456,-0.3111,-0.3741,-0.4623,0.0,0.0,-0.565,-0.5758,-0.5908,-0.6261,-0.6203,-0.6136,-0.6216,-0.6132,-0.5974,-0.5761,-0.5793,-0.594,-0.6156,-0.5905,-0.5524,-0.5068,-0.4749,-0.4431,-0.4085,-0.3793,-0.3527,-0.3282,-0.2856,-0.2465,-0.2142,-0.1666,-0.1209,-0.0855,-0.0605,-0.0422,-0.0231,-0.0121,0.0,0.0063,0.0206,0.0359,0.0584,0.0605,0.0542,0.0394,0.0248,0.0084,0.0,-0.0264,-0.0634,-0.102,-0.1135,-0.1545,-0.207,-0.2326,-0.2776,-0.3223,0.0,0.0,0.2102,0.2354,0.3367,0.4126,0.4298,0.5213,0.6034,0.0,0.71,0.771,0.8141,0.8379,0.8255,0.7753,0.7789,0.7548,0.7034,0.6906,0.7017,0.7343,0.8153,0.8631,0.8842,0.9957,1.0497,1.0504,1.1133,1.1616,1.2031,1.2236,1.2401,1.2529,1.2749,1.2496,1.2081,1.228,1.1646,1.053,1.0466,1.0321,1.0117,1.0191,0.971,0.9033,0.889,0.8332,0.7494,0.6723,0.551,0.4148,0.3216,0.2593,0.2046,0.1079,0.0353,-0.0331,-0.1312,-0.2091,-0.2837,-0.3606,-0.3837,0.0,-0.394,-0.4082,-0.4256,-0.4298,-0.4709,-0.5075,-0.5165,-0.5227,-0.5184,-0.4905,-0.4522,-0.4456,-0.4998,-0.4629,-0.4147,-0.3751,-0.3593,-0.3451,-0.3249,-0.3098,-0.2927,-0.2685,-0.2236,-0.1751,-0.1256,-0.1075,-0.0794,-0.0302,-0.0152,0.0105,0.0453,0.0481,0.0558,0.0562,0.0695,0.0801,0.0949,0.0769,0.0708,0.0633,0.0496,0.0253,0.0085,0.0,-0.0278,-0.0837,-0.1044,-0.155,-0.2079,-0.2459,-0.2909,-0.3451,0.0,0.1177,0.1682,0.2524,0.3326,0.4054,0.4656,0.532,0.5984,0.6317,0.7349,0.7894,0.7546,0.8015,0.8285,0.8061,0.771,0.7668,0.7852,0.7818,0.7893,0.8156,0.9129,0.986,1.0288,1.1259,1.1877,1.2226,1.2546,1.2954,1.3403,1.3457,1.3654,1.4048,1.4014,1.39,1.3827,1.3987,1.3984,1.3839,1.2613,1.1963,1.1696,1.179,1.1309,1.0527,0.9863,0.9364,0.8819,0.741,0.6315,0.5382,0.4519,0.3746,0.3003,0.2263,0.1509,0.0772,0.0133,-0.0254,-0.0699,-0.1556,-0.1622,0.0,-0.2739,-0.3087,-0.3417,-0.421,-0.4548,-0.4747,-0.4921,-0.4713,-0.4537,-0.4643,-0.3932,-0.3584,-0.4313,-0.3931,-0.3466,-0.3108,-0.2723,-0.2401,-0.2143,-0.2001,-0.1879,-0.1758,-0.1414,-0.1131,-0.0911,-0.063,-0.0336,-0.005,0.0104,0.0387,0.0727,0.0736,0.0885,0.1125,0.1273,0.1386,0.1533,0.146,0.135,0.1133,0.0916,0.0681,0.0347,0.0363,-0.0093,-0.076,-0.0872,-0.1384,-0.2116,-0.2677,-0.314,-0.3613,0.0806,0.1436,0.2151,0.278,0.3796,0.455,0.4641,0.5636,0.6352,0.6352,0.7291,0.7826,0.759,0.7907,0.8065,0.7894,0.804,0.8163,0.8421,0.8646,0.8969,0.9405,1.0378,1.1214,1.1763,1.2705,1.3378,1.36,1.4169,1.4599,1.4857,1.5245,1.5532,1.5736,1.5753,1.5685,1.5525,1.5525,1.552,1.551,1.431,1.3631,1.3314,1.3331,1.2742,1.1943,1.1276,1.0444,0.9456,0.7943,0.7314,0.6906,0.5494,0.5105,0.4894,0.3606,0.2874,0.2251,0.1346,0.0,0.0,-0.0029,0.0,0.0,0.0,-0.1507,-0.1918,-0.2357,-0.2858,-0.3223,-0.324,-0.3606,-0.3828,-0.3642,-0.3353,-0.3178,-0.3289,-0.2961,-0.2639,-0.2433,-0.2106,-0.1822,-0.162,-0.1474,-0.131,-0.1106,-0.0751,-0.0521,-0.0462,-0.0091,0.0242,0.0453,0.0627,0.0833,0.1086,0.1103,0.1263,0.1451,0.1554,0.1604,0.1681,0.1767,0.1593,0.1305,0.1167,0.0852,0.0437,0.0368,0.0,-0.0573,-0.0779,-0.1399,-0.2361,-0.2822,-0.3403,-0.4108,0.0852,0.171,0.2573,0.2859,0.401,0.4884,0.4598,0.5646,0.6395,0.6461,0.7204,0.7764,0.8043,0.8068,0.8177,0.8235,0.863,0.8946,0.9037,0.953,1.0054,1.0706,1.1592,1.24,1.3099,1.4096,1.4697,1.4841,1.5601,1.6058,1.6246,1.6914,1.7299,1.729,1.7478,1.7472,1.7259,1.694,1.6816,1.6788,1.5998,1.5356,1.484,1.4605,1.4033,1.3264,1.2662,1.153,1.0094,0.8963,0.8644,0.8446,0.6787,0.6655,0.6814,0.525,0.45,0.0,0.0,0.0,0.0,0.0,0.0,0.0429,0.0,0.0,0.0,-0.0374,-0.1006,-0.1576,-0.1602,-0.2418,-0.2935,-0.2475,-0.2668,-0.2766,-0.2353,-0.2058,-0.1882,-0.1844,-0.1654,-0.1423,-0.1237,-0.1099,-0.0892,-0.0585,-0.0229,0.0,0.0,0.0507,0.083,0.1007,0.1219,0.1399,0.1605,0.1658,0.1711,0.1836,0.1834,0.1827,0.1913,0.1936,0.1764,0.1477,0.1425,0.1117,0.0619,0.0653,0.0287,-0.0385,-0.0688,-0.1415,-0.2392,-0.287,-0.3566,-0.4385,0.1122,0.1602,0.2097,0.2571,0.3189,0.3814,0.4302,0.4692,0.534,0.6378,0.7101,0.7916,0.8629,0.877,0.9182,1.014,0.9845,0.9836,1.0399,1.0493,1.0918,1.1787,1.243,1.3271,1.4364,1.5016,1.5584,1.5993,1.6478,1.688,1.7328,1.8005,1.8315,1.8245,1.8784,1.889,1.8828,1.83,1.8429,1.8827,1.8448,1.7261,1.5644,1.5544,1.5049,1.4292,1.3459,1.2505,1.1643,0.0,1.0639,0.9799,0.9154,0.8486,0.7892,0.7482,0.6615,0.0,0.0,0.0,0.0,0.0,0.3313,0.0,0.0,0.0,0.0385,0.0162,0.0,-0.092,-0.1489,0.0,0.0,-0.1619,-0.1772,-0.1863,-0.1876,-0.1633,-0.1502,-0.163,-0.1359,-0.1021,-0.0633,-0.0442,-0.0262,-0.0077,0.0188,0.0351,0.0441,0.1009,0.1357,0.1412,0.1832,0.2189,0.2393,0.234,0.2441,0.2636,0.2369,0.2362,0.2565,0.2376,0.2215,0.2181,0.2059,0.1772,0.1382,0.1416,0.0771,-0.0098,-0.0713,-0.124,-0.1874,-0.2799,-0.3491,-0.4173,0.1171,0.178,0.2296,0.2665,0.3504,0.4142,0.4296,0.5522,0.667,0.7497,0.8421,0.9151,0.9649,0.9686,0.9897,1.0742,1.0501,1.0629,1.121,1.1585,1.2171,1.3037,1.3831,1.4576,1.538,1.611,1.6648,1.6996,1.7644,1.8154,1.8489,1.8924,1.9335,1.9694,1.9566,1.9834,2.0212,1.9531,1.93,1.9423,1.9131,1.8332,1.7293,1.7138,1.6399,1.5313,1.4812,1.3862,1.2789,0.0,1.1462,0.0,0.0,0.0,0.0,0.8658,0.7815,0.0,0.0,0.0,0.0,0.0,0.0,0.0,0.2771,0.0,0.1754,0.0,0.0,0.0,0.0,0.0,0.0,0.0,-0.128,-0.142,-0.1648,-0.1811,-0.1762,-0.1363,0.0,0.0,-0.0155,-0.0028,0.016,0.0426,0.06,0.0827,0.1106,0.1616,0.1934,0.2132,0.2426,0.2684,0.2772,0.2906,0.2965,0.3155,0.3143,0.3145,0.3102,0.3101,0.2879,0.2443,0.2529,0.2251,0.1763,0.1628,0.117,0.0395,-0.0207,-0.0949,-0.1797,-0.2627,-0.3347,-0.4289,0.1635,0.2166,0.2691,0.2976,0.3727,0.4479,0.4854,0.6421,0.7846,0.8632,0.945,1.0186,1.0647,1.0535,1.0777,1.1336,1.1401,1.1559,1.2067,1.2631,1.3397,1.4362,1.5025,1.5699,1.6497,1.7111,1.7651,1.8073,1.8606,1.9147,1.9554,1.9674,2.0014,2.0506,2.0417,2.0636,2.1146,2.0606,2.0349,2.0282,2.0013,1.9574,1.9046,1.83,1.7344,1.6295,1.591,1.5172,1.4174,1.2839,1.2478,0.0,1.1068,1.0857,1.0877,0.0,0.0,0.0,0.822,0.0,0.0,0.0,0.0,0.0,0.0,0.0,0.0,0.0,0.0,0.0,0.0,0.0,0.0663,0.0165,0.0,-0.1005,-0.1367,-0.1963,-0.2076,-0.1394,-0.0941,0.0,0.0,0.0079,0.0304,0.0836,0.0918,0.1214,0.1745,0.2172,0.2458,0.2711,0.2976,0.314,0.3237,0.337,0.3531,0.3652,0.3713,0.365,0.3627,0.3698,0.3413,0.3001,0.3114,0.2754,0.2169,0.1941,0.1481,0.1001,0.0419,-0.0428,-0.14,-0.2229,-0.3184,-0.4144,0.2545,0.2728,0.3025,0.339,0.3722,0.4489,0.5966,0.7074,0.8104,0.9004,0.9738,1.0427,1.1141,1.1478,1.1977,1.2704,1.266,1.2812,1.3324,1.3448,1.4136,1.5586,1.5619,1.6355,1.79,1.8011,1.8433,1.9219,1.9206,1.9653,2.046,2.0195,2.0228,2.0444,2.1283,2.1474,2.1303,2.1549,2.1863,2.2086,2.1569,2.123,2.069,1.8564,1.7678,1.7397,1.6546,0.0,0.0,1.4913,1.4156,0.0,0.0,0.0,0.0,0.0,0.0,0.0,0.0,0.0,0.0,0.7548,0.0,0.0,0.0,0.0,0.422,0.0,0.0,0.0,0.0,0.0,0.0,0.2608,0.0946,0.0,0.0,-0.1803,-0.2257,-0.1925,-0.1011,-0.0336,0.0,-0.0219,0.0085,0.1009,0.1074,0.143,0.2258,0.2618,0.2871,0.2971,0.345,0.3737,0.3786,0.3871,0.4018,0.4302,0.3852,0.387,0.429,0.4064,0.3949,0.3935,0.3751,0.3402,0.3036,0.2451,0.2004,0.1659,0.1058,0.0323,-0.0548,-0.1816,-0.2758,-0.3462,0.3132,0.356,0.3862,0.3731,0.43,0.5443,0.7298,0.8342,0.9418,1.0707,1.1245,1.1863,1.2395,1.2301,1.2496,1.3041,1.3141,1.3527,1.4625,1.4977,1.5655,1.7036,1.7169,1.7699,1.8886,1.8816,1.9202,2.0004,2.0124,2.0594,2.1366,2.1105,2.1373,2.2021,2.2071,2.253,2.3175,2.3182,2.3104,2.2978,2.207,2.1668,2.1477,0.0,1.9303,1.8715,1.8672,1.8026,0.0,1.6665,1.6039,1.5378,1.4773,1.3825,1.301,1.3484,1.3214,0.0,0.0,0.0,1.1517,0.9348,0.0,0.0,0.0,0.0,0.0,0.0,0.0,0.0,0.0,0.0,0.352,0.3322,0.1791,0.0441,0.0,-0.0954,-0.145,-0.1192,-0.0563,-0.0096,0.002,0.0,0.0378,0.1177,0.1279,0.1791,0.2878,0.3246,0.3603,0.3964,0.4183,0.4341,0.4498,0.4677,0.4933,0.5189,0.5034,0.4914,0.5064,0.484,0.4706,0.4486,0.4278,0.4117,0.3831,0.3022,0.2461,0.2184,0.1179,0.0326,-0.055,-0.138,-0.2455,-0.3643,0.3687,0.4355,0.4761,0.4459,0.5385,0.6826,0.8684,0.966,1.0661,1.1876,1.2373,1.2708,1.2794,1.2822,1.3086,1.3333,1.358,1.4346,1.5248,1.5811,1.6794,1.8152,1.8311,1.891,1.9984,1.9983,2.0205,2.0839,2.09,2.1271,2.1919,2.1593,2.1822,2.2518,2.266,2.3175,2.3886,2.422,2.4173,2.377,2.2855,2.2486,2.2473,0.0,2.0938,1.9766,0.0,1.9487,1.8614,1.8478,1.8026,1.7284,1.6351,1.5386,1.4633,1.4797,1.4784,1.4601,1.414,1.405,0.0,1.1126,1.0367,0.0,0.6736,0.0,0.0,0.0,0.0,0.0,0.0,0.0,0.0,0.3777,0.2815,0.1721,0.0,-0.0051,-0.0457,-0.0348,-0.014,0.0071,0.0224,0.0109,0.0448,0.1459,0.1486,0.2033,0.0,0.0,0.401,0.45,0.465,0.4766,0.4962,0.5191,0.5464,0.5786,0.5713,0.5682,0.5689,0.5642,0.552,0.5137,0.4931,0.4667,0.4365,0.3585,0.3018,0.2521,0.173,0.0768,-0.0222,-0.116,-0.249,-0.3973,0.4205,0.5111,0.561,0.5527,0.6822,0.8462,1.0023,1.0895,1.1678,1.2451,1.3067,1.3149,1.238,1.311,1.3591,1.333,1.421,1.4941,1.5565,1.6319,1.7287,1.8864,1.9023,1.9791,2.1235,2.1274,2.1365,2.1768,2.151,2.1665,2.2122,2.1581,2.1603,2.2056,2.3026,2.3424,2.3552,2.474,2.4968,2.4504,2.4062,2.3774,2.3667,2.3754,2.2629,2.084,2.0683,2.0644,2.0695,2.0296,1.9921,1.9361,1.7621,1.7132,1.7026,1.6299,1.6468,1.6613,1.5499,1.549,1.5211,1.2936,0.0,0.0,0.0,0.0,0.8968,0.0,0.0,0.0,0.0,0.0,0.0,0.4006,0.3831,0.3163,0.1294,0.079,0.0593,0.0532,0.0239,0.0166,0.0458,0.0045,0.0369,0.1848,0.1765,0.2233,0.3667,0.0,0.418,0.4564,0.4836,0.5001,0.5168,0.5448,0.5663,0.6003,0.5922,0.6065,0.6344,0.6474,0.6315,0.5994,0.5721,0.5241,0.4843,0.4116,0.3462,0.2884,0.2393,0.1439,0.0226,-0.1048,-0.2765,-0.4586,0.4498,0.5748,0.7025,0.7552,0.7875,0.8685,1.0288,1.1311,1.2197,1.3107,1.3367,1.3438,1.3239,1.3189,1.3358,1.3743,1.4382,1.5268,1.6549,1.7338,1.844,2.0016,2.0157,2.0863,2.2253,2.1778,2.1953,2.2574,2.2106,2.2138,2.2506,2.2242,2.2327,2.2774,2.3599,2.4164,2.4745,2.5606,2.5799,2.5488,2.488,2.4492,2.4272,0.0,2.4388,2.4296,2.2216,2.1873,2.2286,2.1485,2.0885,2.0158,1.8591,1.8364,1.8623,1.8409,1.8887,1.9308,1.848,1.7976,1.7255,1.5531,1.447,1.3247,0.0,0.0,0.0,0.0,0.0,0.0,0.0,0.0,0.0,0.4106,0.3141,0.2271,0.1615,0.1079,0.0805,0.0924,0.0783,0.0559,0.0305,0.0343,0.0679,0.1415,0.1826,0.2634,0.3926,0.0,0.0,0.5314,0.5555,0.5748,0.6093,0.6144,0.6468,0.6976,0.6641,0.6628,0.6913,0.67,0.6587,0.6567,0.6214,0.6033,0.5952,0.4794,0.4133,0.374,0.2643,0.1134,-0.0466,-0.1643,-0.2782,-0.3896,0.4618,0.6159,0.776,0.8871,0.9205,0.9741,1.1012,1.2012,1.2979,1.3761,1.3806,1.3722,1.3465,1.3419,1.3526,1.4147,1.4879,1.582,1.734,1.8179,1.9267,2.0809,2.1119,2.1826,2.2966,2.2673,2.2601,2.2963,2.2715,2.2575,2.2538,2.2674,2.2746,2.2896,2.3872,2.4583,2.5126,2.5978,2.6277,2.6123,2.5303,2.5104,0.0,2.4846,2.5126,2.5311,2.3083,2.2628,2.2914,2.239,2.164,2.0782,2.0083,2.0015,2.0203,2.0129,2.0432,2.0681,2.0234,1.9522,1.8661,1.7464,1.6363,1.5057,1.3234,1.2458,1.1939,0.0,0.0,0.0,0.0,0.0,0.0,0.3693,0.2759,0.2076,0.1788,0.1454,0.1266,0.1315,0.1203,0.0986,0.0677,0.0578,0.0879,0.1625,0.2018,0.0,0.0,0.0,0.0,0.5562,0.6006,0.6289,0.6373,0.6668,0.6934,0.7371,0.7181,0.7261,0.7415,0.7275,0.7137,0.7039,0.6657,0.6509,0.6428,0.5361,0.4832,0.4371,0.2828,0.1397,0.0,-0.1318,-0.2574,-0.3663,0.492,0.65,0.8122,0.9488,1.0424,1.1158,1.1876,1.2845,1.3665,1.3994,1.4014,1.3882,1.3518,1.3584,1.3899,1.4543,1.5349,1.643,1.7911,1.8653,1.9701,2.1147,2.1804,2.2674,2.3505,2.3553,2.3475,2.3165,2.3166,2.2944,2.2567,2.2998,2.3054,2.3015,2.4081,2.4816,2.5402,2.6313,2.6671,2.6588,2.5799,2.5743,2.6067,2.5443,2.519,2.5166,2.3906,2.322,2.3001,2.315,2.252,2.1707,2.1556,2.1677,2.1844,2.1631,2.1572,2.159,2.1312,2.0509,1.9615,1.8911,1.7692,1.6326,1.5124,1.3782,1.2694,1.2351,1.0175,0.8294,0.0,0.0,0.0,0.3236,0.273,0.0,0.0,0.1942,0.1859,0.1718,0.1612,0.0,0.1307,0.0902,0.107,0.2065,0.2291,0.0,0.0,0.0,0.0,0.5623,0.6374,0.6679,0.6516,0.0,0.743,0.7537,0.7697,0.7872,0.7982,0.8015,0.7893,0.7672,0.7156,0.694,0.6757,0.6042,0.5343,0.4736,0.3139,0.1783,0.0846,-0.0492,-0.1997,-0.3548,0.5421,0.6864,0.8065,0.8887,1.0473,1.1765,1.1978,1.2978,1.366,1.3544,1.3511,1.349,1.3364,1.3484,1.4145,1.5238,1.5942,1.697,1.8528,1.9314,2.0366,2.1833,2.2452,2.311,2.3864,2.3821,2.3859,2.3834,2.3544,2.3433,2.3515,2.3468,2.3658,2.4168,2.4551,2.5462,2.6711,2.7062,2.7041,2.6949,2.6943,2.6457,2.5756,2.5957,2.5915,2.5757,2.576,2.4513,2.3075,2.374,2.4234,2.4229,2.2209,2.2442,2.3427,2.2962,2.3083,2.3205,2.2592,2.1635,2.0601,1.9598,1.8115,1.6575,1.5262,1.4136,1.3132,1.2386,1.0599,0.8968,0.8217,0.0,0.0,0.0,0.0,0.0,0.0,0.2659,0.2404,0.2273,0.2286,0.2131,0.1738,0.1584,0.1587,0.1767,0.2407,0.0,0.0,0.0,0.0,0.0,0.6702,0.0,0.0,0.0,0.8138,0.8435,0.8455,0.8541,0.8599,0.8621,0.8577,0.8659,0.824,0.8097,0.8138,0.7113,0.6097,0.4922,0.3269,0.2139,0.1209,-0.0124,-0.1395,-0.2575,0.5789,0.6864,0.7966,0.9144,1.0538,1.1637,1.1909,1.2594,1.3177,1.3524,1.3158,1.313,1.3729,1.3566,1.4091,1.5919,1.6377,1.7296,1.8868,1.9661,2.0661,2.1692,2.2651,2.329,2.3952,2.4328,2.4403,2.3954,0.0,2.393,2.368,2.3554,2.3748,2.435,2.5139,2.5958,2.6691,2.7366,0.0,2.7204,2.7387,2.7072,2.6363,2.6541,2.6406,2.6157,2.649,2.5945,2.5137,2.4618,2.4732,2.4735,2.3369,2.353,2.4121,2.3884,2.3599,2.3366,2.3187,2.1896,2.0378,1.9724,1.7936,1.6071,1.5165,1.3629,1.2281,1.1792,1.0141,0.8361,0.7058,0.5208,0.0,0.0,0.0,0.0,0.0,0.0,0.3251,0.3005,0.3001,0.285,0.2405,0.2443,0.2414,0.2247,0.2688,0.0,0.0,0.0,0.0,0.0,0.0,0.0,0.0,0.0,0.0,0.8998,0.9207,0.927,0.919,0.9096,0.918,0.9236,0.8592,0.8384,0.8515,0.7604,0.6526,0.5242,0.4297,0.3268,0.2325,0.1009,0.0128,-0.0775,0.5629,0.6481,0.75,0.8912,0.9984,1.0925,1.1312,1.1628,1.2139,1.3116,1.2658,1.2731,1.3754,1.3583,1.412,1.6122,1.6788,1.7713,1.9198,1.9927,2.0737,2.1563,2.2582,2.338,2.385,2.4746,2.478,0.0,0.0,0.0,0.0,2.366,2.3924,2.4562,2.5764,0.0,0.0,0.0,2.7836,2.7686,2.7856,2.7644,2.719,2.7216,2.6963,2.6601,2.6843,2.708,2.6978,2.5761,2.523,2.508,2.4564,2.4557,2.4622,2.4531,2.3841,2.3204,2.3327,2.1753,1.9899,1.9235,1.7292,1.5346,1.4509,1.2752,1.1186,1.0886,0.9329,0.7523,0.5995,0.4854,0.0,0.0,0.0,0.0,0.0,0.0,0.4017,0.361,0.361,0.3452,0.3031,0.3125,0.3168,0.3073,0.3147,0.0,0.4644,0.0,0.0,0.0,0.0,0.8052,0.8562,0.0,0.9285,0.9526,0.9897,0.994,0.9766,0.9699,0.9689,0.9746,0.8969,0.8682,0.8675,0.792,0.691,0.5894,0.5214,0.4419,0.3586,0.2294,0.1418,0.0646,0.4861,0.5822,0.677,0.7021,0.8066,0.9149,0.9844,1.004,1.0419,1.1518,1.1942,1.2196,1.2498,1.3295,1.4453,1.6039,1.6594,1.7724,1.9609,1.9971,2.0806,2.1964,2.3049,2.3619,2.3495,2.4416,2.4607,0.0,0.0,2.4384,0.0,2.4288,2.4719,0.0,0.0,0.0,0.0,2.8152,2.8408,2.8934,2.8784,2.8396,2.7916,2.7877,2.7712,2.747,2.7428,2.7312,2.7073,2.7174,2.6911,2.6382,2.5461,2.5307,2.534,2.5161,2.4536,2.3636,2.2838,2.1485,1.9872,1.7824,1.6155,1.4546,1.2929,1.1734,1.0694,0.9851,0.8398,0.7048,0.6275,0.5809,0.5512,0.0,0.0,0.0,0.0,0.0,0.4421,0.3828,0.3915,0.3834,0.3315,0.3232,0.3495,0.0,0.398,0.0,0.0,0.0,0.0,0.6966,0.0,0.8704,0.8935,0.9587,1.0035,1.0183,1.0425,1.0461,1.0459,1.04,1.043,1.0526,1.0128,0.9481,0.8803,0.8082,0.7645,0.7179,0.5749,0.4865,0.42,0.3186,0.2063,0.1036,0.4187,0.4839,0.5495,0.6352,0.6966,0.7734,0.0,0.8715,0.9122,0.9424,1.0655,1.1637,1.2393,1.3334,1.4286,1.5632,1.6561,1.7725,1.8935,1.9569,2.0389,2.1434,2.2271,2.2908,2.3172,2.4242,2.4614,0.0,0.0,0.0,0.0,0.0,0.0,0.0,0.0,2.838,2.9015,2.9219,2.948,2.9785,2.9664,2.9364,2.8832,2.8562,2.8477,2.8372,2.773,2.7766,2.8032,2.753,2.7131,2.6576,2.6108,2.583,2.5543,2.5301,2.4349,2.3178,2.2318,2.0636,1.8614,1.669,1.4813,1.3094,1.167,1.0575,0.9647,0.8829,0.7598,0.6615,0.6449,0.6172,0.6079,0.0,0.0,0.0,0.0,0.0,0.0,0.4592,0.4678,0.458,0.4118,0.429,0.4553,0.0,0.0,0.0,0.0,0.0,0.0,0.7388,0.0,0.9249,0.9916,1.0376,1.0792,1.1113,1.1303,1.1358,1.1172,1.111,1.083,1.0534,1.0428,1.0016,0.9168,0.8843,0.8396,0.8008,0.7069,0.6293,0.5444,0.4634,0.3896,0.3107,0.3463,0.3689,0.4215,0.0,0.5613,0.6231,0.6901,0.7498,0.8028,0.819,0.9553,1.0946,1.194,1.2838,1.4083,1.5274,1.6527,1.7569,1.8495,1.9252,2.0013,2.0786,2.1638,0.0,2.2989,2.419,2.4597,2.4098,2.4664,0.0,0.0,0.0,0.0,0.0,2.8464,2.9257,2.9537,3.0122,3.0395,3.046,3.0303,3.0023,2.9782,2.9232,2.919,2.9223,2.8363,2.8328,2.868,2.7941,2.73,2.6844,2.6611,2.6206,2.5651,2.5232,2.3887,2.2299,2.1402,1.943,1.7288,1.5595,1.3753,1.2069,1.1084,1.002,0.9124,0.8485,0.764,0.7013,0.7031,0.6881,0.689,0.7316,0.0,0.0,0.0,0.6503,0.0,0.5478,0.5345,0.5192,0.4962,0.5196,0.5418,0.0,0.0,0.0,0.0,0.0,0.0,0.0,0.0,0.0,0.0,1.1215,1.1521,1.1919,1.2066,1.2001,1.1796,1.1779,1.1539,1.1061,1.0941,1.061,1.0128,0.9731,0.9401,0.9,0.8244,0.7464,0.6841,0.6066,0.5472,0.4816,0.2229,0.2791,0.3348,0.3348,0.3827,0.4471,0.5729,0.6082,0.6702,0.7974,0.9016,1.0003,1.0685,1.2122,1.367,1.5152,1.6165,1.7194,1.8174,1.8936,1.9603,0.0,0.0,2.2462,2.3125,2.4081,2.4509,2.4684,0.0,0.0,2.5791,0.0,2.7585,2.8313,2.8818,2.9623,3.0464,3.058,3.0865,3.1241,3.0555,3.0435,3.058,3.0004,2.9811,2.9759,2.9404,2.9128,2.8951,2.8587,2.7932,2.7188,2.7038,2.6446,2.5673,2.5091,2.3258,2.1121,1.9855,1.8059,1.6145,1.4621,1.3022,1.1787,1.131,1.0299,0.9381,0.8959,0.8788,0.8531,0.809,0.8195,0.816,0.7529,0.0,0.0,0.0,0.6731,0.0,0.6397,0.5856,0.5552,0.5664,0.568,0.5935,0.0,0.0,0.0,0.0,0.0,0.0,0.9858,1.0548,0.0,1.2052,1.207,1.2226,1.2404,1.2414,1.2373,1.2334,1.2457,1.2539,1.2558,1.1918,1.1669,1.175,1.0693,1.039,1.0436,0.9271,0.8424,0.7926,0.7419,0.6623,0.5799,0.1506,0.1662,0.2121,0.2577,0.2928,0.3441,0.4711,0.5626,0.6377,0.7029,0.8358,0.9642,1.0329,1.2108,1.3487,0.0,1.5572,1.667,0.0,1.8495,1.9422,2.0684,2.1595,2.2208,2.2792,2.3931,2.4515,2.4515,0.0,0.0,0.0,2.8264,2.8881,2.9434,3.0066,3.0419,3.0696,3.1337,3.1661,3.175,3.16,3.1609,3.1575,3.0626,3.0678,3.1001,2.9976,2.9678,2.9666,2.922,2.857,2.8004,2.731,2.6288,2.5191,2.4617,2.2834,2.06,1.8906,1.7022,1.5168,1.3443,1.2298,1.1488,1.0848,1.0423,1.007,0.9959,0.9637,0.9265,0.8944,0.9004,0.8999,0.8627,0.8731,0.0,0.0,0.0,0.7213,0.6733,0.6572,0.6557,0.6644,0.6961,0.0,0.0,0.0,0.0,0.0,0.0,0.0,0.0,1.1127,0.0,1.2478,1.2592,1.2746,1.3157,1.3318,1.3535,1.362,1.3498,1.3393,1.3327,1.2726,1.2432,1.2406,1.1687,1.1398,1.1327,1.0645,1.0059,0.9576,0.8951,0.8242,0.7505,0.0772,0.093,0.1248,0.1898,0.2245,0.2761,0.4095,0.5164,0.6065,0.6906,0.8553,0.9983,1.0846,1.2448,0.0,1.4068,1.5385,1.6711,1.7603,1.8378,1.9312,2.0686,2.1538,2.2291,2.2877,2.3963,0.0,2.4795,2.6169,2.7475,2.8898,2.9419,2.9769,3.0137,3.0769,3.0976,3.1034,3.1834,3.224,3.2297,3.2302,3.2305,3.2178,3.1343,3.1309,3.155,3.0611,3.0169,3.0013,2.9484,2.8611,2.7723,2.7128,2.5727,2.4245,2.3754,2.2023,1.9829,1.7955,1.626,1.4637,1.3145,1.2389,1.1868,1.1389,1.1182,1.1097,1.1121,1.0824,1.0416,1.0108,1.0023,0.9868,0.9354,0.9358,0.9098,0.8182,0.0,0.7774,0.0,0.0,0.0,0.0,0.8369,0.8758,0.0,0.0,0.0,0.0,0.0,0.0,1.187,1.2529,0.0,1.3853,1.377,1.3845,1.4208,1.4436,1.4493,1.4612,1.4516,1.4525,1.4431,1.3872,1.3665,1.3529,1.283,1.253,1.2509,1.1789,1.1291,1.0987,1.0365,0.9701,0.9144,0.0,0.0317,0.0797,0.0,0.1658,0.0,0.3924,0.5006,0.6076,0.7457,0.9103,1.0699,1.1902,1.2963,1.3793,1.4392,0.0,0.0,0.0,1.8422,1.9447,2.0551,2.1559,2.2586,2.3448,2.4336,2.5015,2.5627,2.7176,2.8313,2.9218,3.0076,3.0388,3.0289,3.1105,3.1358,3.1219,3.2139,3.2566,3.2846,3.2643,3.2512,3.2494,3.1996,3.1783,3.1687,3.1161,3.0591,3.0013,2.9532,2.8124,2.6657,2.6557,2.4967,2.3128,2.2549,2.0925,1.8946,1.7221,1.5733,1.448,1.3678,1.3241,1.2893,1.2616,1.2505,1.2393,1.2359,1.2124,1.1852,1.1404,1.1092,1.0608,0.9761,0.9511,0.9222,0.8609,0.0,0.8237,0.0,0.0,0.0,0.0,0.9893,1.0422,0.0,0.0,0.0,0.0,0.0,1.3056,1.4116,1.4365,1.4856,1.5773,1.5325,1.5266,1.5566,1.5627,1.547,1.5194,1.5678,1.5896,1.5806,1.5241,1.5042,1.513,1.3897,1.3584,1.3648,1.2798,1.2373,1.2174,1.1649,1.112,1.0717,0.0,0.0,0.0822,0.1337,0.2026,0.29,0.3975,0.5204,0.641,0.7384,0.9399,1.0997,1.177,1.364,1.4761,1.5047,1.565,1.6514,1.7563,1.8571,1.9592,2.0826,2.2228,2.3188,2.3525,2.4773,2.5992,2.7097,2.8206,2.9151,3.0084,3.067,3.0833,3.0717,3.123,3.1253,3.0931,3.1732,3.2139,3.2218,3.2632,3.2659,3.2489,3.2549,3.2324,3.1964,3.1884,3.1041,3.0062,2.9798,2.8617,2.7055,2.6347,2.4788,2.3029,2.2259,2.0366,1.8293,1.7248,1.5766,1.4484,1.4276,1.3956,1.3623,1.3453,1.3453,1.3438,1.3021,1.2659,1.2217,1.154,1.1149,1.0698,1.0072,0.9865,0.9549,0.8852,0.9154,0.0,0.0,1.0068,1.0607,1.0838,1.139,1.1936,0.0,0.0,0.0,0.0,1.4874,1.4903,1.4878,1.4852,1.5082,1.5806,1.5738,1.5945,1.6458,1.6441,1.6423,1.632,1.6414,1.644,1.6413,1.5725,1.5522,1.5505,1.4893,1.441,1.4175,1.3895,1.3725,1.3414,1.2867,1.2605,1.2173,0.0322,0.0491,0.0833,0.1532,0.2404,0.3119,0.4397,0.5794,0.716,0.833,1.0294,1.1867,1.272,1.4327,1.5409,1.5855,1.619,1.6894,1.7708,1.8684,1.977,2.1102,2.2525,2.3501,2.3983,2.5041,2.6327,2.7604,2.8438,2.9213,3.0157,3.0721,3.0837,3.066,3.1287,3.1339,3.1034,3.1732,3.2117,3.224,3.2566,3.271,3.2659,3.2724,3.2509,3.2251,3.2174,3.1168,2.9893,2.9571,2.8265,2.6635,2.5715,2.4146,2.2475,2.1709,2.0072,1.8287,1.7246,1.6197,1.5327,1.4925,1.4717,1.4554,1.4329,1.4274,1.42,1.3882,1.3367,1.2823,1.2413,1.1731,1.1065,1.0779,1.0559,1.0343,0.9869,1.0318,0.0,1.11,1.1707,1.2317,1.271,1.3375,1.3958,1.434,1.4969,0.0,1.6684,1.6738,1.6575,1.6301,1.6106,1.6303,1.6898,1.7204,1.7191,1.716,1.7607,1.7618,1.734,1.7377,1.7461,1.7377,1.6902,1.6704,1.6578,1.599,1.5629,1.5701,1.5529,1.5495,1.5163,1.4364,1.3631,1.3269,0.065,0.0822,0.1174,0.2076,0.2782,0.3503,0.4827,0.6219,0.7757,0.9499,1.1218,1.2758,1.4084,1.5186,1.6023,1.6625,1.7078,1.7489,1.8187,1.9051,2.015,2.145,2.2782,2.3762,2.451,2.5351,2.6263,2.748,2.8197,2.892,2.971,3.0529,3.0636,3.0359,3.1215,3.1402,3.1116,3.1629,3.1993,3.223,3.242,3.2476,3.2519,3.2476,3.236,3.2254,3.197,3.0992,2.9701,2.9142,2.7646,2.5831,2.496,2.3414,2.1787,2.1139,1.9965,1.8674,1.7416,1.6831,1.6395,1.5626,1.5495,1.5444,1.515,1.4881,1.4688,1.4573,1.3902,1.3313,1.3243,1.2305,1.1541,1.144,1.1393,1.1279,1.1272,0.0,1.2259,1.2977,1.3447,1.3976,1.4541,1.5389,1.6055,1.638,1.6987,1.7695,1.836,1.8271,1.8179,1.8033,1.774,1.7831,1.8537,1.8743,1.8534,1.7928,1.8642,1.8691,1.8135,1.8416,1.8557,1.8478,1.8114,1.7991,1.7924,1.7066,1.719,1.7824,1.749,1.726,1.713,1.5964,1.5183,1.4762,0.0651,0.1324,0.203,0.2598,0.3651,0.4728,0.5544,0.7109,0.8615,0.9576,1.1504,1.3056,1.4102,1.5699,1.679,1.6633,1.7548,1.8414,1.8957,1.9801,2.0911,2.2312,2.3132,2.3995,2.4916,2.5897,2.6661,2.7125,2.8076,2.8674,2.9044,3.0083,3.0406,2.9896,3.076,3.1127,3.0827,3.124,3.1287,3.124,3.186,3.1651,3.106,3.1591,3.1627,3.1275,3.1182,3.0435,2.9385,2.8974,2.7463,2.557,2.4826,2.3329,2.1797,2.0841,2.0307,1.9675,1.8434,1.7745,1.7149,1.6287,1.616,1.6109,1.5647,1.5087,1.4554,1.4105,1.3597,1.3094,1.2647,1.2236,1.1859,1.1686,1.1735,1.1921,1.2386,0.0,1.3771,1.4291,1.5097,1.5922,1.6495,1.6962,1.7648,1.8464,1.8716,1.8986,1.9274,1.9172,1.9288,1.9636,1.8916,1.8792,1.9523,1.9069,1.9048,1.9424,1.9612,1.9357,1.8818,1.8995,1.9024,1.8771,1.8771,1.8551,1.8282,1.8119,1.8964,2.0346,1.9291,1.8816,1.8688,1.8559,1.8431,1.7927,0.1312,0.1997,0.2542,0.3464,0.452,0.5591,0.6561,0.8101,0.9403,1.0496,1.2071,1.3437,1.4281,1.557,1.6509,1.6634,1.7681,1.8744,1.9552,2.0135,2.0957,2.2169,2.3171,2.4233,2.5338,2.6147,2.6739,2.7125,2.7834,2.8509,2.9151,2.9642,2.9996,3.0138,3.0437,3.062,3.062,3.0827,3.1008,3.1099,3.1157,3.1074,3.0975,3.1029,3.0948,3.0742,3.0468,2.9846,2.8889,2.8165,2.6829,2.5415,2.4526,2.322,2.1876,2.1156,2.0309,1.9344,1.8805,1.8429,1.787,1.7089,1.6703,1.6413,1.5742,1.5125,1.4532,1.4073,1.3584,1.3281,1.3076,1.2747,1.2614,1.2962,1.3236,0.0,0.0,1.5186,1.5831,1.653,1.7108,1.7738,1.8456,1.8929,1.9449,2.0219,2.0269,2.0405,2.0685,2.0688,2.0813,2.1107,2.024,1.9888,2.0151,2.0342,2.034,2.0279,2.0643,2.0543,1.9979,2.0164,2.0251,2.0133,1.9907,1.9668,1.9494,1.9112,1.9318,2.0094,2.0094,2.0221,2.0094,1.9328,1.9072,1.8944,0.1982,0.2676,0.3399,0.4331,0.5385,0.6448,0.775,0.9065,1.0335,1.1436,1.2656,1.3837,1.4497,1.561,1.638,1.6502,1.7846,1.8946,1.9542,2.0241,2.1047,2.2181,2.3466,2.4549,2.5404,2.6279,2.6816,2.6884,2.7678,2.8271,2.8898,2.9181,2.9447,2.9899,2.9884,3.0072,3.0183,3.0516,3.0764,3.082,3.0557,3.0478,3.0636,3.0361,3.0208,3.0165,2.9669,2.9103,2.8368,2.7281,2.6119,2.5004,2.4106,2.2982,2.1828,2.1429,2.0319,1.9103,1.8904,1.8705,1.8409,1.7695,1.7142,1.6542,1.5883,1.5241,1.4623,1.4215,1.3935,1.3726,1.3799,1.3706,1.3853,1.438,0.0,0.0,0.0,1.7108,1.7658,1.8564,1.8886,1.9384,2.0043,2.0483,2.0942,2.1456,2.1595,2.1776,2.191,2.2042,2.2133,2.2049,2.1261,2.0849,2.0926,2.1414,2.1541,2.1181,2.1627,2.1656,2.1081,2.1322,2.1343,2.1292,2.1124,2.1036,2.0862,2.0253,2.0051,2.0106,2.1531,2.2038,2.1869,2.0566,1.9989,1.9955,0.2481,0.3367,0.4456,0.5375,0.6599,0.7668,0.8281,0.9702,1.0927,1.143,1.2984,1.416,1.4497,1.5778,1.6538,1.6502,1.7846,1.8795,1.9239,2.0385,2.1764,2.2911,2.4606,2.5353,2.5184,2.6424,2.6826,2.6116,2.7418,2.7766,2.738,2.8616,2.8848,2.8486,2.898,2.9363,2.9659,2.9994,2.9953,2.9842,3.0024,2.9593,2.8903,2.9171,2.9059,2.8932,2.863,2.8277,2.785,2.6528,2.5414,2.4355,2.3253,2.238,2.1748,2.1238,2.0492,1.9656,1.8763,1.8454,1.8231,1.8056,1.7369,1.6713,1.6296,1.5489,1.475,1.4572,1.4696,1.4714,1.4372,1.5049,1.5596,1.569,0.0,0.0,1.7763,1.8288,1.8748,1.9314,1.9955,2.0518,2.0908,2.1298,2.1755,2.2223,2.2525,2.2722,2.2635,2.2972,2.2961,2.2371,2.1834,2.1651,2.1852,2.1999,2.2238,2.2427,2.2541,2.2468,2.2111,2.214,2.1953,2.1751,2.2335,2.2276,2.1937,2.1881,2.227,2.2972,2.4305,2.4785,2.4625,2.3305,2.2702,2.2603,0.3006,0.4062,0.5135,0.5845,0.7087,0.8326,0.8994,1.0294,1.1396,1.1819,1.3098,1.4131,1.4355,1.5545,1.6337,1.6335,1.7779,1.8946,1.9542,2.066,2.205,2.3474,2.4266,2.4804,2.5138,2.5818,2.6096,2.6067,2.7159,2.7617,2.7669,2.7989,2.835,2.8455,2.8506,2.8814,2.9006,2.9343,2.9556,2.958,2.9415,2.9119,2.8929,2.8806,2.8516,2.8061,2.7853,2.7459,2.6973,2.5837,2.4908,2.4097,2.3332,2.2478,2.1576,2.0467,2.0032,1.958,1.837,1.8115,1.8132,1.7842,1.7192,1.6533,1.6189,1.5721,1.5342,1.53,1.5468,1.563,1.5931,1.6632,1.7225,1.7529,0.0,1.8815,1.9904,2.0149,2.0501,2.1301,2.1606,2.1949,2.2344,2.2429,2.284,2.3545,2.3437,2.3376,2.3679,2.362,2.3701,2.371,2.3487,2.3119,2.2592,2.3142,2.3255,2.3278,2.35,2.3413,2.3052,2.3262,2.3305,2.3177,2.3316,2.3375,2.3355,2.3728,2.4115,2.4502,2.5859,2.5861,2.5128,2.555,2.5026,2.4238,0.3866,0.4935,0.6007,0.6669,0.7929,0.8994,0.9578,1.0889,1.1837,1.2081,1.3363,1.4215,1.4258,1.5447,1.6242,1.6383,1.7731,1.8946,1.9693,2.1096,2.2357,2.3859,2.3905,2.4408,2.5138,2.5438,2.5702,2.6067,2.6918,2.7449,2.7534,2.7604,2.7752,2.8009,2.7937,2.8067,2.8475,2.8708,2.9026,2.9303,2.8715,2.8594,2.8666,2.8334,2.7988,2.7629,2.7187,2.6844,2.6303,2.512,2.4271,2.3621,2.2862,2.2015,2.1024,1.9836,1.9538,1.9259,1.8256,1.7877,1.7825,1.7554,1.7024,1.6525,1.634,1.6083,1.598,1.6271,1.6536,1.6929,1.7349,1.8243,1.8956,1.9238,1.978,2.0536,2.1543,2.1731,2.1951,2.268,2.2862,2.3099,2.3322,2.3466,2.3763,2.4468,2.4105,2.4121,2.4556,2.4384,2.4364,2.4844,2.4845,2.4565,2.386,2.421,2.4213,2.3976,2.4217,2.4252,2.413,2.4378,2.4487,2.4363,2.4363,2.4239,2.4115,2.4857,2.5373,2.5866,2.7344,2.7067,2.5861,2.6398,2.6264,2.5727,0.5216,0.5822,0.6752,0.8045,0.8955,0.985,1.0088,1.1316,1.2069,1.2069,1.3432,1.4422,1.4244,1.5656,1.6561,1.6824,1.7883,1.8946,1.9682,2.1571,2.3134,2.398,2.3927,2.4408,2.5123,2.5422,2.5702,2.6067,2.6813,2.6987,2.6946,2.716,2.7223,2.7141,2.7066,2.7314,2.796,2.8174,2.8408,2.8648,2.8064,2.7925,2.8125,2.7517,2.7452,2.7516,2.6865,2.6436,2.6046,2.4407,2.3392,2.2717,2.177,2.0918,2.0081,1.9449,1.8954,1.8552,1.8475,1.7951,1.7295,1.7131,1.6924,1.6869,1.7086,1.6776,1.6652,1.7253,1.7978,1.8576,1.8593,1.9795,2.0793,2.0881,2.134,2.1946,2.251,2.2848,2.3036,2.3036,2.35,2.3906,2.3818,2.4134,2.4485,2.4736,2.4698,2.4919,2.5326,2.5133,2.5074,2.5461,2.5611,2.5572,2.5572,2.5316,2.4956,2.4595,2.4944,2.5119,2.5119,2.5488,2.5365,2.5119,2.561,2.5103,2.4115,2.4857,2.5929,2.7334,2.879,2.8395,2.7067,2.5592,2.5996,2.72,0.5384,0.6633,0.77,0.8117,0.9196,1.0083,1.0472,1.1426,1.2401,1.2899,1.3858,1.4712,1.5066,1.5864,1.6623,1.7139,1.8035,1.9156,2.0558,2.1848,2.2871,2.316,2.3315,2.3811,2.4772,2.4812,2.5214,2.5717,2.6205,2.6386,2.6253,2.6388,2.6458,2.6489,2.668,2.6921,2.7295,2.7226,2.741,2.7563,2.7124,2.7019,2.7222,2.7158,2.6941,2.6496,2.6194,2.5689,2.4812,2.3689,2.2928,2.2104,2.0775,1.9968,1.93,1.8762,1.8644,1.8528,1.8014,1.8009,1.8046,1.7706,1.7473,1.7286,1.7401,1.7562,1.792,1.8787,1.9279,1.985,2.0651,2.1431,2.2005,2.2206,2.2607,2.3135,2.3615,2.3864,2.417,2.4449,2.4775,2.4969,2.4893,2.4814,2.5108,2.5684,2.5793,2.5874,2.5754,2.5656,2.5827,2.6202,2.6202,2.6388,2.6683,2.605,2.5928,2.6052,2.6042,2.6346,2.6608,2.6734,2.651,2.608,2.6205,2.5778,2.4857,2.498,2.6563,2.879,2.9185,2.9053,2.8527,2.7067,2.7467,2.8925,0.6056,0.7293,0.834,0.8747,0.9656,1.0371,1.092,1.157,1.2382,1.315,1.3917,1.4592,1.5281,1.5903,1.6689,1.7588,1.8491,1.9543,2.0623,2.1889,2.2828,2.2873,2.3167,2.3638,2.4314,2.4436,2.4875,2.5365,2.5717,2.5968,2.5994,2.5711,2.5795,2.604,2.5933,2.6206,2.6862,2.6561,2.671,2.697,2.6481,2.6299,2.6447,2.6566,2.6244,2.5658,2.5493,2.4776,2.387,2.3075,2.2208,2.117,1.9919,1.9204,1.8751,1.8445,1.8464,1.8534,1.8324,1.8496,1.8783,1.8841,1.8419,1.7991,1.8194,1.8613,1.9208,1.9876,2.0483,2.1148,2.2136,2.2769,2.3302,2.3745,2.4181,2.4553,2.4876,2.5114,2.5208,2.5368,2.5526,2.5595,2.5821,2.5751,2.5865,2.6421,2.6469,2.6342,2.6148,2.6282,2.6454,2.6713,2.6952,2.7246,2.7497,2.7258,2.6974,2.6843,2.6968,2.721,2.7571,2.768,2.7672,2.731,2.716,2.7027,2.6777,2.6701,2.771,2.9316,2.9316,2.9691,2.9952,2.851,2.9294,3.1272,0.7227,0.7961,0.867,0.9756,1.0157,1.053,1.1421,1.189,1.2338,1.3023,1.3836,1.4472,1.5252,1.5855,1.6662,1.7873,1.9239,1.996,2.0252,2.1823,2.2682,2.2712,2.3278,2.3577,2.3592,2.4239,2.4671,2.5103,2.5365,2.57,2.5896,2.5238,2.5244,2.5741,2.5042,2.5366,2.6409,2.6025,2.618,2.6654,2.5805,2.5667,2.5929,2.5664,2.5333,2.5019,2.4775,2.3977,2.2919,2.2434,2.1353,2.0202,1.9314,1.8762,1.8431,1.8431,1.8427,1.851,1.9104,1.9349,1.9606,2.0281,1.9727,1.905,1.9477,1.9906,2.0417,2.0782,2.1489,2.224,2.2972,2.3865,2.4633,2.5307,2.5693,2.5881,2.6172,2.621,2.6144,2.5956,2.5908,2.6138,2.6573,2.6701,2.6827,2.6982,2.6707,2.6533,2.6678,2.695,2.714,2.728,2.7764,2.8061,2.8218,2.8571,2.8251,2.7494,2.7731,2.8128,2.8415,2.865,2.878,2.8711,2.8438,2.8668,2.9367,2.983,2.9699,2.9447,2.9447,3.0213,3.1249,2.9952,3.1336,3.3955,0.7227,0.8416,0.9263,0.9579,1.0425,1.1265,1.1908,1.2142,1.2716,1.3499,1.3931,1.453,1.5549,1.63,1.7102,1.8035,1.9239,1.9951,2.0003,2.0757,2.1243,2.1523,2.2552,2.2804,2.2286,2.3237,2.4052,2.4734,2.4734,2.4838,2.4932,2.4771,2.4756,2.4778,2.4611,2.4828,2.5533,2.5037,2.5201,2.5681,2.5087,2.5061,2.5289,2.5093,2.487,2.4355,2.3824,2.3038,2.2043,2.1107,2.0466,2.0029,1.9406,1.8909,1.8442,1.8442,1.8689,1.8982,1.9333,1.9605,2.0005,2.0945,2.1129,2.1048,2.0539,2.0865,2.1377,2.1828,2.2163,2.2823,2.3911,2.4331,2.4733,2.557,2.5796,2.5985,2.65,2.6456,2.6368,2.6578,2.6929,2.7159,2.7031,2.7391,2.7597,2.7643,2.7712,2.7811,2.8078,2.7974,2.8167,2.8694,2.8552,2.887,2.9383,2.9509,2.9418,2.927,2.9252,2.9555,2.9983,2.9983,3.0077,3.0152,2.9431,2.9707,3.1103,3.3481,3.3066,3.0991,3.0991,3.112,3.1377,3.112,3.2935,3.547,0.7949,0.8764,0.9574,0.9903,1.057,1.1237,1.2069,1.2117,1.2495,1.3556,1.3844,1.4453,1.5579,1.6247,1.6959,1.8339,1.9051,1.9424,1.9187,2.0121,2.0823,2.092,2.1608,2.1867,2.1515,2.2495,2.337,2.3852,2.4071,2.4146,2.4081,2.4007,2.3896,2.3974,2.3926,2.4311,2.4778,2.4384,2.4555,2.504,2.4364,2.4332,2.4499,2.438,2.3993,2.351,2.3099,2.2393,2.1397,2.045,1.9973,1.9814,1.9408,1.9063,1.8897,1.8949,1.9436,1.9913,2.0116,2.0632,2.1264,2.1947,2.2386,2.2578,2.1926,2.2147,2.2639,2.2739,2.3186,2.3773,2.458,2.5004,2.5481,2.6231,2.6356,2.6461,2.6778,2.6924,2.6971,2.7187,2.7622,2.7865,2.7955,2.8413,2.8546,2.8192,2.8433,2.8514,2.8587,2.8764,2.8977,2.919,2.9315,2.9637,3.003,3.0393,3.0629,3.0829,3.0316,3.0295,3.062,3.075,3.1009,3.1414,3.1132,3.1356,3.1966,3.3218,3.2805,3.158,3.303,3.3103,3.2497,3.3312,3.4815,3.6403,0.8497,0.9127,0.9569,1.0404,1.0737,1.1065,1.1872,1.1916,1.2268,1.3248,1.3734,1.4361,1.5445,1.6007,1.6885,1.8381,1.8864,1.8864,1.8466,1.9831,2.0665,2.0665,2.0882,2.1054,2.1109,2.1866,2.2495,2.2981,2.3397,2.3445,2.3384,2.3129,2.3053,2.3205,2.3262,2.3585,2.4128,2.3794,2.388,2.4373,2.379,2.3722,2.3876,2.3693,2.3249,2.2663,2.2635,2.197,2.0916,2.0181,1.9948,1.999,1.9547,1.9433,1.939,1.9762,2.0242,2.0787,2.1121,2.1735,2.251,2.2963,2.3503,2.3762,2.3469,2.364,2.3768,2.3555,2.4086,2.4739,2.5237,2.5792,2.6495,2.7154,2.721,2.7229,2.7413,2.7547,2.7753,2.7809,2.807,2.8384,2.889,2.9245,2.925,2.8864,2.9034,2.9148,2.9028,2.9475,2.969,2.9637,3.0031,3.0356,3.0628,3.1119,3.1705,3.2134,3.1226,3.106,3.1229,3.1488,3.1912,3.2539,3.2935,3.2879,3.2649,3.2375,3.2301,3.245,3.5047,3.5269,3.4428,3.589,3.6829,3.7213,0.842,0.9082,0.9574,1.007,1.0737,1.1363,1.1746,1.2106,1.2288,1.2779,1.3411,1.4075,1.4968,1.6144,1.7159,1.8077,1.838,1.8509,1.8433,1.9831,2.0665,2.0665,2.0671,2.0818,2.1136,2.1235,2.174,2.2606,2.3029,2.2961,2.2677,2.267,2.2582,2.2291,2.2245,2.257,2.3231,2.3071,2.3391,2.4028,2.3813,2.3736,2.3702,2.3665,2.3186,2.2501,2.2314,2.1881,2.1195,2.038,2.0465,2.0834,2.0557,2.0249,2.0155,2.0416,2.0786,2.114,2.1679,2.214,2.2641,2.3844,2.4234,2.4401,2.5224,2.4971,2.4611,2.4503,2.4826,2.5254,2.6173,2.6774,2.7363,2.8191,2.8081,2.8214,2.9114,2.8588,2.8179,2.8539,2.8403,2.8695,2.9319,2.9176,2.9241,2.9851,2.9683,2.9996,3.0821,3.0429,3.0483,3.1066,3.0974,3.1174,3.1705,3.1836,3.23,3.2972,3.284,3.2786,3.2841,3.2581,3.303,3.3877,3.4076,3.3835,3.3671,3.5599,3.5913,3.5413,3.5802,3.6689,3.7575,3.7822,3.7924,3.7904,0.8809,0.9277,0.9574,1.0237,1.0904,1.1523,1.1716,1.2081,1.2422,1.2594,1.3219,1.3891,1.4653,1.5746,1.6711,1.7253,1.7285,1.7872,1.9552,2.0249,2.04,1.9808,1.9772,1.9948,2.0361,2.0856,2.1235,2.1488,2.1874,2.1925,2.1781,2.1628,2.1565,2.166,2.2002,2.2343,2.2796,2.2909,2.3247,2.3664,2.3398,2.3343,2.3419,2.3285,2.295,2.2578,2.2201,2.1825,2.1384,2.0605,2.0527,2.0798,2.0883,2.0966,2.1145,2.1677,2.2184,2.2793,2.3133,2.3698,2.4232,2.4906,2.5196,2.5613,2.6057,2.6109,2.5963,2.541,2.5827,2.6299,2.6554,2.7215,2.7845,2.8176,2.8366,2.8576,2.8971,2.8935,2.9013,2.9546,2.9543,2.9596,3.002,2.9686,2.9636,3.0046,3.0167,3.0538,3.1258,3.1487,3.169,3.1986,3.2339,3.2543,3.2728,3.2992,3.335,3.3785,3.3785,3.369,3.3387,3.365,3.4158,3.4576,3.5008,3.5008,3.4916,3.6048,3.6829,3.7233,3.7233,3.7636,3.8366,3.929,3.9614,3.9614]},{"header":{"parameterUnit":"m.s-1","parameterCategory":1,"la1":30.6,"la2":28.766,"lo1":-90.7593,"lo2":-88.6598,"dy":0.0162,"dx":0.0183,"nx":116,"ny":114,"refTime":"2023-04-26T00:00:00:Z","depth":0,"parameterNumber":3,"parameterNumberName":"V-component_of_WINDS"},"data":[0.0,0.0,0.0,0.0,0.0,0.0,0.0,0.0,0.0,0.0,0.0,0.0,0.0,0.0,0.0,0.0,0.0,0.0,0.0,0.0,0.0,0.0,0.0,0.0,0.0,0.0,0.0,0.0,0.0,0.0,0.0,0.0,0.0,0.0,0.0,0.0,0.0,0.0,0.0,0.0,0.0,0.0,0.0,0.0,0.0,0.0,0.0,0.0,0.0,0.0,0.0,0.0,0.0,0.0,0.0,0.0,0.0,0.0,0.0,0.0,0.0,0.0,0.0,0.0,0.0,0.0,0.0,0.0,0.0,0.0,0.0,0.0,0.0,0.0,0.0,0.0,0.0,0.0,0.0,0.0,0.0,0.0,0.0,0.0,0.0,0.0,0.0,0.0,0.0,0.0,0.0,0.0,0.0,0.0,0.0,0.0,0.0,0.0,0.0,0.0,0.0,0.0,0.0,0.0,0.0,0.0,0.0,0.0,0.0,0.0,0.0,0.0,0.0,0.0,0.0,0.0,0.0,0.0,0.0,0.0,0.0,0.0,0.0,0.0,0.0,0.0,0.0,0.0,0.0,0.0,0.0,0.0,0.0,0.0,0.0,0.0,0.0,0.0,0.0,0.0,0.0,0.0,0.0,0.0,0.0,0.0,0.0,0.0,0.0,0.0,0.0,0.0,0.0,0.0,0.0,0.0,0.0,0.0,0.0,0.0,0.0,0.0,0.0,0.0,0.0,0.0,0.0,0.0,0.0,0.0,0.0,0.0,0.0,0.0,0.0,0.0,0.0,0.0,0.0,0.0,0.0,0.0,0.0,0.0,0.0,0.0,0.0,0.0,0.0,0.0,0.0,0.0,0.0,0.0,0.0,0.0,0.0,0.0,0.0,0.0,0.0,0.0,0.0,0.0,0.0,0.0,0.0,0.0,0.0,0.0,0.0,0.0,0.0,0.0,0.0,0.0,0.0,0.0,0.0,0.0,0.0,0.0,0.0,0.0,0.0,0.0,0.0,0.0,0.0,0.0,0.0,0.0,0.0,0.0,0.0,0.0,0.0,0.0,0.0,0.0,0.0,0.0,0.0,0.0,0.0,0.0,0.0,0.0,0.0,0.0,0.0,0.0,0.0,0.0,0.0,0.0,0.0,0.0,0.0,0.0,0.0,0.0,0.0,0.0,0.0,0.0,0.0,0.0,0.0,0.0,0.0,0.0,0.0,0.0,0.0,0.0,0.0,0.0,0.0,0.0,0.0,0.0,0.0,0.0,0.0,0.0,0.0,0.0,0.0,0.0,0.0,0.0,0.0,0.0,0.0,0.0,0.0,0.0,0.0,0.0,0.0,0.0,0.0,0.0,0.0,0.0,0.0,0.0,0.0,0.0,0.0,0.0,0.0,0.0,0.0,0.0,0.0,0.0,0.0,0.0,0.0,0.0,0.0,0.0,0.0,0.0,0.0,0.0,0.0,0.0,0.0,0.0,0.0,0.0,0.0,0.0,0.0,0.0,0.0,0.0,0.0,0.0,0.0,0.0,0.0,0.0,0.0,0.0,0.0,0.0,0.0,0.0,0.0,0.0,0.0,0.0,0.0,0.0,0.0,0.0,0.0,0.0,0.0,0.0,0.0,0.0,0.0,0.0,0.0,0.0,0.0,0.0,0.0,0.0,0.0,0.0,0.0,0.0,0.0,0.0,0.0,0.0,0.0,0.0,0.0,0.0,0.0,0.0,0.0,0.0,0.0,0.0,0.0,0.0,0.0,0.0,0.0,0.0,0.0,0.0,0.0,0.0,0.0,0.0,0.0,0.0,0.0,0.0,0.0,0.0,0.0,0.0,0.0,0.0,0.0,0.0,0.0,0.0,0.0,0.0,0.0,0.0,0.0,0.0,0.0,0.0,0.0,0.0,0.0,0.0,0.0,0.0,0.0,0.0,0.0,0.0,0.0,0.0,0.0,0.0,0.0,0.0,0.0,0.0,0.0,0.0,0.0,0.0,0.0,0.0,0.0,0.0,0.0,0.0,0.0,0.0,0.0,0.0,0.0,0.0,0.0,0.0,0.0,0.0,0.0,0.0,0.0,0.0,0.0,0.0,0.0,0.0,0.0,0.0,0.0,0.0,0.0,0.0,0.0,0.0,0.0,0.0,0.0,0.0,0.0,0.0,0.0,0.0,0.0,0.0,0.0,0.0,0.0,0.0,0.0,0.0,0.0,0.0,0.0,0.0,0.0,0.0,0.0,0.0,0.0,0.0,0.0,0.0,0.0,0.0,0.0,0.0,0.0,0.0,0.0,0.0,0.0,0.0,0.0,0.0,0.0,0.0,0.0,0.0,0.0,0.0,0.0,0.0,0.0,0.0,0.0,0.0,0.0,0.0,0.0,0.0,0.0,0.0,0.0,0.0,0.0,0.0,0.0,0.0,0.0,0.0,0.0,0.0,0.0,0.0,0.0,0.0,0.0,0.0,0.0,0.0,0.0,0.0,0.0,0.0,0.0,0.0,0.0,0.0,0.0,0.0,0.0,0.0,0.0,0.0,0.0,0.0,0.0,0.0,0.0,0.0,0.0,0.0,0.0,0.0,0.0,0.0,0.0,0.0,0.0,0.0,0.0,0.0,0.0,0.0,0.0,0.0,0.0,0.0,0.0,0.0,0.0,0.0,0.0,0.0,0.0,0.0,0.0,0.0,0.0,0.0,0.0,0.0,0.0,0.0,0.0,0.0,0.0,0.0,0.0,0.0,0.0,0.0,0.0,0.0,0.0,0.0,0.0,0.0,0.0,0.0,0.0,0.0,0.0,0.0,0.0,0.0,0.0,0.0,0.0,0.0,0.0,0.0,0.0,0.0,0.0,0.0,0.0,0.0,0.0,0.0,0.0,0.0,0.0,0.0,0.0,0.0,0.0,0.0,0.0,0.0,0.0,0.0,0.0,0.0,0.0,0.0,0.0,0.0,0.0,0.0,0.0,0.0,0.0,0.0,0.0,0.0,0.0,0.0,0.0,0.0,0.0,0.0,0.0,0.0,0.0,0.0,0.0,0.0,0.0,0.0,0.0,0.0,0.0,0.0,0.0,0.0,0.0,0.0,0.0,0.0,0.0,0.0,0.0,0.0,0.0,0.0,0.0,0.0,0.0,0.0,0.0,0.0,0.0,0.0,0.0,0.0,0.0,0.0,0.0,0.0,0.0,0.0,0.0,0.0,0.0,0.0,0.0,0.0,0.0,0.0,0.0,0.0,0.0,0.0,0.0,0.0,0.0,0.0,0.0,0.0,0.0,0.0,0.0,0.0,0.0,0.0,0.0,0.0,0.0,0.0,0.0,0.0,0.0,0.0,0.0,0.0,0.0,0.0,0.0,0.0,0.0,0.0,0.0,0.0,0.0,0.0,0.0,0.0,0.0,0.0,0.0,0.0,0.0,0.0,0.0,0.0,0.0,0.0,0.0,0.0,0.0,0.0,0.0,0.0,0.0,0.0,0.0,0.0,0.0,0.0,0.0,0.0,0.0,0.0,0.0,0.0,0.0,0.0,0.0,0.0,0.0,0.0,0.0,0.0,0.0,0.0,0.0,0.0,0.0,0.0,0.0,0.0,0.0,0.0,0.0,0.0,0.0,0.0,0.0,0.0,0.0,0.0,0.0,0.0,0.0,0.0,0.0,0.0,0.0,0.0,0.0,0.0,0.0,0.0,0.0,0.0,0.0,0.0,0.0,0.0,0.0,0.0,0.0,0.0,0.0,0.0,0.0,0.0,0.0,0.0,0.0,0.0,0.0,0.0,0.0,0.0,0.0,0.0,0.0,0.0,0.0,0.0,0.0,0.0,0.0,0.0,0.0,0.0,0.0,0.0,0.0,0.0,0.0,0.0,0.0,0.0,0.0,0.0,0.0,0.0,0.0,0.0,0.0,0.0,0.0,0.0,0.0,0.0,0.0,0.0,0.0,0.0,0.0,0.0,0.0,0.0,0.0,0.0,0.0,0.0,0.0,0.0,0.0,0.0,0.0,0.0,0.0,0.0,0.0,0.0,0.0,0.0,0.0,0.0,0.0,0.0,0.0,0.0,0.0,0.0,0.0,0.0,0.0,0.0,0.0,0.0,0.0,0.0,0.0,0.0,0.0,0.0,0.0,0.0,0.0,0.0,0.0,0.0,0.0,0.0,0.0,0.0,0.0,0.0,0.0,0.0,0.0,0.0,0.0,0.0,0.0,0.0,0.0,0.0,0.0,0.0,0.0,0.0,0.0,0.0,0.0,0.0,0.0,0.0,0.0,0.0,0.0,0.0,0.0,0.0,0.0,0.0,0.0,0.0,0.0,0.0,0.0,0.0,0.0,0.0,0.0,0.0,0.0,0.0,0.0,0.0,0.0,0.0,0.0,0.0,0.0,0.0,0.0,0.0,0.0,0.0,0.0,0.0,0.0,0.0,0.0,0.0,0.0,0.0,0.0,0.0,0.0,0.0,0.0,0.0,0.0,0.0,0.0,0.0,0.0,0.0,0.0,0.0,0.0,0.0,0.0,0.0,0.0,0.0,0.0,0.0,0.0,0.0,0.0,0.0,0.0,0.0,0.0,0.0,0.0,0.0,0.0,0.0,0.0,0.0,0.0,0.0,0.0,0.0,0.0,0.0,0.0,0.0,0.0,0.0,0.0,0.0,0.0,0.0,0.0,0.0,0.0,0.0,0.0,0.0,0.0,0.0,0.0,0.0,0.0,0.0,0.0,0.0,0.0,0.0,0.0,0.0,0.0,0.0,0.0,0.0,0.0,0.0,0.0,0.0,0.0,0.0,0.0,0.0,0.0,0.0,0.0,0.0,0.0,0.0,0.0,0.0,0.0,0.0,0.0,0.0,0.0,0.0,0.0,0.0,0.0,0.0,0.0,0.0,0.0,0.0,0.0,0.0,0.0,0.0,0.0,0.0,0.0,0.0,0.0,0.0,0.0,0.0,0.0,0.0,0.0,0.0,0.0,0.0,0.0,0.0,0.0,0.0,0.0,0.0,0.0,0.0,0.0,0.0,0.0,0.0,0.0,0.0,0.0,0.0,0.0,0.0,0.0,0.0,0.0,0.0,0.0,0.0,0.0,0.0,0.0,0.0,0.0,0.0,0.0,0.0,0.0,0.0,0.0,0.0,0.0,0.0,0.0,0.0,0.0,0.0,0.0,0.0,0.0,0.0,0.0,0.0,0.0,0.0,0.0,0.0,0.0,0.0,0.0,0.0,0.0,0.0,0.0,0.0,0.0,0.0,0.0,0.0,0.0,0.0,0.0,0.0,0.0,0.0,0.0,0.0,0.0,0.0,0.0,0.0,0.0,0.0,0.0,0.0,0.0,0.0,0.0,0.0,0.0,0.0,0.0,0.0,0.0,0.0,0.0,0.0,0.0,0.0,0.0,0.0,0.0,0.0,0.0,0.0,0.0,0.0,0.0,0.0,0.0,0.0,0.0,0.0,0.0,0.0,0.0,0.0,0.0,0.0,0.0,0.0,0.0,0.0,0.0,0.0,0.0,0.0,0.0,0.0,0.0,0.0,0.0,0.0,0.0,0.0,0.0,0.0,0.0,0.0,0.0,0.0,0.0,0.0,0.0,0.0,0.0,0.0,0.0,0.0,0.0,0.0,0.0,0.0,0.0,0.0,0.0,0.0,0.0,0.0,0.0,0.0,0.0,0.0,0.0,0.0,0.0,0.0,0.0,0.0,0.0,0.0,0.0,0.0,0.0,0.0,0.0,0.0,0.0,0.0,0.0,0.0,0.0,0.0,0.0,0.0,0.0,0.0,0.0,0.0,0.0,0.0,0.0,0.0,0.0,0.0,0.0,0.0,0.0,0.0,0.0,0.0,0.0,0.0,0.0,0.0,0.0,0.0,0.0,0.0,0.0,0.0,0.0,0.0,0.0,0.0,0.0,0.0,0.0,0.0,0.0,0.0,0.0,0.0,0.0,0.0,0.0,0.0,0.0,0.0,0.0,0.0,0.0,0.0,0.0,0.0,0.0,0.0,0.0,0.0,0.0,0.0,0.0,0.0,0.0,0.0,0.0,0.0,0.0,0.0,0.0,0.0,0.0,0.0,0.0,0.0,0.0,0.0,0.0,0.0,0.0,0.0,0.0,0.0,0.0,0.0,0.5095,0.0,0.0,0.0,0.0,0.0,0.0,0.0,0.0,0.0,0.0,0.0,0.0,0.0,0.0,0.0,0.0,0.0,0.0,0.0,0.0,0.0,0.0,0.0,0.0,0.0,0.0,0.0,0.0,0.0,0.0,0.0,0.0,0.0,0.0,0.0,0.0,0.0,0.0,2.111,2.2843,2.4958,2.7418,2.8073,2.8061,2.7581,0.0,0.0,0.0,0.0,0.0,0.0,0.0,0.0,0.0,0.0,0.0,0.0,0.0,0.0,0.0,0.0,0.0,0.0,0.0,0.0,0.0,0.0,0.0,0.0,0.0,0.0,0.0,0.0,0.0,0.0,0.0,0.0,0.0,0.0,0.0,0.0,0.0,0.0,0.0,0.0,0.0,0.0,0.0,0.0,0.0,0.0,0.0,0.0,0.0,0.0,0.0,0.0,0.0,0.0,0.0,0.0,0.0,0.0,0.0,0.0,0.0,0.0,0.0,0.0,0.0,0.0,0.0,0.0,0.0,0.0,0.0,0.6722,0.0,0.0,0.0,0.0,0.0,0.0,0.0,0.0,0.0,0.0,0.0,0.0,0.0,0.0,0.0,0.0,0.0,0.0,0.0,0.0,0.0,0.0,0.0,1.1793,1.2572,1.2979,1.4493,1.5827,0.0,0.0,0.0,0.0,0.0,0.0,1.8808,2.0262,2.1554,2.2753,2.4872,2.7379,3.0206,3.1068,3.0543,2.8887,2.9149,0.0,0.0,0.0,0.0,0.0,0.0,0.0,0.0,0.0,0.0,0.0,0.0,0.0,0.0,0.0,0.0,0.0,0.0,0.0,0.0,0.0,0.0,0.0,0.0,0.0,0.0,0.0,0.0,0.0,0.0,0.0,0.0,0.0,0.0,0.0,0.0,0.0,0.0,0.0,0.0,0.0,0.0,0.0,0.0,0.0,0.0,0.0,0.0,0.0,0.0,0.0,0.0,0.0,0.0,0.0,0.0,0.0,0.0,0.0,0.0,0.0,0.0,0.0,0.4711,0.5616,0.6043,0.7597,0.8382,0.843,0.8312,0.829,0.8268,0.8182,0.0,0.0,0.0,0.0,0.0,0.0,0.0,0.0,0.0,0.0,0.0,0.0,0.0,0.0,0.0,0.0,0.0,0.0,0.0,0.0,0.0,1.3079,1.4029,1.3868,1.5489,1.662,1.6947,0.0,0.0,0.0,0.0,0.0,1.966,2.1325,2.2375,2.2785,2.6216,2.8841,3.0634,3.145,3.0883,2.9139,2.8793,2.7767,2.612,0.0,0.0,0.0,0.0,0.0,0.0,0.0,0.0,0.0,0.0,0.0,0.0,0.0,0.0,0.0,0.0,0.0,0.0,0.0,0.0,0.0,0.0,0.0,0.0,0.0,0.0,0.0,0.0,0.0,0.0,0.0,0.0,0.0,0.0,0.0,0.0,0.0,0.0,0.0,0.0,0.0,0.7188,0.744,0.0,0.0,0.0,0.0,0.0,0.0,0.0,0.0,0.0,0.0,0.0,0.0,0.0,0.5267,0.4696,0.5132,0.5275,0.515,0.6105,0.7062,0.798,0.9135,0.9407,0.9069,1.043,0.0,1.0165,1.051,0.0,0.0,0.0,0.0,0.0,0.0,0.0,0.0,0.0,0.0,0.0,0.0,0.0,0.0,0.0,0.0,0.0,0.0,0.0,0.0,0.0,1.4098,1.4927,1.525,1.6564,1.7462,1.7708,1.8748,0.0,0.0,0.0,2.0698,2.0635,2.185,2.3545,2.5642,2.9377,3.1757,3.2745,3.2929,3.232,3.0918,2.8656,2.6778,2.5068,2.2054,0.0,0.0,0.0,0.0,0.0,0.0,0.0,0.0,0.0,0.0,0.0,0.0,0.0,0.0,0.0,0.0,0.0,0.0,0.0,0.0,0.0,0.0,0.0,0.0,0.0,0.0,0.0,0.0,0.0,0.0,0.0,0.0,0.0,0.0,0.0,0.0,0.0,0.0,0.0,0.8101,0.8666,0.8706,0.8739,0.8609,0.0,0.0,0.0,0.0,0.0,0.0,0.0,0.0,0.0,0.7441,0.7275,0.6967,0.6529,0.7088,0.7383,0.7415,0.8244,0.9029,0.973,1.0734,1.0866,1.0392,1.1947,1.2189,1.1437,1.1288,1.153,1.2024,0.0,0.0,0.0,0.0,1.4949,1.5552,0.0,0.0,0.0,0.0,0.0,0.0,0.0,0.0,0.0,0.0,0.0,0.0,1.4162,1.5105,1.5888,1.6431,1.7591,1.8281,1.8291,1.9226,1.9974,2.0499,2.0639,2.0919,2.1334,2.2698,2.4977,2.8254,3.1429,3.3248,3.3838,3.3477,3.2665,3.1302,2.8169,2.5924,2.4346,2.1203,1.8411,1.5889,0.0,0.0,0.0,0.0,0.0,0.0,0.0,0.0,0.0,0.0,0.0,0.0,0.0,0.0,0.0,0.0,0.0,0.0,0.0,0.0,0.0,0.0,0.0,0.0,0.0,0.0,0.0,0.0,0.0,0.0,0.0,0.0,0.0,0.0,0.0,0.0,0.0,0.9392,0.9788,0.9761,0.9866,0.9728,0.0,0.0,0.0,0.0,0.0,0.0,0.8898,0.8774,0.8748,0.8842,0.872,0.8532,0.8299,0.8816,0.9179,0.9306,0.9881,1.0446,1.1013,1.1801,1.1806,1.1261,1.2808,1.2985,1.2212,1.2073,1.2506,1.3254,1.3553,1.4067,1.4796,1.592,1.6474,1.679,0.0,0.0,0.0,0.0,0.0,0.0,0.0,0.0,0.0,0.0,0.0,1.4044,1.4708,1.6218,1.7116,1.697,1.8418,1.9002,1.832,1.894,1.9712,2.0565,1.9833,2.0058,2.146,2.4233,2.6886,2.9386,3.0826,3.1903,3.2579,3.2004,3.0706,2.8778,2.6837,2.5613,2.4798,2.0615,1.7655,1.5455,1.2082,0.0,0.0,0.0,0.0,0.0,0.0,0.0,0.0,0.0,0.0,0.0,0.0,0.0,0.0,0.0,0.0,0.0,0.0,0.0,0.0,0.0,0.0,0.0,0.0,0.0,0.0,0.0,0.0,0.0,0.0,0.0,0.0,0.0,0.0,0.0,0.0,0.0,0.0,1.0133,0.995,0.0,0.0,0.0,0.0,0.9579,0.9566,0.9889,1.0718,1.015,1.004,1.0541,0.9788,0.9429,0.9609,0.9636,0.9905,1.0409,1.0343,1.0704,1.1473,1.1825,1.1719,1.1267,1.2749,1.2971,1.2363,1.3489,1.393,1.4043,1.5693,1.6227,1.6289,1.7867,1.8342,1.8337,0.0,0.0,0.0,0.0,0.0,0.0,0.0,0.0,1.0274,1.0489,1.2709,1.4572,1.5299,1.6702,1.7692,1.7973,1.8426,1.8688,1.8613,1.8661,1.9119,1.9993,1.9877,2.0529,2.2051,2.4312,2.6247,2.7872,2.9612,3.0988,3.1991,3.1271,2.9994,2.8187,2.5714,2.3676,2.1924,1.9339,1.6591,1.3785,1.1194,0.8585,0.0,0.0,0.0,0.0,0.0,0.0,0.0,0.0,0.0,0.0,0.0,0.0,0.0,0.0,0.0,0.0,0.0,0.0,0.0,0.0,0.0,0.0,0.0,0.0,0.0,0.0,0.0,0.0,0.0,0.0,0.0,0.0,0.0,0.0,0.0,0.0,0.0,1.1475,1.1637,0.0,1.1082,1.0747,1.0453,1.0222,1.0079,1.0096,1.0371,1.0338,1.0463,1.0768,1.0726,1.0712,1.0786,1.1029,1.1264,1.1543,1.2093,1.2588,1.3057,1.3361,1.3399,1.3248,1.3357,1.354,1.3743,1.4099,1.4315,1.4626,1.6091,1.6718,1.6936,1.8301,1.8599,1.8396,0.0,0.0,0.0,0.0,0.0,0.0,0.0,0.0,1.0548,1.1143,1.3233,1.4998,1.5883,1.703,1.7935,1.8511,1.8435,1.8329,1.8266,1.8254,1.8573,1.9316,2.0067,2.1083,2.2346,2.3984,2.5479,2.6788,2.8337,2.944,3.0083,2.9466,2.8298,2.6631,2.4343,2.1988,1.969,1.8246,1.5974,1.3178,1.0931,0.8609,0.6298,0.0,0.0,0.0,0.0,0.0,0.0,0.0,0.0,0.0,0.0,0.0,0.0,0.0,0.0,0.0,0.0,0.0,0.0,0.0,0.0,0.0,0.0,0.0,0.0,0.0,0.0,0.0,0.0,0.0,0.0,0.0,0.0,0.0,0.0,1.1572,1.1861,1.2256,1.251,1.2467,1.2087,1.174,1.1335,1.0999,1.0672,1.0516,1.0538,1.0776,1.1046,1.1355,1.1607,1.1831,1.2018,1.2313,1.2531,1.2717,1.3455,1.3961,1.4226,1.4432,1.4593,1.4697,1.4223,1.4308,1.4742,1.4873,1.519,1.5631,1.6686,1.7345,1.77,1.8788,1.8996,1.8868,0.0,0.0,0.0,0.0,0.0,0.0,0.0,0.9796,1.0863,1.2106,1.3814,1.5338,1.6466,1.721,1.7908,1.8422,1.8433,1.8065,1.7243,1.7624,1.8104,1.8557,2.032,2.16,2.228,2.3326,2.468,2.6319,2.7037,2.719,2.679,2.6354,2.533,2.3853,2.2539,2.0673,1.8343,1.7444,1.5799,1.3703,1.1336,0.92,0.7134,0.0,0.0,0.0,0.0,0.0,0.0,0.0,0.0,0.0,0.0,0.0,0.0,0.0,0.0,0.0,0.0,0.0,0.0,0.0,0.0,0.0,0.0,0.0,0.0,0.0,0.0,0.0,0.0,0.0,0.0,0.0,0.0,0.0,1.0676,1.1568,1.2361,1.2467,1.2467,1.251,1.2595,1.2088,1.1794,1.1935,1.1432,1.1217,1.1405,1.1496,1.1844,1.2508,1.2481,1.2729,1.329,1.3428,1.3668,1.3915,1.4263,1.4623,1.4939,1.5027,1.5211,1.5413,1.5413,1.5404,1.5428,1.6032,1.658,1.7011,1.7599,1.813,1.8594,1.9451,1.9726,1.9743,0.0,0.0,0.0,0.0,0.0,0.0,0.0,1.0366,1.1274,1.1886,1.3664,1.5182,1.602,1.6888,1.7503,1.7666,1.6964,1.6594,1.6803,1.6072,1.6337,1.8025,1.9867,2.1197,2.184,2.2889,2.3621,2.4093,2.4766,2.5004,2.4774,2.3671,2.2603,2.1485,2.0156,1.8543,1.6716,1.6065,1.4968,1.3434,1.1519,0.9519,0.7493,0.0,0.0,0.0,0.0,0.0,0.0,0.0,0.0,0.0,0.0,0.0,0.0,0.0,0.0,0.0,0.0,0.0,0.0,0.0,0.0,0.0,0.0,0.0,0.0,0.0,0.0,0.0,0.0,0.0,0.0,0.0,1.1694,1.2621,1.3455,1.3324,1.3233,1.3549,1.3478,1.334,1.3202,1.2813,1.2588,1.2632,1.2066,1.1858,1.2113,1.2173,1.2365,1.2685,1.3158,1.3496,1.3677,1.3941,1.4162,1.4334,1.5074,1.5558,1.5876,1.6427,1.7103,1.7843,1.8138,1.8483,1.8826,1.8949,1.868,1.8166,1.8422,1.878,1.9213,1.9878,1.9975,1.9756,0.0,0.0,0.0,0.0,0.0,0.0,0.0,1.0632,1.1559,1.2476,1.3736,1.4928,1.5903,1.6344,1.6602,1.6628,1.5854,1.5402,1.5442,1.5327,1.6071,1.7944,1.9351,2.0343,2.0887,2.1471,2.2007,2.2444,2.2439,2.2348,2.2136,2.0706,1.966,1.8986,1.7954,1.6909,1.5896,1.5427,1.464,1.357,1.2423,1.0847,0.9028,0.7842,0.6589,0.5311,0.4258,0.3618,0.329,0.3213,0.0,0.0,0.0,0.0,0.0,0.0,0.0,0.0,0.0,0.0,0.0,0.0,0.0,0.0,0.0,0.0,0.0,0.0,0.0,0.0,0.0,0.0,0.0,0.0,1.2792,1.3591,1.4676,1.4315,1.3906,1.3999,1.3926,1.3858,1.3742,1.3345,1.3118,1.3276,1.2806,1.2597,1.2838,1.3035,1.319,1.3263,1.3873,1.4224,1.4248,1.4775,1.5098,1.5249,1.5925,1.6395,1.6642,1.7122,1.7846,1.8768,1.9001,1.942,1.9903,1.9876,1.9651,0.0,0.0,0.0,0.0,0.0,2.015,1.9904,0.0,0.0,0.0,0.0,0.0,0.0,0.0,1.0788,1.1776,1.342,1.3926,1.4566,1.5905,1.5711,1.5496,1.5536,1.5051,1.4462,1.3766,1.5128,1.657,1.7923,1.8694,1.9311,1.9801,1.9855,2.0361,2.1251,2.0355,1.9781,1.9415,1.7805,1.691,1.6712,1.6114,1.5735,1.5511,1.5291,1.4693,1.3874,1.3727,1.2695,1.112,1.0351,0.9338,0.8211,0.7205,0.626,0.5443,0.5164,0.0,0.0,0.0,0.0,0.0,0.0,0.0,0.0,0.0,0.0,0.0,0.0,0.0,0.0,0.0,0.0,0.0,0.0,0.0,0.0,0.0,0.0,0.0,0.0,1.3474,1.4204,1.4829,1.4713,1.4435,1.4114,1.402,1.4067,1.4186,1.3707,1.3517,1.385,1.3537,1.3437,1.3643,0.0,0.0,0.0,0.0,1.5019,1.5051,1.5771,1.6197,1.6382,1.6747,1.7052,1.7256,1.7377,1.7937,1.8835,1.8851,1.921,1.9761,1.9761,2.0073,2.0459,2.0032,2.0225,2.0767,2.0467,2.0258,2.0181,0.0,0.0,0.0,0.0,0.0,0.0,0.0,1.1552,1.2093,1.3217,1.3726,1.4198,1.4893,1.4933,1.4923,1.504,1.4361,1.3851,1.3651,1.4954,1.6068,1.6802,1.7822,1.8882,1.9866,2.0258,2.0416,2.0363,1.983,1.9219,1.8434,1.6334,1.5466,1.568,1.5047,1.4675,1.4523,1.5002,1.4724,1.4027,1.4582,1.3923,1.2582,1.2469,1.1893,1.1056,1.0469,1.0019,0.9675,0.9346,0.9017,0.8694,0.8558,0.8103,0.0,0.0,0.0,0.0,0.0,0.0,0.0,0.0,0.0,0.0,0.0,0.0,0.0,0.0,0.0,0.0,0.0,0.0,0.0,1.3626,1.3909,1.4312,1.4989,1.4687,1.4467,1.4463,1.428,1.414,1.4067,1.4007,1.4082,1.4288,1.4159,1.4209,1.4528,1.4774,1.5044,1.5317,1.5981,1.6231,1.6024,1.6668,1.6884,1.6727,0.0,0.0,1.7519,1.7542,1.8325,1.9672,1.9664,2.0324,2.1454,2.1454,2.1345,2.1175,2.0926,2.0766,2.073,2.0628,2.0626,2.0559,0.0,0.0,0.0,0.0,0.0,0.0,0.0,1.1687,1.2356,1.3083,1.3594,1.4076,1.4557,1.4346,1.4236,1.4312,1.368,1.3503,1.396,1.4689,1.5304,1.5734,1.6636,1.7345,1.785,1.8675,1.8972,1.8736,1.8551,1.8042,1.724,1.4849,1.4094,1.4666,1.4002,1.3825,1.4111,1.5154,1.5234,1.4708,1.5811,1.5838,1.5237,1.5109,1.4541,1.3807,1.3428,1.2808,1.2172,1.1608,1.118,1.082,1.0606,1.0156,0.962,0.0,0.0,0.0,0.0,0.0,0.0,0.0,0.0,0.0,0.0,0.0,0.0,0.0,0.0,1.4439,1.4406,0.0,1.4226,1.4579,1.4623,1.4871,1.5626,1.5505,1.5257,1.5001,1.4562,1.429,1.4323,1.4591,1.473,1.4603,1.5017,1.5262,1.531,1.5761,1.6087,1.6262,1.694,1.7228,1.7111,1.773,1.8042,1.8022,1.7895,1.8178,1.879,1.8444,1.9157,2.0654,2.0628,2.113,2.1998,2.1886,2.1875,2.1954,2.1564,2.1247,2.0957,2.0861,2.0828,2.0794,0.0,0.0,0.0,0.0,0.0,0.0,0.0,1.1594,1.238,1.2806,1.3383,1.3788,1.3964,1.3791,1.3618,1.3483,1.3163,1.3323,1.4037,1.4132,1.4306,1.4675,1.5344,1.572,1.5754,1.6839,1.7465,1.7534,1.7274,1.6873,1.6287,1.3702,1.3004,1.3849,1.3206,1.3259,1.4031,1.5476,1.5778,1.54,1.6928,1.7488,1.7512,1.7594,1.7115,1.6264,1.5811,1.49,1.385,1.3281,1.2807,1.2359,1.2319,1.2113,1.1652,1.0765,1.0704,0.0,0.0,0.0,0.0,0.0,0.0,0.0,0.0,1.3989,1.4943,1.4996,1.5804,1.6291,1.573,1.5513,1.5443,1.5492,1.5394,1.5549,1.639,1.6508,1.6322,1.5791,1.5208,1.4801,1.4752,1.5226,1.5415,1.4991,1.5776,1.6172,1.5937,1.6607,1.7072,1.7122,1.7851,1.8214,1.8154,1.8838,1.9215,1.9284,1.8989,1.9278,2.0086,1.9525,2.0065,2.1464,2.1498,2.18,2.2169,2.2019,2.2269,2.2699,2.2302,2.1884,2.1535,2.1246,2.1086,2.0991,0.0,0.0,0.0,0.0,0.0,0.0,0.0,0.0,1.1774,1.2216,1.2791,1.2907,1.2106,1.292,1.3276,1.2695,1.3082,1.3234,1.2994,1.2936,1.3137,1.3643,1.4016,1.4679,1.5604,1.6345,1.7147,1.8005,1.6821,1.6237,1.6163,1.3426,1.2649,1.3542,1.3014,1.3282,1.4154,1.5654,1.5974,1.5674,1.7315,1.7747,1.7689,1.9368,1.9211,1.797,1.7127,1.6092,1.5129,1.5313,1.4608,1.3828,1.4695,1.4209,1.3163,1.2519,1.1848,1.1305,1.1316,1.1734,1.2224,1.2295,1.2507,1.324,0.0,1.5595,1.5835,1.7272,1.7315,1.7098,1.7074,1.6607,1.6182,1.6182,1.6104,1.6232,1.6856,1.7156,1.7364,1.7347,1.6706,1.5992,1.5264,1.6042,1.6249,1.5581,1.6174,1.6539,1.6417,1.7047,1.768,1.8299,1.9001,1.9316,1.9052,1.9839,1.9984,1.9551,1.9925,2.0182,2.0357,2.036,2.0798,2.1591,2.2176,2.2439,2.2466,2.2824,2.307,2.3234,2.3616,2.3385,2.2781,2.1939,2.1526,2.1339,0.0,0.0,0.0,0.0,0.0,0.0,0.0,0.0,0.0,1.2177,1.2678,1.2784,1.2197,1.2724,1.2884,1.2163,1.2654,1.2762,1.226,1.2173,1.2084,1.2066,1.2148,1.2096,1.1958,1.3794,1.4654,1.4364,1.5607,1.596,1.5388,1.3264,1.253,1.3,1.2443,1.2708,1.3634,1.5681,1.6666,1.7015,1.8479,1.9232,1.9449,2.0415,2.0369,1.9616,1.8363,1.7513,0.0,1.6121,1.5537,1.5207,1.566,1.5013,1.4101,1.3988,1.3693,1.363,1.4397,1.4277,1.4014,1.4565,1.4917,1.5368,1.6268,1.7008,1.7688,1.824,1.8561,1.8509,1.7967,1.7668,1.7416,1.7213,1.7213,1.745,1.8067,1.819,1.8372,1.871,1.8287,1.7501,1.6327,1.6751,1.6788,1.6054,1.7099,1.7451,1.6701,1.7697,1.8425,1.8731,1.9485,2.0001,2.0256,2.0854,2.1197,2.1231,2.1054,2.129,2.1863,2.1485,2.1718,2.2374,2.2609,2.2676,2.2576,2.3129,2.3646,2.4083,2.4264,2.4435,2.4339,2.295,2.2132,2.1675,0.0,0.0,0.0,0.0,0.0,0.0,0.0,0.0,0.0,0.0,1.2652,1.2832,1.2512,1.2436,1.2195,1.1609,1.2096,1.2173,1.1551,1.1408,1.1148,1.0749,1.048,0.9862,0.8835,1.1517,1.2468,1.1646,1.4374,1.5327,1.4543,1.2945,1.2224,1.2276,1.1713,1.2141,1.3351,1.5465,1.6943,1.799,1.953,2.0425,2.084,2.1095,2.1109,2.0825,1.9227,1.8405,1.7874,1.6777,1.6262,1.6108,1.651,1.5886,1.5062,1.5478,1.5577,1.5727,1.6426,1.613,1.5715,1.6266,1.6645,1.693,1.7027,1.7946,1.8759,1.8755,1.9228,1.9428,1.8751,1.8576,1.8449,1.8163,1.8267,1.8514,1.8951,1.8946,1.9004,1.9377,1.912,1.8473,1.741,1.7584,1.7486,1.667,1.763,1.7912,1.7041,1.8069,1.8791,1.9035,1.9803,2.0496,2.1055,2.1554,2.2061,2.248,2.2091,2.2279,2.2977,2.2492,2.2503,2.2987,2.3119,2.3145,2.3081,2.3876,2.4535,2.5012,2.5186,2.5399,2.5473,2.4298,2.3331,2.2601,0.0,0.0,0.0,0.0,0.0,0.0,0.0,0.0,0.0,0.0,0.0,0.0,0.0,1.1803,1.1185,1.1022,1.1449,1.1467,1.0855,1.0578,1.0322,1.0044,0.9302,0.8481,0.7689,1.0081,1.1419,1.151,1.334,1.4136,1.3801,1.2368,1.1535,1.122,1.0884,1.175,1.3589,1.4953,1.65,1.8157,2.0017,2.0961,2.122,2.1557,2.1693,2.1404,1.9478,1.8287,1.76,1.7505,1.6871,1.6399,1.7583,1.7015,1.6134,1.7046,1.7299,1.7105,1.6191,1.6524,1.7026,1.6433,1.674,1.731,1.7859,1.808,1.8401,1.9064,1.9186,1.9263,1.9344,1.9267,1.9109,1.8975,1.8975,1.8975,1.8999,1.9081,1.9096,1.8933,1.8784,1.861,1.8302,1.8683,1.8473,1.7338,1.7434,1.7496,1.7474,1.8016,1.8616,1.9369,2.0089,2.0731,2.1308,2.182,2.2281,2.2668,2.2825,2.2943,2.3175,2.3175,2.3151,2.3112,2.3832,2.413,2.4155,2.5478,2.601,2.6113,2.6681,2.6544,2.5987,2.5953,2.5285,2.4354,0.0,0.0,0.0,0.0,0.0,0.0,0.0,0.0,0.0,0.0,0.0,0.0,0.0,0.0,0.0,0.0,1.0945,1.0964,1.0246,0.9607,0.922,0.908,0.7866,0.6657,0.5497,0.8211,0.9366,0.8772,1.1694,1.3026,1.2787,1.1183,1.014,0.9574,0.8923,0.9597,1.138,1.3425,1.5621,1.7879,1.9871,2.109,2.1685,2.2062,2.1957,2.1433,0.0,1.9872,1.9173,1.8323,1.7886,1.7671,1.7697,1.6963,1.6318,1.7359,1.8183,1.8796,1.9108,1.8906,1.8642,1.8982,1.8537,1.8248,1.8604,1.8732,1.8782,1.8898,1.9158,1.9368,1.9368,1.95,1.9728,2.0207,2.001,1.9936,2.0366,2.0522,2.0475,2.0041,2.0297,2.0092,1.9195,1.8729,1.8188,1.756,1.8175,1.8218,1.733,1.8663,1.9508,1.9666,2.0398,2.0991,2.1491,2.1998,2.2398,2.2694,2.2927,2.3102,2.3283,2.3283,2.3506,2.3985,2.4181,2.4524,2.4968,2.5901,2.6323,2.6363,2.7065,2.7168,2.6922,2.6407,2.6368,2.6363,0.0,0.0,0.0,0.0,0.0,0.0,0.0,0.0,0.0,0.0,0.0,0.0,0.0,0.0,0.0,0.0,0.0,1.0276,0.9667,0.8879,0.8381,0.8322,0.6755,0.5119,0.3483,0.59,0.6862,0.6169,0.9577,1.1333,1.1451,1.0145,0.9042,0.808,0.7384,0.7989,0.9663,1.1806,1.4369,1.72,1.9412,2.0966,2.201,2.2452,2.2426,0.0,2.1796,2.1412,2.0833,1.9253,1.8772,1.8752,1.8334,1.7993,1.7876,1.8552,1.9512,2.0446,2.1036,2.0636,2.0049,2.0361,1.9743,1.9095,1.9298,1.9118,1.8963,1.8854,1.8959,1.9158,1.9263,1.9473,1.9935,2.0777,2.0654,2.0707,2.1172,2.1329,2.1198,2.0512,2.0591,2.0302,1.9357,1.861,1.8104,1.786,1.8675,1.8765,1.786,1.8998,1.9797,2.0054,2.0599,2.115,2.1672,2.2118,2.246,2.2721,2.2977,2.3267,2.3598,2.3598,2.3995,2.4743,2.4998,2.533,2.5799,2.651,2.6824,2.6889,2.7347,2.7557,2.7517,2.7028,2.7192,2.749,0.0,0.0,0.0,0.0,0.0,0.0,0.0,0.0,0.0,0.0,0.0,0.0,0.0,0.0,0.0,0.0,0.0,0.0,0.9182,0.8292,0.774,0.7659,0.5874,0.3893,0.1769,0.3449,0.4296,0.4118,0.7297,0.923,0.9925,0.9311,0.8238,0.6782,0.6249,0.6878,0.8455,1.0114,1.2755,1.6042,1.8666,2.0653,2.2182,2.2778,2.3267,2.3522,2.3044,2.2798,2.2341,2.0332,1.971,1.9744,1.9638,2.0116,2.0637,2.0591,2.1297,2.2008,2.1889,2.1605,2.1188,2.0658,2.0181,1.9843,1.9736,1.9241,1.8827,1.8827,1.8635,1.8632,1.885,1.9186,1.9775,2.0724,2.1038,2.1275,2.1564,2.159,2.127,2.0442,1.9879,1.936,1.8913,1.8617,1.8398,1.8398,0.0,1.9058,1.8988,1.9075,1.9581,2.053,2.0797,2.1243,2.1882,2.218,2.2487,2.2808,2.3012,2.3482,2.4095,2.4138,2.4619,2.5387,2.6184,2.6498,2.6603,2.7302,2.7677,2.7701,2.7647,2.7677,2.773,2.7789,2.7818,2.7683,0.0,0.0,0.0,0.0,0.0,0.0,0.0,0.0,0.0,0.0,0.0,0.0,0.0,0.0,0.0,0.0,0.0,0.0,0.8585,0.7107,0.6058,0.5649,0.4163,0.3025,0.2297,0.4209,0.5386,0.5718,0.8178,0.9285,0.9027,0.8415,0.7225,0.5521,0.4852,0.5222,0.6472,0.8741,1.1603,1.4809,1.7738,2.0141,2.2098,2.2778,2.3349,2.3712,2.3933,2.371,2.3183,2.2367,2.1946,2.1647,2.1444,2.1766,2.2165,2.216,2.2821,2.3501,2.3226,2.2386,2.1725,2.1967,2.0562,1.9238,1.9727,1.8834,1.7855,1.7664,1.7762,1.7763,1.749,1.8992,2.0382,2.0881,2.1692,2.2299,2.2432,2.2722,2.242,2.0988,2.1437,2.1411,2.0188,1.9946,1.9698,1.9376,1.9098,1.919,1.9693,1.9756,2.0124,2.0921,2.1087,2.143,2.1882,2.226,2.2542,2.2755,2.3335,2.3796,2.412,2.4622,2.5338,2.6219,2.6394,2.6842,2.7426,2.7695,2.7853,2.794,2.7968,2.7996,2.8081,2.8109,2.8101,2.8156,0.0,0.0,0.0,0.0,0.0,0.0,0.0,0.0,0.0,0.0,0.0,0.0,0.0,0.0,0.0,0.0,0.0,0.0,0.0,0.6168,0.423,0.4023,0.1564,0.0403,0.0764,0.2281,0.4063,0.6122,0.7778,0.8855,0.9385,0.8516,0.7222,0.5578,0.4733,0.485,0.5874,0.7992,1.0595,0.0,0.0,1.9282,2.1492,2.2786,2.3705,2.4392,2.4888,2.5157,2.5226,2.4497,2.3835,2.3274,2.313,2.3259,2.3497,2.3755,2.4107,2.4367,2.4255,2.3382,2.248,2.2539,2.1076,1.9682,1.97,1.8759,1.7686,1.7217,1.7094,1.7046,1.6819,1.8274,1.98,2.083,2.1875,2.2617,2.3017,2.328,2.292,2.1621,2.178,2.1702,2.0919,2.0681,2.0512,2.0333,1.9662,1.9457,1.9966,2.0106,2.0429,2.1054,2.1278,2.1587,2.2032,2.2287,2.2515,2.2623,2.3344,2.3949,2.4475,2.5148,2.5967,2.6839,0.0,2.7203,2.7642,2.783,2.7975,2.8081,2.8144,2.8191,2.8273,2.8327,2.8353,2.8406,0.0,0.0,0.0,0.0,0.0,0.0,0.0,0.0,0.0,0.0,0.0,0.0,0.0,0.0,0.0,0.0,0.0,0.0,0.0,0.0,0.2639,0.245,-0.0942,-0.2362,-0.1363,-0.0069,0.2486,0.6352,0.7313,0.8671,1.0335,0.9185,0.7794,0.6277,0.5296,0.5235,0.5964,0.7669,0.9898,1.2564,1.552,1.8264,2.0772,0.0,2.3958,2.5053,2.5521,2.6489,2.7457,2.6294,2.5582,2.5113,2.4941,2.4841,2.4883,2.5289,2.5222,2.5017,2.497,2.4227,2.3247,2.2552,2.1481,2.0353,1.9483,1.8557,1.7649,1.6954,1.6576,1.6337,1.6466,1.7449,1.8802,2.0525,2.1666,2.2565,2.3223,2.3327,2.299,2.2074,2.1509,2.1293,2.1428,2.1069,2.0963,2.1129,2.0338,1.9918,2.0127,2.025,2.0563,2.1023,2.1471,2.1944,2.2353,2.2564,2.2711,2.2767,2.3511,2.4286,2.506,2.5757,2.6505,2.7313,2.7373,0.0,2.7647,2.7859,2.8032,2.8227,2.8362,2.8407,2.8468,2.8619,2.8608,2.8562,0.0,0.0,0.0,0.0,0.0,0.0,0.0,0.0,0.0,0.0,1.541,1.4812,0.0,0.0,0.0,0.0,0.0,0.0,0.0,0.0,0.0,0.0109,-0.0925,-0.1304,-0.1003,0.2521,0.5746,0.8622,0.9852,1.0528,1.0591,0.9734,0.8268,0.6357,0.5549,0.5343,0.5697,0.7599,0.9956,1.2566,1.476,1.753,2.045,2.1116,0.0,0.0,2.5057,2.6179,2.7068,2.6834,2.7548,2.8379,2.713,2.7107,2.7378,2.6736,2.6381,2.6001,2.5152,2.4251,2.3202,2.2168,2.0733,1.946,1.87,1.7526,1.6476,1.6018,1.5879,1.5745,1.5452,1.7074,1.8733,1.9557,2.1013,2.2188,2.262,2.2848,2.2671,2.1951,2.1946,2.203,2.203,2.1238,2.0893,2.1222,2.0831,2.061,2.0825,2.0562,2.066,2.1215,2.2375,2.3023,2.3189,2.3832,2.412,2.4184,2.4958,2.5462,2.576,2.6478,2.7017,2.7373,2.7434,0.0,2.7859,2.8032,2.8136,2.8371,2.9125,2.9088,2.8634,2.9362,2.9232,2.8687,0.0,0.0,0.0,0.0,0.0,0.0,0.0,1.5333,1.5502,1.521,1.4968,1.4688,1.4361,1.3689,1.2914,0.0,0.0,0.0,0.0,0.0,0.0,0.0,-0.272,-0.1951,0.0,0.3352,0.677,1.0249,0.0,1.1649,1.1858,1.0834,0.9579,0.8181,0.7369,0.7311,0.7874,0.8965,1.0864,1.3289,1.4903,1.7264,1.9959,0.0,0.0,0.0,2.5076,2.6155,2.72,2.6881,2.7876,2.9055,2.7802,2.7594,2.7698,2.7166,2.687,2.6625,2.5912,2.4831,2.3766,2.3053,2.1309,1.9468,1.8582,1.7457,1.6383,1.5707,1.5614,1.5545,1.5335,1.6644,1.7968,1.8818,2.0048,2.1274,2.2131,2.2332,2.2365,2.2292,2.2356,2.2449,2.254,2.2176,2.209,2.2431,2.2013,2.1628,2.1228,2.137,2.1748,2.2374,2.3194,2.3553,2.3423,2.4041,2.45,2.4833,2.5302,2.5603,2.5834,2.6616,2.7154,2.7407,2.7434,0.0,2.7824,2.7996,2.8164,2.8398,2.9376,2.9554,2.9388,3.0305,3.0403,3.0002,0.0,0.0,0.0,0.0,0.0,0.0,0.0,1.5382,1.5566,1.4838,1.4528,1.4449,1.4605,1.3841,1.3019,0.0,0.0,0.0,0.0,0.0,0.0,0.0,0.0,0.0,0.1293,0.0,0.0,1.1414,1.2024,0.0,0.0,0.0,0.0,0.0,0.9301,0.9331,0.9969,1.061,1.2011,0.0,0.0,1.7124,1.9368,0.0,0.0,0.0,0.0,2.5505,2.6515,2.6197,2.6924,2.7852,2.7115,2.7187,2.7462,2.7159,2.7055,2.6922,2.6509,2.5437,2.4319,2.3766,2.1766,1.9681,1.8642,1.743,1.6365,1.5695,1.5463,1.544,1.5579,1.6296,1.7169,1.8206,1.9133,2.0174,2.1564,2.1834,2.2094,2.2603,2.2678,2.2723,2.2949,2.2922,2.301,2.3344,2.313,2.2631,2.1729,2.2311,2.2946,2.3509,2.4081,2.4216,2.3951,2.4413,2.4942,2.5443,2.5575,2.5807,2.5973,2.6717,2.7152,2.7407,2.7434,0.0,0.0,2.8025,2.8219,2.8425,2.9429,2.9886,3.0035,3.1041,3.1359,3.1286,0.0,0.0,0.0,0.0,0.0,0.0,0.0,1.5876,1.5932,1.5844,1.4805,1.4131,1.4312,1.2613,1.1437,0.0,0.0,0.0,0.0,0.0,0.0,0.0,0.0,0.0,0.0,0.0,0.0,1.2089,1.3176,0.0,0.0,0.0,0.0,0.0,0.0,1.0135,1.02,1.1814,0.0,0.0,0.0,0.0,0.0,0.0,0.0,0.0,0.0,2.3309,2.363,2.4415,2.4543,2.4385,2.4576,2.6081,2.7705,2.7045,2.6899,2.6886,2.6192,2.5471,2.451,2.3091,2.131,1.9564,1.8218,1.6854,1.5803,1.5796,1.5353,1.5229,1.5816,1.62,1.6704,1.7771,1.8385,1.9249,2.0781,2.1372,2.1883,2.2529,2.2768,2.2949,2.3083,2.2586,2.2448,2.2866,2.3372,2.3342,2.2524,2.3255,2.3761,2.3919,2.5133,2.5737,2.5661,2.6011,2.6319,2.6556,2.6589,2.6689,2.6888,2.7117,2.7244,2.7404,2.7582,0.0,0.0,2.8191,2.8327,2.8478,2.9481,2.9937,3.0111,3.1041,3.1434,3.1507,0.0,0.0,0.0,0.0,0.0,0.0,1.5499,1.6046,1.6168,1.524,1.469,1.4214,1.3634,1.234,1.1542,1.1698,0.0,0.0,0.0,0.0,0.0,0.0,0.0,0.0,0.0,0.0,1.1455,1.2305,1.3451,0.0,0.0,0.0,0.0,0.0,0.0,1.2387,1.2689,1.2667,0.0,0.0,0.0,0.0,0.0,0.0,0.0,0.0,0.0,0.0,2.2027,2.2341,2.2643,2.2857,2.2804,2.3741,2.5043,2.5868,2.6549,2.7019,2.6733,2.5883,2.4926,2.4086,2.196,1.9844,1.8897,1.717,1.5885,1.6096,1.5673,1.5452,1.6164,1.6522,1.6897,1.7427,1.7792,1.8464,1.9666,2.0077,2.0741,2.2076,2.2396,2.2717,2.3275,2.3098,2.3165,2.3671,2.42,2.4428,2.4296,2.458,2.4862,2.5037,2.5586,2.5964,2.6206,2.6382,2.652,2.6588,2.6826,2.6957,2.7024,2.7215,2.7373,2.7526,2.7642,0.0,0.0,2.8282,2.838,2.8504,2.961,3.0027,3.0259,3.1716,3.2244,3.2244,0.0,0.0,0.0,0.0,0.0,1.5769,1.5505,1.6145,1.6263,1.5043,1.4765,1.439,1.3474,1.2613,1.212,1.2273,1.1281,0.0,0.0,0.0,0.0,0.0,0.0,0.0,0.0,0.0,1.2553,1.2975,1.3804,1.4107,0.0,0.0,1.3653,1.3565,0.0,0.0,0.0,0.0,0.0,0.0,0.0,0.0,0.0,0.0,0.0,0.0,0.0,0.0,0.0,0.0,0.0,2.1028,2.0945,2.1427,2.2326,2.4315,2.5552,2.6287,2.6265,2.555,2.4751,2.4413,2.226,2.0014,1.9351,1.7434,1.5875,1.6128,1.572,1.552,1.6195,1.659,1.685,1.7131,1.7156,1.7625,1.8879,1.9179,1.9872,2.1511,2.1938,2.2443,2.3195,2.352,2.3897,2.4359,2.4846,2.5201,2.5476,2.5551,2.5663,2.5775,2.5921,2.6066,2.6347,2.652,2.6589,2.6657,2.7027,2.7156,2.7152,2.7438,2.7557,2.7677,2.7818,0.0,0.0,2.8327,2.8458,2.8593,2.9685,3.0247,3.0662,3.2232,3.2945,3.3192,0.0,0.0,0.0,0.0,0.0,0.0,1.6215,1.6328,1.6271,1.5854,1.5152,1.4529,1.4127,1.3442,1.2944,1.2908,1.1769,0.0,0.0,0.0,0.0,0.0,0.0,0.0,0.0,0.0,1.381,1.4279,1.4444,1.4742,1.5143,1.4026,1.382,1.4381,0.0,0.0,0.0,0.0,0.0,0.0,0.0,0.0,0.0,0.0,0.0,0.0,0.0,0.0,0.0,0.0,0.0,0.0,0.0,1.9294,2.0194,2.2613,2.3719,2.4176,2.4426,2.4143,2.3655,2.3444,2.1795,2.0041,1.9333,1.7286,1.5555,1.5674,1.541,1.5286,1.5805,1.6043,1.6425,1.7094,1.6466,1.6639,1.8618,1.8973,1.9489,2.0843,2.1585,2.2203,2.2664,2.3546,2.4245,2.4574,2.5045,0.0,2.5701,2.5994,2.6134,2.6026,2.6173,2.6279,2.6177,2.6522,2.6826,2.7095,2.7289,2.7411,2.7496,2.7701,2.7789,2.7818,2.8164,0.0,0.0,2.8448,2.8623,2.8782,2.971,3.0638,3.1483,3.2453,3.3389,3.4203,0.0,0.0,0.0,0.0,0.0,0.0,0.0,1.6696,1.6625,1.6095,1.5395,1.4798,1.4297,1.3534,1.3052,1.3034,1.244,0.0,0.0,0.0,0.0,0.0,0.0,0.0,0.0,0.0,1.4008,1.416,1.4794,1.4867,1.439,1.4497,1.4628,1.4885,1.4876,1.4862,0.0,0.0,0.0,0.0,0.0,0.0,1.3084,0.0,0.0,0.0,0.0,0.0,0.0,0.0,0.0,0.0,0.0,0.0,0.0,1.8958,2.069,2.2346,2.2491,2.2236,2.1833,2.163,2.0323,1.8979,1.8544,1.6792,1.5402,1.5689,1.5159,1.485,1.5504,1.5837,1.646,1.7784,1.7882,1.8198,1.9421,2.0164,2.0803,2.1296,2.2606,2.3447,2.3564,2.407,2.4441,2.4605,2.5084,2.5508,2.5807,2.6137,2.6314,2.6279,2.6418,2.6556,2.6759,2.6792,2.6959,2.7154,2.7313,2.7469,2.7587,2.773,2.7946,2.8159,0.0,0.0,0.0,2.8674,2.8737,2.8798,2.9245,2.9559,2.9899,3.108,3.2172,3.3231,0.0,0.0,0.0,0.0,0.0,0.0,0.0,1.715,1.7018,1.6431,1.5808,1.5134,1.4417,1.3716,1.3295,1.3175,1.2962,0.0,0.0,0.0,0.0,0.0,0.0,0.0,0.0,1.3727,1.4177,1.4667,1.4628,1.4576,1.4532,1.4678,1.4921,1.5184,1.5192,1.5145,0.0,0.0,0.0,0.0,0.0,0.0,1.1962,0.0,0.0,0.0,0.0,0.0,0.0,0.0,0.0,0.0,0.0,0.0,0.0,0.0,1.7892,1.9462,2.0335,2.0479,2.036,1.9962,1.9249,1.8403,1.7639,1.6388,1.5349,1.5312,1.4913,1.467,1.5144,1.5379,1.5928,1.7243,1.7441,1.7927,1.9353,2.0235,2.1028,2.181,2.3041,2.3836,2.3948,2.4029,2.4191,2.443,2.4525,2.4867,2.5563,2.5913,2.6253,2.6657,2.6725,2.6925,2.7152,2.712,2.7215,2.74,2.7557,2.7707,2.7853,2.7961,2.8136,2.838,0.0,0.0,0.0,2.8822,2.8894,2.8955,2.9435,2.9783,3.0198,3.1296,3.2374,3.3455,0.0,0.0,0.0,0.0,0.0,0.0,0.0,1.7612,1.7434,1.6829,1.6237,1.5553,1.4549,1.4005,1.3605,1.3362,0.0,0.0,0.0,0.0,0.0,0.0,0.0,0.0,1.3725,1.3769,1.4317,1.5476,1.4076,1.405,1.5301,1.4686,1.4697,1.5264,1.5337,1.5057,0.0,0.0,0.0,0.0,0.0,0.0,0.0,0.0,0.0,0.0,0.0,0.0,0.0,0.0,0.0,0.0,0.0,0.0,0.0,0.0,0.0,0.0,0.0,1.885,1.9012,1.8425,1.835,1.8028,1.6639,1.5992,0.0,1.467,1.4646,1.4796,1.4822,1.4865,1.5122,1.5937,1.5868,1.6501,1.8691,1.9531,2.0613,2.2518,2.315,2.3522,2.3826,2.3678,2.3686,2.4068,2.3546,2.3738,2.4944,2.5279,2.5942,2.6982,2.7049,2.7178,2.7434,2.7496,2.7617,2.773,2.794,2.8081,2.8219,2.8353,2.8458,0.0,0.0,0.0,0.0,2.8929,2.9035,2.9205,3.0079,3.0969,3.1861,3.2701,3.3657,3.4604,0.0,0.0,0.0,0.0,0.0,0.0,0.0,0.0,0.0,0.0,1.6481,1.5783,1.5097,1.4278,1.3713,0.0,0.0,0.0,0.0,0.0,0.0,0.0,0.0,0.0,1.3182,1.3875,1.428,1.4371,1.4278,1.4259,1.4315,1.4311,1.4449,1.4727,1.4891,1.4333,0.0,0.0,0.0,0.0,0.0,0.0,0.0,0.0,0.0,0.0,1.2964,1.3571,0.0,0.0,0.0,0.0,0.0,0.0,0.0,0.0,1.4834,1.499,1.577,0.0,1.671,1.6271,1.6295,1.6292,0.0,1.5422,1.5008,1.4699,1.4504,1.4587,1.5357,1.4988,1.5319,1.7516,1.787,1.8313,1.9576,2.1075,2.2618,2.4139,2.4461,2.4595,2.4587,2.4077,2.3802,2.3923,2.3586,2.3547,2.4083,2.4572,2.5285,2.6316,2.6561,2.7023,2.7612,2.7701,2.7818,2.7996,2.8164,2.8273,2.8353,2.8484,2.8587,0.0,0.0,0.0,2.8929,2.9089,2.9215,2.9333,3.0278,3.0905,3.14,3.2593,3.3727,3.4751,0.0,0.0,0.0,0.0,0.0,0.0,0.0,0.0,0.0,0.0,0.0,1.6018,1.4888,1.4332,0.0,0.0,0.0,0.0,0.0,0.0,0.0,0.0,0.0,1.3252,1.3543,1.3686,1.377,1.3708,1.3614,1.369,1.4003,1.4136,1.4342,1.4646,1.4532,1.4004,0.0,0.0,0.0,0.0,1.0236,0.0,0.0,0.0,0.0,0.0,1.2781,1.3571,0.0,1.4961,1.5566,1.5924,0.0,0.0,0.0,0.0,1.4741,1.4791,1.4947,1.5667,1.6348,1.6026,1.63,1.6528,1.5985,1.5524,1.508,1.4776,1.4615,1.4671,1.523,1.5068,1.5458,1.7272,1.7944,1.8997,2.0998,2.2546,2.384,2.4879,2.4798,2.4608,2.4523,2.3569,2.3011,2.3084,2.2659,2.2703,2.3357,2.4101,2.4842,2.5557,2.6667,2.743,2.7876,2.7961,2.8101,2.8327,2.8458,2.8562,2.8637,2.8737,2.881,0.0,0.0,0.0,2.9134,2.9222,2.953,3.0002,3.0516,3.1329,3.2255,3.2976,3.3941,3.487,0.0,0.0,0.0,0.0,0.0,0.0,0.0,0.0,0.0,0.0,0.0,0.0,0.0,0.0,0.0,0.0,0.0,0.0,0.0,0.0,0.0,0.0,1.3664,1.3528,1.419,1.3493,1.3235,1.3411,1.2916,1.3141,1.3976,1.4132,1.4452,1.4873,1.4357,1.4016,0.0,0.0,0.0,0.0,1.0428,0.0,0.0,0.0,0.0,0.0,0.0,0.0,0.0,1.4906,1.5638,1.6133,1.5363,0.0,0.0,0.0,0.0,0.0,1.5104,1.6159,1.7006,1.6369,1.6923,1.7337,1.6317,1.5766,1.5361,1.4893,1.4902,1.5023,1.517,1.5384,1.58,1.6572,1.7542,1.9269,2.2461,2.3601,2.442,2.5259,2.4714,2.4223,2.418,2.2869,2.2043,2.2144,2.1601,2.1727,2.2723,2.3691,2.4428,2.4862,2.6676,2.7769,2.7958,2.8228,2.8458,2.8637,2.8785,2.8955,2.9135,2.9205,2.9324,2.9503,0.0,0.0,2.9715,2.9725,3.0197,3.0968,3.1144,3.2144,3.3561,3.3695,3.4301,3.5001,0.0,0.0,0.0,0.0,0.0,0.0,0.0,0.0,0.0,0.0,0.0,0.0,0.0,0.0,0.0,0.0,0.0,0.0,0.0,0.0,0.0,1.6251,1.4347,1.3588,1.4208,1.393,1.3625,1.3413,1.3819,1.3957,1.3828,1.4478,1.5015,1.5365,1.4654,1.4258,1.4034,0.0,0.0,0.0,1.0364,0.0,0.0,0.0,0.0,0.0,0.0,0.0,0.0,1.469,1.5342,1.5613,1.5406,0.0,0.0,0.0,0.0,0.0,1.622,1.7598,1.7937,1.5524,1.59,1.6632,1.5711,1.5475,1.5385,1.5328,1.5299,1.5594,1.6427,1.6608,1.697,1.7946,1.8843,2.0319,2.2881,2.3439,2.4094,2.5464,2.4977,2.4518,2.4446,2.305,2.2213,2.2443,2.1888,2.1744,2.2224,2.2643,2.3295,2.4197,2.5447,2.655,2.7338,2.82,2.8687,2.8761,2.8952,2.9457,3.0153,3.022,3.0695,3.1392,0.0,3.1582,3.1603,3.1669,3.1804,3.2051,3.2883,3.3356,3.3752,3.4565,3.494,3.5107,0.0,0.0,0.0,0.0,0.0,0.0,0.0,0.0,0.0,0.0,0.0,0.0,0.0,0.0,0.0,0.0,0.0,0.0,0.0,0.0,1.6431,1.69,1.504,1.4302,1.4947,1.4489,1.4198,1.3936,1.4235,1.4523,1.4769,1.5061,1.5269,1.525,1.4542,1.4131,1.4023,1.3025,1.224,0.0,0.0,0.0,0.0,0.0,0.0,0.0,0.0,0.0,0.0,0.0,1.5184,1.5684,1.5568,0.0,0.0,0.0,0.0,0.0,1.5333,1.6837,1.7715,1.6275,1.7578,1.9027,1.8247,1.7632,1.7085,1.6632,1.6904,1.7238,1.7236,1.7691,1.8365,1.9272,2.0064,2.1087,2.2669,2.293,2.3354,2.4501,2.4012,2.3587,2.3418,2.2541,2.1954,2.2018,2.1814,2.1827,2.2113,2.2794,2.3308,2.351,2.502,2.6139,2.6705,2.7798,2.8535,2.8952,2.9178,2.9493,2.9927,3.0478,3.0951,3.1345,0.0,3.2084,3.2182,3.2184,3.2524,3.3072,3.3543,3.4033,3.4504,3.5005,3.5207,3.5239,0.0,0.0,0.0,0.0,0.0,0.0,0.0,0.0,0.0,0.0,0.0,0.0,0.0,0.0,0.0,0.0,0.0,0.0,0.0,0.0,1.7295,1.7577,1.6255,1.5697,1.5984,1.5154,1.4774,1.485,1.4996,1.5311,1.5811,1.5719,1.5544,1.5218,1.451,1.426,1.4204,1.3407,1.2705,0.0,0.0,0.0,0.0,0.0,0.0,0.0,0.0,0.0,0.0,0.0,0.0,0.0,0.0,0.0,0.0,1.4938,1.4361,1.4072,1.4716,1.6094,1.7359,1.7483,1.9176,2.0752,2.0479,1.9495,1.8587,1.8339,1.8623,1.8751,1.8067,1.8715,1.9596,2.0489,2.1045,2.1663,2.2475,2.2573,2.29,2.3687,2.3258,2.2797,2.2638,2.2106,2.1738,2.1678,2.1797,2.1969,2.2198,2.3021,2.3388,2.3063,2.4764,2.5888,2.6344,2.7469,2.8387,2.9178,2.937,2.9566,2.9869,3.0603,3.1148,3.1581,3.2203,3.2638,3.294,3.2958,3.3392,3.4053,3.4124,3.4573,3.5136,3.53,3.533,3.5345,0.0,0.0,0.0,0.0,0.0,0.0,0.0,0.0,0.0,0.0,0.0,0.0,0.0,0.0,0.0,0.0,0.0,0.0,0.0,0.0,1.9096,1.8968,1.8556,1.7954,1.7173,1.5782,1.5432,1.6172,1.6704,1.6784,1.6429,1.6299,1.5975,1.5556,1.505,1.4934,1.5008,1.3902,1.3234,1.273,1.1866,0.0,0.0,0.0,0.0,0.0,0.0,0.0,0.0,0.0,0.0,0.0,0.0,0.0,1.498,1.4571,1.3702,1.3417,1.5636,1.6546,1.7181,1.8598,1.9004,1.938,2.0533,1.9437,1.868,2.0262,1.9981,1.9416,1.9208,1.9801,2.058,2.145,2.1617,2.1882,2.2667,2.2828,2.3156,2.3982,2.3479,2.3042,2.2984,2.2285,2.1911,2.1969,2.2056,2.2198,2.246,2.279,2.3022,2.3175,2.4361,2.5439,2.6475,2.7516,2.8474,2.9373,2.9511,3.0039,3.0885,3.0941,3.1864,3.3412,3.3505,3.4053,3.4831,3.4864,3.4954,3.4992,3.513,3.5216,3.53,3.5427,3.5493,3.5507,0.0,0.0,0.0,0.0,0.0,0.0,0.0,0.0,0.0,0.0,0.0,0.0,0.0,0.0,0.0,0.0,0.0,0.0,0.0,1.9771,1.9576,1.9416,1.866,1.8216,1.8148,1.7386,1.7277,1.7962,1.7794,1.7544,1.7297,1.6795,1.6361,1.5932,1.5222,1.4936,1.4904,1.4208,1.3619,1.3128,1.2625,0.0,0.0,0.0,0.0,0.0,0.0,0.0,0.0,0.0,1.4384,1.4838,1.4636,1.466,1.4681,1.4268,1.3674,1.3475,1.4836,1.6485,1.7849,1.8102,1.9434,2.0759,2.0905,2.0833,2.0793,2.1049,2.1225,2.1222,2.1021,2.1139,2.1378,2.1735,2.1708,2.1777,2.2101,2.2167,2.2297,2.2715,2.2542,2.2463,2.2497,2.2286,2.1978,2.1528,2.2044,2.2248,2.2014,2.2658,2.3151,2.3435,2.3992,2.5032,2.668,2.7194,2.8166,2.9589,2.9701,2.9943,3.0354,3.1462,3.2293,3.2993,3.4089,3.4788,3.5107,3.5141,3.519,3.5254,3.5369,3.5427,3.543,3.5522,3.5881,3.6318,0.0,0.0,0.0,0.0,0.0,0.0,0.0,0.0,0.0,0.0,0.0,0.0,0.0,0.0,0.0,0.0,0.0,0.0,2.0164,2.0021,1.9865,1.9734,1.8976,1.8757,1.9236,1.9006,1.8974,1.8999,1.8579,1.8266,1.7988,1.7338,1.6795,1.6392,1.5579,1.5222,1.5099,1.4609,1.4145,1.3676,1.3359,1.2447,0.0,0.0,0.0,0.0,0.0,0.0,0.0,0.0,1.397,1.4571,1.4283,1.4412,1.4568,1.4072,1.3982,1.4102,1.4537,1.6188,1.7804,1.7805,1.9666,2.1444,2.1137,2.1752,2.2303,2.2192,2.2051,2.1989,2.2022,2.1687,2.1474,2.1735,2.1738,2.1708,2.1768,2.1797,2.1857,2.1911,2.1826,2.1877,2.2231,2.209,2.1874,2.1649,2.2234,2.2461,2.2121,2.2821,2.3365,2.3638,2.3837,2.4904,2.6859,2.7045,2.8029,2.977,2.9859,2.991,2.9964,3.145,3.2298,3.2602,3.4099,3.4928,3.5245,3.5293,3.5315,3.5388,3.5495,3.5534,3.556,3.5917,3.6393,3.6907,0.0,0.0,0.0,0.0,0.0,0.0,0.0,0.0,0.0,0.0,0.0,0.0,0.0,0.0,0.0,0.0,0.0,0.0,2.0302,2.0255,2.0142,2.0021,1.9817,1.9908,2.0396,2.0606,2.0161,1.9014,1.9148,1.893,1.8405,1.8001,1.7435,1.6786,1.6213,1.5954,1.5844,1.5125,1.4735,1.4539,1.3892,1.291,1.1872,0.0,0.0,0.0,0.0,0.0,0.0,0.0,1.3813,1.422,1.4333,1.4585,1.466,1.3979,1.4572,1.5358,1.5061,1.5743,1.6807,1.7987,1.9584,2.0927,2.1249,2.1873,2.2706,2.3742,2.2439,2.1299,2.1893,2.1201,2.0767,2.1579,2.1678,2.1678,2.1678,2.1853,2.1998,2.1998,2.1535,2.1508,2.2309,2.1725,2.1668,2.2493,2.2721,2.285,2.2977,2.3319,2.3558,2.371,2.3979,2.5023,2.6972,2.7203,2.818,2.9888,3.0038,3.0053,3.0007,3.0975,3.1859,3.2661,3.3578,3.4489,3.5293,3.5451,3.5547,3.5584,3.5608,3.562,3.5747,3.6665,3.7035,3.7161,0.0,0.0,0.0,0.0,0.0,0.0,0.0,0.0,0.0,0.0,0.0,0.0,0.0,0.0,0.0,0.0,0.0,0.0,2.0426,2.0376,2.0308,2.0203,1.9964,2.0111,2.0742,2.0823,2.0545,1.9996,1.9498,1.9148,1.8802,1.8084,1.7533,1.7122,1.6479,1.5727,1.4952,1.4599,1.4355,1.4204,1.363,1.3212,1.292,0.0,0.0,0.0,0.0,0.0,0.0,0.0,0.0,0.0,1.3787,1.4424,1.4961,1.3929,1.4342,1.5014,1.489,1.6186,1.7753,1.8196,2.1021,2.3437,2.2538,2.2856,2.3275,2.3055,2.2508,2.2105,2.2203,2.1831,2.162,2.1823,2.1857,2.1827,2.1768,2.1827,2.1882,2.1998,2.1362,2.111,2.1589,2.0943,2.044,2.0302,2.1437,2.2013,2.1635,2.2896,2.3725,2.3915,2.4134,2.5153,2.7045,2.7198,2.8159,2.9888,3.0053,3.0098,3.0091,3.0982,3.1851,3.2707,3.3661,3.4602,3.5465,3.5534,3.557,3.5681,3.6334,3.6588,3.6686,3.7579,3.8287,3.8879,0.0,0.0,0.0,0.0,0.0,0.0,0.0,0.0,0.0,0.0,2.0619,0.0,0.0,0.0,0.0,0.0,0.0,0.0,0.0,2.0487,2.056,2.0848,2.0611,2.075,2.1335,2.1189,2.0823,2.0254,1.9646,1.9373,1.9339,1.8612,1.8279,1.8186,1.7588,1.6609,1.5492,1.5219,1.4817,1.4257,1.3912,1.3597,1.3334,0.0,0.0,0.0,0.0,0.0,0.0,0.0,0.0,0.0,1.2974,1.3632,1.4256,1.4141,1.479,1.5743,1.6543,1.7811,1.9166,2.0197,2.2528,2.4406,2.3865,2.3804,2.3722,2.3138,2.248,2.2031,2.2169,2.1797,2.152,2.1731,2.1797,2.1768,2.1708,2.1503,2.1392,2.1506,2.0605,2.0183,2.0781,2.0161,1.9747,1.9763,2.0802,2.1321,2.1043,2.2473,2.3402,2.358,2.41,2.5112,2.663,2.7151,2.807,2.9513,2.9923,3.0133,3.0185,3.104,3.1948,3.2857,3.4093,3.4982,3.5547,3.5581,3.5626,3.5736,3.6668,3.7036,3.7211,3.8403,3.9198,3.9703,0.0,0.0,0.0,0.0,0.0,0.0,0.0,0.0,0.0,0.0,2.0943,2.0445,0.0,0.0,0.0,0.0,0.0,0.0,0.0,0.0,2.0851,2.1648,2.1666,2.1776,2.2122,2.1784,2.117,2.0282,1.9655,1.9558,1.9895,1.9437,1.9329,1.9532,1.9002,1.8001,1.6746,1.6445,1.562,1.4535,1.4444,1.3958,1.331,1.3136,0.0,0.0,0.0,0.0,0.0,0.0,0.0,0.0,1.2255,1.2594,1.3173,1.442,1.5702,1.7055,1.8937,1.9807,2.0739,2.3069,2.388,2.4294,2.4948,2.4599,2.3996,2.3646,2.2385,2.1448,2.1922,2.1321,2.092,2.1519,2.162,2.1587,2.1491,2.1048,2.0699,2.0689,1.9503,1.9059,1.9916,1.9345,1.9292,2.0212,2.0555,2.0809,2.0983,2.2018,2.2738,2.3015,2.3891,2.4895,2.6,2.7002,2.797,2.8921,2.9778,3.0241,3.0343,3.1084,3.1941,3.3006,3.4738,3.5558,3.5588,3.5637,3.563,3.5795,3.6754,3.7152,3.7432,3.9108,3.9746,3.9941,0.0,0.0,0.0,0.0,0.0,0.0,0.0,0.0,0.0,0.0,0.0,0.0,0.0,0.0,0.0,0.0,0.0,0.0,0.0,0.0,2.0872,2.1662,2.2771,2.329,2.3187,2.3042,2.2789,2.2439,2.0315,1.9611,2.0111,1.9602,1.9305,1.9172,1.8625,1.7419,1.573,1.5478,1.4905,1.4122,1.4164,1.3908,1.3505,1.304,1.3271,0.0,0.0,0.0,0.0,0.0,0.0,0.0,1.2757,1.3321,1.381,1.4041,1.543,1.7034,1.7592,1.9353,2.1353,2.266,2.405,2.4979,2.4506,2.4243,2.3823,2.2939,2.2426,2.2146,2.2147,2.1898,2.1716,2.1735,2.1797,2.1599,2.0832,2.0718,2.05,1.999,1.9151,1.8775,1.9195,1.862,1.8366,1.8718,1.9541,2.0099,2.0314,2.1279,2.2209,2.3067,2.3405,2.4367,2.6042,2.7017,2.7985,0.0,2.9832,3.0318,3.0379,3.0547,3.1468,3.308,3.4797,3.5626,3.5669,3.5727,3.5754,3.5879,3.6759,3.7506,3.8252,3.9326,4.0128,4.0765,0.0,0.0,0.0,0.0,0.0,0.0,0.0,0.0,0.0,0.0,0.0,0.0,0.0,0.0,0.0,0.0,0.0,0.0,0.0,0.0,2.1033,2.2202,2.3736,2.429,2.3747,2.3638,2.3334,2.2801,2.1417,2.0933,2.1282,2.0894,2.0803,2.0831,2.0069,1.882,1.7211,1.6202,1.5183,1.419,1.3849,1.3783,1.3765,1.3133,1.3507,1.4193,1.3151,0.0,0.0,0.0,0.0,0.0,0.0,0.0,1.2704,1.3915,1.5129,1.6422,1.8152,1.9796,2.1384,2.3076,2.4462,2.5181,2.4331,2.4112,2.3657,2.2287,2.2221,2.2321,2.2123,2.1673,2.1325,2.1184,2.0825,2.0463,2.0017,1.9684,1.9431,1.9192,1.8543,1.8205,1.8426,1.821,1.8121,1.8307,1.8898,1.9358,1.9543,2.0552,2.151,2.2523,2.3129,2.4069,2.5498,2.6864,2.7826,2.8377,2.9716,3.0617,3.1138,3.1532,3.2403,3.3731,3.5126,3.5708,3.5745,3.5779,3.5803,3.5966,3.7218,3.8004,3.8548,3.9855,4.0609,4.1013,0.0,0.0,0.0,0.0,0.0,0.0,0.0,0.0,0.0,0.0,0.0,0.0,0.0,0.0,0.0,0.0,0.0,0.0,0.0,0.0,0.0,2.3075,2.4548,2.4915,2.4032,2.4072,2.3649,2.2777,2.28,2.3016,2.3418,2.2681,2.2452,2.2551,2.1698,2.0518,1.9052,1.7314,1.5826,1.4567,1.4004,1.3879,1.395,1.349,1.3797,1.442,1.359,1.3058,1.2673,1.1876,0.0,0.0,0.0,0.0,1.1381,1.3717,1.4681,1.5725,1.8741,2.0199,2.1394,2.3734,2.4752,2.4944,2.4103,2.385,2.33,2.1739,2.1786,2.2029,2.1607,2.0931,2.0421,2.0225,1.9679,1.9223,1.9203,1.8653,1.8306,1.8394,1.7957,1.7704,1.7816,1.792,1.8003,1.8139,1.8391,1.861,1.8836,1.9782,2.082,2.2002,2.2862,2.3818,2.4912,2.6567,2.7536,2.7846,2.9589,3.1043,3.2167,3.283,3.3606,3.4486,3.5396,3.5818,3.5818,3.5981,3.6073,3.6274,3.7831,3.8486,3.8804,4.022,4.0896,4.1013,0.0,0.0,0.0,0.0,0.0,0.0,0.0,0.0,0.0,0.0,2.3338,2.2625,0.0,0.0,0.0,0.0,0.0,0.0,0.0,0.0,0.0,2.4122,2.5001,2.5085,2.418,2.4825,2.4772,2.3874,2.4633,2.5704,2.7023,2.4256,2.2547,2.1751,2.1461,2.0259,1.8436,1.7402,1.6223,1.5118,1.555,1.4853,1.3642,1.4313,1.4591,1.4505,1.3247,1.2793,1.2689,1.1871,1.1167,0.0,0.0,0.0,1.1693,1.2759,1.4094,1.5521,1.674,1.9327,2.2104,2.4,2.4392,2.4069,2.3327,2.3024,2.2599,2.161,2.1298,2.0948,2.0144,1.9756,1.9558,1.9446,1.9437,1.9143,1.8469,1.8405,1.8261,1.7719,1.776,1.7905,1.8048,1.7656,1.7431,1.7523,1.7753,1.8005,1.8191,1.9044,2.0352,2.2121,2.237,2.3283,2.4981,2.6022,2.7022,2.7932,2.9708,3.1452,3.3099,3.3206,3.3704,3.4528,3.5407,3.5818,3.5956,3.669,3.7001,3.7112,3.8085,3.8903,3.9565,3.9799,4.0396,4.1104,0.0,0.0,0.0,0.0,0.0,0.0,0.0,0.0,0.0,0.0,0.0,2.2926,0.0,0.0,0.0,0.0,0.0,0.0,0.0,0.0,0.0,2.4397,2.5118,2.5148,2.4296,2.5079,2.5317,2.4931,2.5317,2.6588,2.8668,2.6776,2.5838,2.569,2.4079,2.2581,2.1139,1.9147,1.7684,1.6616,1.6325,1.6342,1.6406,1.5332,1.5488,1.6079,1.4086,1.337,1.3232,1.1958,1.1343,1.1001,1.0508,0.0,0.0,0.0,1.3379,1.4873,1.7604,1.9747,2.1628,2.3436,2.3777,2.3523,2.3157,2.2927,2.2436,2.1103,2.0586,2.0224,1.9731,1.9147,1.8692,1.8643,1.7908,1.7319,1.7069,1.6797,1.6518,1.6342,1.6522,1.6877,1.7486,1.706,1.7153,1.811,1.8028,1.8197,1.883,1.9277,2.041,2.2312,2.2438,2.3332,2.5077,2.6096,2.7287,2.8758,3.0056,3.1591,3.3362,3.3323,3.4023,3.5301,3.5704,3.5872,3.5961,3.6824,3.7214,3.7336,3.8688,3.9429,3.9831,4.0286,4.1026,4.1773,0.0,0.0,0.0,0.0,0.0,0.0,0.0,0.0,0.0,0.0,0.0,0.0,0.0,0.0,0.0,0.0,0.0,0.0,0.0,0.0,0.0,2.4746,2.5327,2.5213,2.4323,2.4952,2.527,2.5272,2.5506,2.7028,2.968,2.9088,2.9355,3.0249,2.7133,2.5099,2.3812,2.1081,1.9454,1.8636,1.7842,1.8076,1.8693,1.7382,1.727,1.7551,1.5475,1.4343,1.358,1.2122,1.1404,1.0951,1.0293,1.0165,0.0,0.0,0.0,1.4003,1.7533,1.9108,2.0263,2.2246,2.287,2.2941,2.2869,2.2723,2.2156,2.0429,1.9855,1.9513,1.914,1.8273,1.7629,1.7604,1.6475,1.5645,1.5821,1.543,1.5209,1.5415,1.5615,1.6012,1.6789,1.636,1.6649,1.8141,1.7954,1.8088,1.8859,1.9375,2.0352,2.184,2.2386,2.335,2.4927,2.6331,2.7737,2.9123,3.0205,3.1649,3.3405,3.3361,3.4262,3.5909,3.5904,3.5904,3.5992,3.7079,3.7547,3.7713,3.9452,4.0271,4.0554,4.1201,4.1935,4.2637,0.0,0.0,0.0,0.0,0.0,0.0,0.0,0.0,0.0,0.0,0.0,0.0,2.5284,2.4543,2.4063,2.3937,0.0,0.0,0.0,0.0,0.0,2.5625,2.5664,0.0,2.4412,2.4364,2.4383,2.4358,2.52,2.7273,3.0547,3.0638,3.1934,3.4012,2.974,2.6918,2.5141,2.2492,2.1289,2.1103,2.0981,2.0001,1.8861,2.1162,2.0536,1.8313,1.7363,1.5504,1.3385,1.2414,1.1091,0.9874,0.9781,1.0149,1.0666,0.0,0.0,0.0,1.4604,1.6148,1.7875,2.0406,2.1532,2.2095,2.2139,2.199,2.1357,1.9614,1.912,1.867,1.7705,1.6741,1.6133,1.6212,1.548,1.4972,1.5147,1.5178,1.5251,1.5456,1.5673,1.5881,1.6133,1.568,1.5764,1.6726,1.6958,1.7139,1.7319,1.8887,1.9908,2.0231,2.1837,2.316,2.4144,2.6734,2.8112,2.8268,2.9995,3.1694,3.3418,3.3399,3.4345,3.5988,3.5931,3.5923,3.6122,3.7769,3.8432,3.8619,4.033,4.154,4.2286,4.2309,4.285,4.3512,0.0,0.0,0.0,0.0,0.0,0.0,0.0,0.0,0.0,0.0,0.0,0.0,0.0,2.5308,2.4766,2.466,2.4505,0.0,0.0,0.0,0.0,2.6454,2.6997,2.6598,2.5134,2.5605,2.5568,2.5027,2.5292,2.7129,3.0457,2.9978,3.084,3.2675,3.0101,2.8554,2.7691,2.457,2.3163,2.3046,2.3041,2.2692,2.2227,2.2498,2.203,2.1015,1.9005,1.7346,1.5927,1.4497,1.2953,1.1489,1.0915,1.0493,1.0319,1.0682,1.1822,1.328,1.4716,1.5876,1.7099,1.903,2.0073,2.0633,2.0512,2.0855,2.0835,1.9532,1.8756,1.8031,1.7065,1.6485,1.6138,1.6082,1.5026,1.4207,1.432,1.3989,1.3809,1.4066,1.4264,1.4673,1.5443,1.4995,1.5275,1.6775,1.7064,1.7498,1.8142,1.9353,2.0375,2.1026,2.2207,2.3557,2.5039,2.7112,2.8194,2.8208,2.9983,3.1718,3.3409,3.3417,3.4361,3.6044,3.6582,3.6807,3.6914,3.8042,3.8822,3.9529,4.1237,4.213,4.2442,4.2972,4.3701,4.4436,0.0,0.0,0.0,0.0,0.0,0.0,0.0,0.0,0.0,2.9807,0.0,0.0,0.0,0.0,2.6225,2.5882,2.602,2.6167,2.6289,2.6922,2.7273,2.7268,2.7801,2.7388,2.5919,2.6025,2.5841,2.5264,2.5178,2.6561,2.9336,2.9129,2.9795,3.1075,2.9466,2.9117,2.9463,2.6636,2.5347,2.5294,2.5312,2.4996,2.4579,2.4754,2.4127,2.2989,2.124,1.9507,1.7842,1.648,1.4687,1.2926,1.2059,1.0967,1.0125,1.0495,1.1661,1.3055,1.3932,1.5074,1.6411,1.7968,1.8501,1.8763,1.9314,1.9361,1.914,1.8397,1.7769,1.7069,1.6386,1.5708,1.5286,1.5452,1.4128,1.3129,1.3249,1.2646,1.2289,1.2537,1.2976,1.3579,1.4367,1.4402,1.505,1.6557,1.6811,0.0,1.8269,1.9262,2.0496,2.2023,2.2654,2.3796,2.5593,2.7363,2.8236,2.8242,3.0284,3.2014,3.3428,3.3701,3.4642,3.6052,3.6907,3.7292,3.7399,3.8479,3.9302,4.0011,4.1718,4.2572,4.2924,4.3724,4.461,4.5378,0.0,0.0,0.0,0.0,0.0,0.0,0.0,0.0,3.159,3.0683,0.0,0.0,0.0,0.0,0.0,2.7608,2.7663,2.7769,2.7893,2.7976,2.8024,2.8047,0.0,0.0,2.6669,2.5619,2.5057,2.5019,2.4853,2.5579,2.7182,2.8127,2.9008,2.9627,2.8008,2.8441,3.0191,2.8435,2.7759,2.7826,2.7725,2.6764,2.563,2.8071,2.6956,2.41,2.4036,2.1929,1.9008,1.8159,1.6161,1.392,1.2952,1.1519,1.0158,1.0048,1.1053,1.2186,0.0,0.0,0.0,1.7091,1.671,1.6535,1.8497,1.7484,1.6129,1.6181,1.5976,1.5744,1.5586,1.4273,1.3427,1.4032,1.2744,1.1759,1.1926,1.1298,1.0895,1.1172,1.2002,1.2697,1.298,1.3949,1.4945,1.5891,1.6111,1.6603,1.757,1.8535,2.0276,2.2911,2.3065,2.3904,2.5632,2.7407,2.8309,2.8381,3.0891,3.2576,3.3437,3.4294,3.5193,3.6055,3.6951,3.7339,3.7455,3.9122,3.9864,4.0142,4.1774,4.2982,4.3837,4.4636,4.5484,4.6376,0.0,0.0,0.0,0.0,0.0,0.0,3.32,3.2928,3.2607,0.0,0.0,0.0,3.025,2.9775,2.9207,2.8484,2.8502,2.8326,2.7726,2.833,2.873,2.873,2.9214,2.9078,2.8211,2.712,2.6208,2.541,2.4783,2.4923,2.582,2.6151,2.6745,2.7549,2.7027,2.7473,2.8529,2.646,2.6643,2.8327,2.7666,2.7148,2.6896,2.8189,2.7761,2.6301,2.5118,2.3739,2.2163,2.0148,1.7797,1.5262,1.2617,1.1904,1.1793,1.0472,1.1682,1.3317,1.2444,0.0,0.0,0.0,0.0,0.0,1.5046,1.4843,1.4797,1.5955,1.4704,1.3557,1.4106,1.2849,1.1795,1.1979,1.1493,1.1089,1.1199,1.1061,1.104,1.1321,1.1691,1.2274,1.3131,1.356,1.4222,0.0,1.5949,1.6739,1.7684,1.9231,2.1013,2.3001,2.3096,2.4239,2.6587,2.7726,2.8628,2.9254,3.1171,3.2578,3.3437,3.4296,3.5194,3.6093,3.7578,3.8242,3.832,3.9408,4.0613,4.1822,4.2912,4.3879,4.4723,4.5528,4.6376,4.7177,0.0,0.0,0.0,0.0,0.0,3.5376,3.5309,3.4902,3.4557,0.0,0.0,0.0,3.2307,3.1407,3.0726,3.0358,3.0373,3.006,2.9241,2.9691,2.9832,2.9448,3.0113,3.006,2.9131,2.8369,2.7475,2.6484,2.5474,2.5126,2.5433,2.5419,2.5659,2.6132,2.6064,2.6604,2.7464,2.5755,2.6711,2.9326,2.8783,2.8614,2.8725,2.9644,2.9039,2.7662,2.7107,2.5943,2.4409,2.2688,1.9773,1.6338,1.333,1.2805,1.2902,1.1172,1.2483,1.4267,1.3251,1.3474,1.3961,1.3817,0.0,0.0,1.3473,1.3086,1.289,1.423,1.3227,1.2174,1.2265,1.1472,1.0668,1.0339,1.0187,1.0237,1.0609,1.0437,1.0335,1.0566,1.1054,1.1772,1.2761,1.3338,1.4016,1.4957,1.56,1.6496,1.7762,1.9538,2.1294,2.3031,2.3117,2.4176,2.6444,2.7695,2.8555,2.9101,3.1484,3.2928,3.3432,3.4682,3.5504,3.6092,3.7851,3.8594,3.8711,4.0312,4.1519,4.2488,4.3344,4.4231,4.5148,4.6309,4.7067,4.7586,0.0,0.0,3.8497,3.8483,3.8486,3.8451,3.8471,3.7688,3.7051,0.0,3.6105,3.5141,3.4241,3.3298,3.2805,3.2928,3.2759,3.2374,3.173,3.1478,3.1013,3.0295,3.0693,3.0603,2.9851,2.9333,2.8645,2.7725,2.6549,2.5786,2.5508,2.5367,2.5287,2.5267,2.5157,2.5762,2.6819,2.6038,2.7605,3.0582,3.0397,3.0405,3.068,3.16,3.0565,2.8649,2.9306,2.8128,2.6134,2.5091,2.1694,1.7443,1.4971,1.4338,1.411,1.2336,1.3472,1.5153,1.4276,1.4419,1.4769,1.46,1.3163,0.0,1.2888,1.169,1.0667,1.1571,1.1368,1.0822,1.0082,0.983,0.9498,0.8759,0.8875,0.9343,1.0079,0.965,0.9314,0.9522,1.0289,1.1199,1.2232,1.3156,1.4074,1.5036,1.5425,1.6313,1.7964,1.9697,2.1391,2.3045,2.3203,2.414,2.5973,2.7535,2.8393,2.8627,3.1867,3.3389,3.3463,3.5226,3.6048,3.6244,3.7887,3.8632,3.8945,4.1406,4.246,4.2648,4.3503,4.4387,4.5343,4.6928,4.7567,4.7844,0.0,3.8537,3.8518,3.8511,3.8999,3.9401,3.9335,3.9093,3.8878,3.8786,3.7808,3.7139,3.7092,3.6153,3.5531,3.5623,3.442,3.3549,3.3346,3.1948,3.1366,3.1823,3.1069,3.0804,3.1199,3.0112,2.9032,2.7951,2.6906,2.5841,2.4815,2.4785,2.4633,2.4455,2.452,2.5077,2.6006,2.6584,2.8513,3.1082,3.008,3.0176,3.1075,3.1957,3.1716,3.0789,2.9694,2.9035,2.8184,2.4816,2.2205,1.991,1.7472,1.7254,1.7478,1.5144,1.5316,1.6075,1.5195,1.4529,1.3928,1.315,1.2118,0.0,1.0589,0.943,0.873,0.9457,0.7838,0.6594,0.747,0.6857,0.6216,0.6332,0.7553,0.8705,0.941,0.9491,0.9588,0.971,0.9987,1.0831,1.2473,1.2813,1.3582,1.5133,1.658,1.7855,1.8962,2.0615,2.2029,2.3086,2.3789,2.5309,2.7764,2.8115,2.8971,3.0331,3.2397,3.3409,3.3441,3.5204,3.6381,3.7092,3.8153,3.9017,3.9803,4.1639,4.2812,4.3548,4.4405,4.5291,4.6162,4.715,4.7905,4.8616,4.1047,4.1108,4.1037,4.1039,4.131,4.1548,4.1538,4.1415,4.1272,4.1272,4.0323,3.9346,3.8597,3.8014,3.7542,3.7139,3.6268,3.5359,3.4414,3.3431,3.2617,3.2006,3.1704,3.1667,3.1884,3.1056,3.0047,2.9001,2.7809,2.661,2.5476,2.5246,2.5346,2.5679,2.5209,2.5848,2.7301,2.7301,2.8733,3.0939,3.104,3.1727,3.2748,3.3205,3.2766,3.1733,3.0564,2.9494,2.8059,2.4445,2.2678,2.1414,1.8254,1.8407,1.9271,1.6965,1.6946,1.7394,1.6194,0.0,0.0,1.3437,0.0,0.0,0.0,0.8659,0.7694,0.802,0.6381,0.494,0.5161,0.5009,0.4791,0.464,0.5957,0.7308,0.8192,0.9183,0.9848,0.9941,1.0015,1.0745,1.2513,1.2688,1.3609,1.5821,1.721,1.8352,1.9252,2.0898,2.2186,2.3081,2.3937,2.5455,2.7635,2.8064,2.8918,3.0199,3.2345,3.3399,3.3473,3.519,3.6489,3.736,3.8185,3.9053,4.0076,4.2186,4.332,4.3785,4.4642,4.5799,4.7011,4.7846,4.867,4.9439,4.339,4.3521,4.3635,4.3617,4.3644,4.3712,4.3743,4.362,4.3438,4.3231,4.2479,4.1387,3.998,3.9656,3.9315,3.8744,3.8137,3.7261,3.5912,3.5258,3.4217,3.2706,3.2735,3.273,3.2625,3.2036,3.1161,3.0094,2.8733,2.7535,2.6512,2.6045,2.626,2.701,2.6281,2.7033,2.8867,2.8193,2.9127,3.1244,3.2441,3.331,3.3928,3.4199,3.3466,3.222,3.1537,2.9842,2.7545,2.4963,2.3749,2.274,1.9435,1.9604,2.0663,1.8772,1.8564,0.0,0.0,0.0,0.0,0.0,0.0,1.0929,0.0,0.0,0.0,0.6591,0.5177,0.3829,0.3304,0.3313,0.3245,0.2713,0.4089,0.5517,0.6293,0.8102,0.9463,0.9829,1.0021,1.0805,1.2556,1.2883,1.4073,1.6748,1.7459,1.8281,1.9453,2.1127,2.2367,2.3064,2.4266,2.5626,2.7218,2.8115,2.9012,3.0022,3.2292,3.3466,3.3696,3.5455,3.6715,3.7588,3.8411,3.9359,4.0542,4.2768,4.3788,4.4061,4.5073,4.6306,4.7635,4.8665,4.9442,5.0121,4.2837,4.3173,4.366,4.3596,4.4221,4.472,4.4676,4.4637,4.4289,4.3322,4.3011,4.271,4.2412,4.1705,4.1416,4.1835,3.9857,3.8731,3.915,3.6896,3.5712,3.601,3.4385,3.3691,3.4047,3.295,3.1775,3.056,2.9274,2.8092,2.6939,2.6444,2.6278,2.6422,2.6951,2.7874,2.8993,2.9145,3.067,3.3107,3.3453,3.3159,3.2614,3.3525,3.3407,3.2675,3.2097,3.0378,2.8283,0.0,2.6499,2.4563,2.3389,2.285,2.2442,2.1426,2.0359,0.0,0.0,0.0,0.0,0.0,1.2256,0.0,0.0,0.0,0.569,0.4372,0.0,0.1634,0.2293,0.0,0.0,-0.0577,0.1819,0.3522,0.3202,0.5342,0.7468,0.8796,0.9671,1.085,1.2601,1.3508,1.5037,1.7656,1.7225,1.7887,2.023,2.2008,2.3007,2.3082,2.5403,2.706,2.8062,2.8929,3.0175,3.1727,3.2844,3.3785,3.4514,3.625,3.7552,3.8415,3.9282,4.0586,4.2204,4.3258,4.4173,4.5039,4.6674,4.7366,4.7697,4.9295,4.9917,5.0217,4.4711,4.5316,4.5724,4.5195,4.5804,4.6182,4.5658,4.5801,4.6003,4.6034,4.5437,4.4977,4.4913,4.4145,4.3738,4.39,4.2511,4.1472,4.1116,3.9427,3.8021,3.7071,3.603,3.4975,3.3944,3.3213,3.1981,3.0194,2.9365,2.8359,2.7155,2.6901,2.7232,2.8126,2.8073,2.9405,3.1726,3.0955,3.165,3.3305,3.3473,3.3071,3.2524,3.4187,3.3811,3.2468,3.2314,3.0772,2.8556,0.0,2.5897,0.0,0.0,0.0,0.0,2.2409,2.1183,0.0,0.0,0.0,0.0,0.0,0.0,0.0,0.8341,0.0,0.4724,0.0,0.0,0.0,0.0,0.0,0.0,0.0,-0.0896,0.1036,0.1439,0.3593,0.5996,0.8366,0.0,0.0,1.1874,1.2891,1.4687,1.7768,1.7177,1.8028,2.1104,2.2403,2.3279,2.3772,2.5784,2.7251,2.8145,2.9506,3.0795,3.2032,3.3407,3.4231,3.4588,3.6352,3.7624,3.8555,3.992,4.1228,4.2502,4.3876,4.4672,4.5233,4.746,4.8311,4.8443,5.0126,5.1062,5.1619,4.6807,4.7255,4.7384,4.6976,4.7353,4.7602,4.7173,4.7182,4.7521,4.8337,4.7507,4.6915,4.7053,4.6557,4.6221,4.6328,4.5306,4.4298,4.3514,4.1968,4.0333,3.8669,3.766,3.6323,3.4587,3.3763,3.2509,3.0836,2.9921,2.9065,2.8319,2.771,2.8188,2.956,2.9432,3.103,3.3677,3.2817,3.3206,3.4431,3.4317,3.4075,3.3836,3.4599,3.4039,3.2861,3.2441,3.128,2.955,2.707,2.6161,0.0,2.2199,2.2259,2.346,0.0,0.0,0.0,1.9723,0.0,0.0,0.0,0.0,0.0,0.0,0.0,0.0,0.0,0.0,0.0,0.0,0.0,-0.3054,-0.3981,0.0,-0.1442,0.0027,0.2068,0.4376,0.7091,0.7952,0.0,0.0,1.2031,1.3942,1.7402,1.6811,1.7928,2.157,2.2552,2.3387,2.4263,2.612,2.7556,2.841,3.0164,3.16,3.2687,3.3899,3.473,3.5244,3.6728,3.805,3.9221,4.0701,4.2019,4.3188,4.445,4.5249,4.5887,4.8045,4.9021,4.9355,5.1045,5.2051,5.265,4.8566,4.8047,4.7756,4.8475,4.8647,4.8857,4.9485,4.8787,4.8428,4.9182,4.8405,4.8022,4.8743,4.8745,4.8946,4.957,4.8088,4.6996,4.6853,4.4333,4.2557,4.1965,3.94,3.7614,3.6904,3.497,3.3774,3.3288,3.1341,3.0553,3.0912,2.9111,2.8754,2.9746,3.1112,3.2443,3.3763,3.4485,3.5852,3.7494,3.6801,3.6772,3.6945,3.4369,3.3779,3.4144,3.2648,0.0,0.0,3.0407,2.8864,0.0,0.0,0.0,0.0,0.0,0.0,0.0,0.0,0.0,0.0,1.4346,0.0,0.0,0.0,0.0,0.5575,0.0,0.0,0.0,0.0,0.0,0.0,-0.2585,-0.383,0.0,0.0,0.0513,0.2327,0.4402,0.7944,1.0268,0.0,1.1131,1.3047,1.6493,1.5862,1.7206,2.1483,2.2544,2.3379,2.4193,2.6653,2.8388,2.9248,3.097,3.2723,3.442,3.4473,3.5336,3.6939,3.7868,3.9216,4.0866,4.1824,4.3226,4.4819,4.4894,4.5894,4.751,4.8504,4.9374,5.027,5.1999,5.2623,5.2816,4.9432,4.9364,4.9067,4.8764,4.9148,4.9703,5.0333,5.0527,5.0814,5.1476,5.0722,5.038,5.1136,5.1239,5.1554,5.2305,5.1272,5.0485,5.0177,4.7499,4.5466,4.4381,4.2229,4.0224,3.8509,3.6533,3.5,3.396,3.2519,3.1712,3.1528,3.0997,3.1098,3.1742,3.3031,3.4693,3.6554,3.6919,3.7519,3.8054,3.6913,3.6969,3.7577,0.0,3.5924,3.5572,3.4932,3.3373,0.0,3.1177,2.9695,2.7742,2.6245,2.494,2.3961,2.3833,2.2772,0.0,0.0,0.0,1.7905,1.5254,0.0,0.0,0.0,0.0,0.0,0.0,0.0,0.0,0.0,0.0,-0.0724,-0.0882,-0.1387,-0.1377,0.0,0.1476,0.3416,0.5377,0.7361,0.8789,0.9375,0.0,1.2377,1.6325,1.5808,1.7408,2.2236,2.2738,2.3752,2.5751,2.718,2.8618,3.0095,3.1767,3.3506,3.5245,3.582,3.6704,3.7827,3.8722,3.9761,4.0966,4.248,4.3752,4.4915,4.6112,4.6967,4.7645,4.9126,4.9843,5.0388,5.2716,5.3537,5.3783,5.1117,5.1064,5.0597,4.9722,5.0181,5.099,5.1895,5.212,5.2403,5.3022,5.2547,5.2427,5.329,5.3926,5.4506,5.5009,5.4465,5.3541,5.2315,5.0145,4.8089,4.6379,4.4758,4.2977,4.0972,3.9008,3.7212,3.5554,3.4106,3.3228,3.2804,3.2317,3.2352,3.2918,3.4235,3.5858,3.7675,3.8573,3.9063,3.9172,3.8037,3.7984,3.8535,0.0,3.7388,3.6028,0.0,3.4619,3.2734,3.1369,3.0001,2.8624,2.6814,2.5481,2.4475,2.4147,2.3095,2.1955,2.1464,2.0347,0.0,1.5671,1.3758,0.0,0.8318,0.0,0.0,0.0,0.0,0.0,0.0,0.0,0.0,0.0306,0.0656,0.115,0.0,0.332,0.4861,0.6123,0.7108,0.8164,0.9333,0.996,1.2062,1.6263,1.579,1.75,0.0,0.0,2.3964,2.6535,2.7421,2.8867,3.0893,3.232,3.4017,3.6023,3.6588,3.7462,3.8646,3.9521,4.0563,4.1834,4.3275,4.4404,4.5337,4.6855,4.7639,4.8098,4.954,5.0307,5.0859,5.3151,5.4318,5.5091,5.3428,5.3075,5.2278,5.1501,5.1818,5.2684,5.4079,5.3551,5.3226,5.3933,5.3908,5.4249,5.5271,5.6787,5.7718,5.7739,5.7529,5.6252,5.3403,5.2155,5.0564,4.8198,4.7083,4.5789,4.4272,4.2207,4.0181,3.8085,3.6155,3.5011,3.4724,3.3074,3.2639,3.3323,3.4789,3.6069,3.7147,3.94,4.0546,4.0782,4.0046,3.9763,3.9781,3.9729,3.8035,3.5734,3.5645,3.5577,3.4959,3.1254,3.0098,2.9672,2.6749,2.5761,2.5362,2.3826,2.3088,2.2451,2.1138,2.0462,1.9295,1.5762,0.0,0.0,0.0,0.0,0.8253,0.0,0.0,0.0,0.0,0.0,0.0,0.1045,0.2113,0.3513,0.4789,0.5806,0.6457,0.658,0.7301,0.8436,0.9989,1.0273,1.2065,1.6223,1.58,1.7554,2.2516,0.0,2.4014,2.6564,2.7428,2.9105,3.173,3.2555,3.4301,3.6858,3.6871,3.7758,3.9494,4.0304,4.1633,4.3337,4.4201,4.5126,4.6074,4.7047,4.8,4.8899,4.9825,5.0722,5.1718,5.3388,5.5048,5.669,5.2738,5.356,5.4274,5.4597,5.4315,5.4072,5.4188,5.4981,5.5592,5.5665,5.6768,5.7634,5.792,5.9493,6.0256,5.9528,5.9336,5.8509,5.6778,5.4988,5.3555,5.2485,5.0206,4.8559,4.7723,4.392,4.1505,4.0724,3.7528,3.5775,3.5498,3.4414,3.3893,3.3924,3.5486,3.7032,3.8471,4.0193,4.1087,4.1189,4.06,3.9967,3.9415,0.0,3.8652,3.7412,3.5726,3.4835,3.4153,3.2154,3.0674,2.9468,2.8355,2.7098,2.5869,2.5107,2.3958,2.2807,2.2024,2.0863,1.9418,1.7709,1.5722,1.3599,0.0,0.0,0.0,0.0,0.0,0.0,0.0,0.0,0.0,0.2419,0.3266,0.441,0.5632,0.6117,0.7064,0.8976,0.9421,0.9476,0.9331,1.0463,1.2442,1.5404,1.6029,1.8169,2.2551,0.0,0.0,2.734,2.8248,2.9921,3.248,3.2749,3.4477,3.764,3.7661,3.8575,4.0231,4.1138,4.2184,4.3294,4.4214,4.5067,4.5984,4.7611,4.8457,4.888,5.0438,5.198,5.3396,5.3764,5.5399,5.7524,5.4139,5.5126,5.6106,5.6811,5.6521,5.5955,5.5361,5.5912,5.6216,5.5708,5.7506,5.8851,5.891,6.1162,6.2298,6.1279,6.1386,6.0626,5.854,5.7221,5.5955,5.4565,5.2935,5.1419,5.0104,4.6745,4.4118,4.2293,3.9343,3.7202,3.5893,3.5251,3.4693,3.4266,3.5727,3.7318,3.9062,4.0974,4.1848,4.1806,4.089,4.037,0.0,3.9379,3.8876,3.8241,3.5545,3.4349,3.3971,3.3194,3.134,2.9271,2.895,2.7803,2.6448,2.5764,2.4567,2.3376,2.2571,2.1212,1.9664,1.8323,1.6506,1.4604,1.2669,1.1266,1.0018,0.0,0.0,0.0,0.0,0.0,0.0,0.3429,0.431,0.527,0.5989,0.6839,0.8105,0.9992,1.0557,1.0736,1.0682,1.1509,1.2978,1.5147,1.6439,0.0,0.0,0.0,0.0,2.7649,2.8874,3.0571,3.2785,3.3523,3.5262,3.7923,3.8278,3.9176,4.0499,4.1793,4.2649,4.322,4.4544,4.5592,4.6472,4.7983,4.9059,4.9965,5.1798,5.3341,5.4609,5.4906,5.6152,5.7814,5.623,5.7053,5.7791,5.8256,5.8373,5.8078,5.7098,5.6768,5.6375,5.561,5.7818,5.9536,5.974,6.2566,6.4016,6.2991,6.3323,6.2405,5.9511,5.916,5.8036,5.5816,5.5352,5.4071,5.1876,4.9658,4.6828,4.3338,4.1154,3.8757,3.629,3.5926,3.5331,3.4608,3.587,3.7492,3.9303,4.1502,4.2477,4.2344,4.1087,4.08,4.0918,3.9555,3.8975,3.8384,3.561,3.4424,3.4101,3.4,3.2013,2.947,2.8999,2.8123,2.7096,2.6008,2.5035,2.3978,2.2855,2.1518,2.0047,1.8262,1.6937,1.5425,1.3147,1.1771,1.0699,0.9824,0.7914,0.6451,0.0,0.0,0.0,0.4601,0.5535,0.0,0.0,0.801,0.9348,1.0406,1.1292,0.0,1.2706,1.2898,1.3591,1.5173,1.6837,0.0,0.0,0.0,0.0,2.7637,2.9355,3.1087,3.2757,0.0,3.6119,3.789,3.8695,3.9576,4.059,4.2215,4.3111,4.3508,4.5179,4.6437,4.7332,4.8335,4.9792,5.1541,5.3228,5.4463,5.5384,5.6326,5.7192,5.8016,5.6302,5.7994,5.9258,5.8588,5.9396,5.9831,5.8872,5.8539,5.8585,5.9253,6.1582,6.3465,6.425,6.5541,6.5841,6.4714,6.3941,6.2786,6.108,6.0795,5.9997,5.8396,5.7364,5.5794,5.3599,5.0223,4.7335,4.5062,4.1614,3.9193,3.7816,3.7015,3.643,3.5999,3.6918,3.8469,4.0547,4.1671,4.2242,4.2301,4.1888,4.1132,4.0236,3.978,3.9153,3.8367,3.7657,3.6002,3.405,3.3591,3.2751,3.1433,2.9339,2.8468,2.7919,2.6415,2.5524,2.4668,2.3091,2.173,2.0333,1.8843,1.7116,1.5389,1.4047,1.2672,1.1567,1.1055,0.9419,0.8253,0.8735,0.0,0.0,0.0,0.0,0.0,0.0,0.9923,1.0309,1.1974,1.2964,1.3267,1.2773,1.3383,1.4208,1.521,1.686,0.0,0.0,0.0,0.0,0.0,2.9923,0.0,0.0,0.0,3.5966,3.7661,3.8536,3.9757,4.1342,4.2374,4.3618,4.5074,4.6145,4.7122,4.7987,4.9057,5.0571,5.2308,5.3455,5.445,5.5416,5.6992,5.8108,5.8967,5.8778,5.9095,5.9508,6.0287,6.0535,6.0572,6.0559,6.1218,6.1335,6.0379,6.2577,6.4537,6.5291,6.6681,6.7011,6.5676,6.508,6.3993,6.2201,6.1422,6.0433,5.9197,5.7873,5.6227,5.4116,5.1582,4.8679,4.5528,0.0,4.0624,3.8266,3.7331,3.6744,3.6442,3.7981,3.9219,4.0326,4.1939,0.0,4.2091,4.1972,4.1292,4.0402,3.9722,3.8965,3.8237,3.8008,3.7054,3.5568,3.3729,3.2377,3.1236,2.9378,2.8544,2.7994,2.6643,2.5529,2.4515,2.3492,2.1801,2.0113,1.8882,1.7021,1.5184,1.4266,1.2934,1.1912,1.1741,1.0733,0.9965,1.0317,0.9395,0.0,0.0,0.0,0.0,0.0,0.0,1.1624,1.3017,1.3538,1.401,1.4568,1.4998,1.524,1.5265,1.7213,0.0,0.0,0.0,0.0,0.0,0.0,0.0,0.0,0.0,0.0,3.8213,3.9488,4.0556,4.1454,4.2794,4.4133,4.5398,4.6359,4.7548,4.8913,5.088,5.2211,5.3219,5.4597,5.5411,5.6045,5.7804,5.875,5.9214,6.1265,6.0395,6.0002,6.1466,6.1302,6.118,6.1785,6.3514,6.3936,6.1707,6.3636,6.5493,6.6124,6.7514,6.7883,6.6511,6.6104,6.4972,6.2795,6.1788,6.0654,5.9245,5.8068,5.6443,5.4203,5.2767,4.9975,0.0,0.0,0.0,0.0,3.7864,3.7373,3.7285,3.8925,0.0,0.0,0.0,4.2659,4.243,4.2085,4.1569,4.0886,3.9785,3.8868,3.8168,3.7807,3.7445,3.6794,3.4341,3.2585,3.111,2.9666,2.8753,2.8076,2.7006,2.5678,2.4346,2.3738,2.1944,1.9986,1.8657,1.6845,1.5147,1.4383,1.3263,1.2478,1.2689,1.2437,1.2157,1.1895,1.0838,0.0,0.0,0.0,0.0,0.0,0.0,1.2741,1.3591,1.3834,1.4517,1.5965,1.6265,1.6297,1.5996,1.785,0.0,2.2574,0.0,0.0,0.0,0.0,3.3218,3.4661,0.0,3.7943,3.8929,4.0447,4.1402,4.1884,4.3302,4.4624,4.5851,4.6685,4.801,4.9836,5.2215,5.3383,5.3819,5.5419,5.6154,5.6605,5.8392,5.9084,5.9254,6.1762,6.1875,6.1818,6.0453,6.1268,6.2143,6.2155,6.4299,6.5781,6.532,6.6872,6.8294,6.9113,6.9203,6.8731,6.7455,6.6556,6.501,6.2668,6.2389,6.1291,5.9139,5.8514,5.7021,5.4358,5.2963,5.0452,0.0,0.0,4.2664,0.0,3.9634,3.9367,0.0,0.0,0.0,0.0,4.1934,4.2515,4.3714,4.2875,4.2099,4.1387,4.0373,3.9393,3.8511,3.7578,3.6742,3.6091,3.5574,3.4445,3.2871,3.0749,2.95,2.8642,2.77,2.6312,2.4798,2.3342,2.2152,2.0668,1.8138,1.6656,1.5598,1.4743,1.4171,1.4,1.4605,1.5308,1.5376,1.4011,1.5134,1.5784,0.0,0.0,0.0,0.0,0.0,1.3308,1.3572,1.4237,1.4825,1.5109,1.5885,1.6988,0.0,1.8722,0.0,0.0,0.0,0.0,2.8738,0.0,3.277,3.3638,3.6092,3.8115,3.9731,4.0677,4.1958,4.3567,4.3741,4.5179,4.748,4.7646,4.8774,5.0568,5.1756,5.273,5.3623,5.4699,5.5608,5.6524,5.835,5.9065,5.9327,6.3886,6.3253,6.2807,6.3079,6.3604,6.4145,0.0,6.7329,6.9285,6.9244,6.9224,6.9541,7.0283,7.023,6.9444,6.7711,6.7047,6.5576,6.2915,6.2066,6.0937,5.9291,5.8397,5.7057,5.526,5.3815,5.1316,0.0,0.0,0.0,0.0,0.0,0.0,0.0,0.0,4.2675,4.3425,4.3523,4.3913,4.4367,4.3364,4.2527,4.1755,4.0227,3.9375,3.8872,3.7647,3.7183,3.7032,3.604,3.457,3.2965,3.1531,2.9977,2.8618,2.7732,2.6112,2.4425,2.3518,2.1936,2.0136,1.8455,1.704,1.5885,1.5417,1.5531,1.5666,1.5605,1.6111,1.6581,1.6478,1.6292,1.6368,0.0,0.0,0.0,0.0,0.0,0.0,1.4239,1.4949,1.5713,1.6365,1.7208,1.843,0.0,0.0,0.0,0.0,0.0,0.0,2.9358,0.0,3.3634,3.4867,3.7416,3.9246,4.0414,4.182,4.3139,4.4397,4.4976,4.6449,4.8518,4.906,4.9784,5.0701,5.2146,5.3011,5.3584,5.5568,5.6329,5.6535,5.888,5.9443,5.9293,6.6081,6.4973,6.4315,0.0,6.5816,6.6231,6.7068,6.9872,7.1857,7.1879,7.1355,7.1116,7.1351,7.0997,7.0003,6.8193,6.7538,6.6144,6.3453,6.2002,6.0692,5.9522,5.826,0.0,5.5844,5.4651,5.2448,4.9135,4.7889,0.0,0.0,0.0,0.0,0.0,4.3415,4.4202,4.4626,4.4658,4.4851,4.4948,4.3682,4.2877,4.214,4.042,3.9629,3.9313,3.781,3.7592,3.7717,3.6414,3.4785,3.315,3.2282,3.0683,2.8993,2.79,2.5954,2.4018,2.3357,2.177,2.0064,1.9088,1.8004,1.7157,1.7068,1.7354,1.7622,1.7592,1.789,1.827,1.8682,1.7694,1.727,1.8572,0.0,0.0,0.0,1.5994,0.0,1.5257,1.5635,1.6343,1.7595,1.8422,1.9536,0.0,0.0,0.0,0.0,0.0,0.0,0.0,0.0,0.0,0.0,3.8477,4.0178,4.1567,4.2784,4.4018,4.5205,4.6379,4.7606,4.8881,4.9868,5.0459,5.0916,5.2504,5.3318,5.3783,5.5998,5.6698,5.6737,5.8946,5.9554,5.9532,6.8088,6.7286,6.6674,6.6674,6.7391,6.8213,6.8942,7.1303,7.2935,7.2807,7.3433,7.3502,7.2577,7.1479,7.0324,6.906,6.7987,6.6484,6.4439,6.2425,6.0784,0.0,0.0,5.7024,5.583,5.5382,5.378,5.0892,0.0,0.0,4.5818,0.0,4.3932,4.4443,4.4164,4.4756,4.6026,4.4913,4.4908,4.5456,4.384,4.3065,4.2674,4.0921,4.0287,4.0034,3.8147,3.7619,3.7559,3.6754,3.5431,3.4027,3.3093,3.1657,3.006,2.8236,2.5945,2.3768,2.2541,2.1714,2.0945,1.9941,1.9674,1.9714,1.9991,1.9784,1.9891,2.1107,2.1348,2.1115,2.0408,2.0156,1.9579,1.8064,0.0,0.0,0.0,1.5857,0.0,1.6666,1.62,1.6472,1.8242,1.9176,2.0038,0.0,0.0,0.0,0.0,0.0,0.0,3.1747,3.3455,0.0,3.7936,3.8872,4.0622,4.3257,4.3294,4.424,4.6032,4.7737,4.8483,4.8559,4.9644,5.0545,5.1408,5.2556,5.3453,5.4319,5.5401,5.6366,5.7306,5.8319,5.9279,6.0229,6.9007,6.9238,6.9421,6.9444,7.0603,7.1636,7.1877,7.3535,7.4767,7.4709,7.4808,7.4496,7.3496,7.2353,7.1036,0.0,6.8126,6.6859,0.0,6.3453,6.2071,6.1374,6.0147,5.9006,5.786,5.6721,5.5062,5.2874,0.0,0.0,0.0,4.7273,4.6899,4.6877,4.652,4.6617,4.7043,4.6241,4.6067,4.6196,4.492,4.3907,4.3063,4.1578,4.0712,4.022,3.8889,3.833,3.8142,3.74,3.6569,3.5523,3.418,3.189,2.9495,2.8444,2.6267,2.4119,2.3243,2.2487,2.1663,2.08,2.0773,2.0831,2.0511,2.0905,2.1596,2.2632,2.2431,2.1826,2.1071,2.0833,2.0451,1.9377,1.9159,0.0,0.0,0.0,1.7095,1.7541,1.7935,1.8646,1.9855,2.0655,0.0,0.0,0.0,0.0,0.0,0.0,0.0,0.0,3.45,0.0,3.7839,3.9937,4.1689,4.3034,4.425,4.5694,4.75,4.8671,4.955,5.0174,5.0572,5.1288,5.2178,5.3264,5.4205,5.5058,5.6069,5.7049,5.8004,5.9012,5.9589,6.004,7.0738,7.1048,7.1512,7.2475,7.3481,7.4402,7.5005,7.6231,7.7066,7.6995,7.6555,7.583,7.4804,7.3405,0.0,6.9927,6.8689,6.7654,6.6862,6.4625,6.3168,6.2732,6.1245,6.0018,5.9211,5.7851,0.0,5.4723,5.2774,5.1133,4.9801,4.9449,4.9057,4.8464,4.8065,4.7699,4.7335,4.6754,4.6474,4.634,4.5285,4.4464,4.3686,4.2166,4.1361,4.0931,3.9534,3.8789,3.8415,3.7738,3.6785,3.5644,3.4722,3.2344,2.9675,2.8561,2.6597,2.4706,2.3936,2.333,2.2865,2.2541,2.2699,2.2799,2.2474,2.2926,2.353,2.4122,2.3614,2.2856,2.2052,2.1617,2.1043,1.9947,1.9729,1.929,1.8164,0.0,1.8427,0.0,0.0,0.0,0.0,2.2685,2.3582,0.0,0.0,0.0,0.0,0.0,0.0,3.3755,3.6131,0.0,3.9393,4.1156,4.2612,4.3726,4.5786,4.7404,4.8552,4.9802,5.0654,5.1168,5.1322,5.1903,5.2786,5.3442,5.4275,5.5282,5.6677,5.7416,5.7872,5.8781,5.9567,6.0287,7.2969,7.2734,7.3042,0.0,7.5997,0.0,7.8144,7.9021,7.9416,7.9259,7.8379,7.7349,7.6225,7.4466,7.2647,7.0738,0.0,0.0,0.0,6.5871,6.4107,6.3721,6.1734,6.0408,5.991,5.8753,5.7531,5.6233,5.3624,5.2145,5.1643,5.1058,5.0326,4.9426,4.8824,4.8057,4.7167,4.6545,4.6294,4.6048,4.5136,4.4749,4.452,4.2848,4.2178,4.1859,4.0245,3.9154,3.8415,3.78,3.6322,3.474,3.4767,3.2983,3.0554,2.8732,2.7025,2.5487,2.4708,2.4343,2.4339,2.4932,2.5167,2.5303,2.5442,2.5497,2.5551,2.5481,2.4857,2.4033,2.3252,2.2492,2.1511,2.0012,1.9829,1.9664,1.9,0.0,1.9885,0.0,0.0,0.0,0.0,2.5114,2.6123,0.0,0.0,0.0,0.0,0.0,3.4235,3.7259,3.8167,3.9735,4.2187,4.2393,4.341,4.5208,4.7742,4.9064,4.9314,5.0882,5.1591,5.17,5.1869,5.2456,5.3203,5.3256,5.3981,5.5253,5.7139,5.7592,5.7275,5.7902,5.9278,6.0781,0.0,0.0,7.5386,7.659,7.7356,7.8149,7.9158,7.94,7.9233,7.8481,7.7951,7.7031,7.5375,7.4504,7.3373,7.156,6.987,6.8787,6.8527,6.6965,6.5614,6.4576,6.3652,6.2434,6.0887,6.0178,5.8723,5.6493,5.4765,5.369,5.3173,5.2068,5.1061,5.0126,4.9022,4.8125,4.7403,4.6823,4.6545,4.6442,4.5961,4.5366,4.4717,4.4189,4.3091,4.1845,4.1365,4.009,3.8477,3.8484,3.7126,3.5419,3.5123,3.3653,3.1697,3.0082,2.8031,2.6246,2.6433,2.5981,2.5601,2.643,2.6247,2.5893,2.5981,2.5981,2.5813,2.5281,2.5115,2.4637,2.3272,2.2986,2.2682,2.1724,2.1647,2.1447,2.0855,2.183,0.0,0.0,2.4918,2.609,2.6164,2.7162,2.7949,0.0,0.0,0.0,0.0,3.5909,3.712,3.8012,3.8944,4.061,4.3133,4.324,4.4412,4.68,4.8087,4.9083,4.9858,5.0895,5.1748,5.2453,5.2663,5.3253,5.4071,5.4161,5.5221,5.6853,5.7324,5.8289,5.9282,5.8644,5.93,6.0506,7.3827,7.4998,7.6402,7.7993,7.8674,7.9392,8.0544,8.0338,7.9836,7.9251,7.8192,7.71,7.6013,7.4574,7.328,7.2265,7.0829,6.97,6.9095,6.7947,6.6743,6.5431,6.45,6.3277,6.1673,6.0829,5.9131,5.6596,5.5216,5.4367,5.3849,5.2943,5.1833,5.0527,4.9587,4.8488,4.7335,4.6823,4.6512,4.6474,4.6294,4.5857,4.5366,4.4835,4.3733,4.2412,4.193,4.0436,3.8608,3.8364,3.7002,3.5346,3.4911,3.3541,3.1949,3.1293,2.9479,2.776,2.7869,2.7634,2.7368,2.7633,2.739,2.6946,2.6668,2.6564,2.6427,2.6109,2.5542,2.5032,2.4627,2.3788,2.3199,2.3248,2.3305,2.3231,2.297,2.4307,0.0,2.6309,2.7918,2.9017,2.9231,3.0219,3.0986,3.1284,3.3229,0.0,3.7255,3.8725,3.977,4.0347,4.0887,4.2194,4.4309,4.5112,4.6286,4.7794,4.9377,5.045,5.1082,5.1935,5.2566,5.3088,5.32,5.3794,5.465,5.4418,5.5416,5.7099,5.7955,5.8854,5.9706,5.926,5.9634,6.0475,7.445,7.5386,7.6866,7.927,7.9678,8.0236,8.185,8.1286,8.0565,8.026,7.8578,7.7274,7.6924,7.4643,7.3028,7.2733,7.1826,7.0802,6.9697,6.8696,6.7485,6.6017,6.4783,6.3555,6.2222,6.0827,5.8988,5.6656,5.534,5.4391,5.3874,5.3414,5.2269,5.0526,4.9955,4.882,4.7235,4.6892,4.655,4.6244,4.6301,4.6166,4.5801,4.5112,4.4134,4.2997,4.2233,4.0572,3.8707,3.8151,3.6687,3.5068,3.4832,3.3438,3.1998,3.2243,3.1188,2.974,2.9273,2.9299,2.9276,2.863,2.839,2.8151,2.7332,2.7124,2.7051,2.698,2.601,2.5438,2.6133,2.4681,2.3664,2.4534,2.4857,2.5038,2.5169,0.0,2.8362,2.9669,3.0742,3.1576,3.2094,3.3381,3.4235,3.434,3.6429,3.8383,4.0055,4.1038,4.206,4.3268,4.3093,4.3857,4.5594,4.728,4.8283,4.8595,5.0872,5.2059,5.2296,5.3108,5.3514,5.3665,5.3748,5.416,5.4758,5.4541,5.5361,5.6964,5.8577,5.9215,5.9253,5.9578,5.9782,6.0329,7.4567,7.5848,7.7512,7.9371,7.9643,8.0173,8.1844,8.1252,8.0281,7.9425,7.8142,7.6987,7.6087,7.4656,7.3457,7.2771,7.1712,7.0567,6.9532,6.9053,6.7867,6.573,6.5322,6.4177,6.206,5.9916,5.8165,5.687,5.5401,5.4212,5.3215,5.2634,5.1362,4.9756,4.9226,4.8392,4.747,4.7199,4.6604,4.5882,4.6357,4.5837,4.4773,4.5117,4.4135,4.2653,4.2527,4.0943,3.8996,3.9157,3.7455,3.5355,3.5786,3.4586,3.2932,3.2714,3.2497,3.2107,3.0986,3.0891,3.0779,2.9382,2.9005,2.8765,2.8084,2.75,2.6946,2.6389,2.6259,2.612,2.5645,2.5367,2.5287,2.5496,2.6203,2.6933,2.7495,0.0,3.1112,3.1178,3.3128,3.434,3.4198,3.4971,3.5983,3.7236,3.8374,3.9805,4.1569,4.2561,4.3835,4.543,4.4294,4.4813,4.7132,4.8411,4.93,4.995,5.1092,5.1773,5.2055,5.2904,5.3723,5.4515,5.4515,5.426,5.3857,5.5352,5.6677,5.7855,5.8503,5.8781,5.8821,5.8862,5.8902,5.9098,7.5145,7.6263,7.7654,7.9338,7.9598,7.9961,8.1102,8.0452,7.9445,7.8402,7.7305,7.6207,7.5219,7.4045,7.296,7.205,7.0915,6.9954,6.9327,6.9078,6.8016,6.5779,6.5432,6.3962,6.1171,5.9424,5.8,5.687,5.5523,5.4475,5.369,5.2929,5.1693,5.0158,4.9427,4.853,4.7604,4.747,4.7071,4.6543,4.641,4.5853,4.5069,4.4937,4.3994,4.2703,4.2322,4.0891,3.922,3.8588,3.7096,3.5467,3.5519,3.4424,3.3208,3.3208,3.2818,3.2353,3.1765,3.1759,3.1584,3.0051,2.9372,2.8863,2.8254,2.7569,2.7046,2.6891,2.6661,2.6638,2.7261,2.6725,2.6745,2.8607,2.9212,0.0,0.0,3.3131,3.4339,3.5048,3.607,3.6981,3.7632,3.7965,3.8796,4.0333,4.0876,4.207,4.4359,4.4875,4.5934,4.7686,4.6829,4.6852,4.8055,4.9414,5.0343,5.083,5.2073,5.2826,5.3083,5.3932,5.4525,5.4943,5.4693,5.4779,5.5049,5.4728,5.6103,5.8356,5.8356,5.8312,5.8356,5.8614,5.8698,5.8739,7.5677,7.6633,7.7855,7.9335,7.9505,7.97,8.0487,7.9563,7.8502,7.7678,7.6657,7.558,7.458,7.3437,7.2389,7.1479,7.0269,6.9495,6.9289,6.8884,6.7784,6.5816,6.4912,6.3129,6.0212,5.9023,5.7836,5.6682,5.5514,5.4599,5.3782,5.2917,5.1783,5.0255,4.949,4.8596,4.7836,4.7671,4.7372,4.7008,4.6386,4.583,4.5206,4.4591,4.3748,4.2682,4.198,4.0801,3.9406,3.807,3.6788,3.571,3.5239,3.4395,3.3612,3.3637,3.2995,3.2269,3.1933,3.1914,3.1725,3.0649,2.9841,2.9238,2.8801,2.8217,2.7794,2.8049,2.7796,2.7987,2.9425,2.8735,2.8881,3.1738,0.0,0.0,0.0,3.607,3.702,3.8274,3.8509,3.9091,4.0421,4.0637,4.1324,4.3034,4.3313,4.4401,4.6719,4.7002,4.7736,4.9233,4.8898,4.882,4.9,5.0448,5.1369,5.1772,5.3193,5.394,5.4209,5.4828,5.5239,5.5468,5.503,5.5524,5.6548,5.4899,5.5845,5.8393,5.8757,5.8944,5.8882,5.8481,5.8887,5.9641,7.578,7.7114,7.8467,7.9349,7.9414,7.9632,8.0473,7.9016,7.7751,7.764,7.6563,7.548,7.458,7.3441,7.2353,7.1479,7.0269,6.9536,6.9374,6.8271,6.6982,6.5607,6.3274,6.1207,5.9329,5.8659,5.7529,5.6007,5.5294,5.42,5.2597,5.189,5.073,4.9092,4.8711,4.8389,4.8163,4.8001,4.7473,4.6618,4.6454,4.557,4.4295,4.4072,4.349,4.2492,4.1657,4.0761,3.9774,3.8599,3.7326,3.6108,3.5807,3.53,3.4636,3.3988,3.3439,3.2713,3.1381,3.1019,3.1106,3.1117,3.07,3.0307,3.0488,3.0074,2.9747,2.9878,3.0469,3.1023,3.1355,3.1729,3.2334,3.3457,0.0,0.0,3.6622,3.7496,3.8228,3.8951,3.9591,4.0269,4.1035,4.1801,4.2927,4.4572,4.5425,4.633,4.7456,4.8161,4.8685,4.9088,4.9329,4.9793,5.0558,5.1515,5.239,5.3158,5.4084,5.458,5.4725,5.4798,5.5377,5.6296,5.5982,5.6552,5.7521,5.7375,5.7267,5.7579,6.0537,6.1734,6.1335,5.8413,5.9529,6.2524,7.6503,7.7511,7.8347,7.865,7.9019,7.9212,7.8942,7.8192,7.7408,7.6791,7.6226,7.5326,7.3852,7.3132,7.2198,7.0756,7.0004,6.9495,6.9289,6.7576,6.5901,6.4494,6.2401,6.063,5.9221,5.8331,5.7263,5.5901,5.5378,5.4495,5.3151,5.2364,5.1145,4.9786,4.9125,4.8673,4.8513,4.8356,4.7996,4.7568,4.7073,4.6152,4.4976,4.4358,4.3287,4.1996,4.11,4.0328,3.943,3.8125,3.7102,3.6234,3.5756,3.5284,3.4698,3.3729,3.3671,3.3575,3.1658,3.1534,3.1885,3.1375,3.1336,3.1424,3.1602,3.1532,3.1632,3.2258,3.2611,3.314,3.4163,3.4869,3.5711,3.7167,0.0,3.8152,4.0141,4.0193,4.0453,4.158,4.195,4.2389,4.3152,4.3548,4.4347,4.5961,4.6498,4.7401,4.8818,4.9799,5.0539,5.1138,5.1241,5.1322,5.1343,5.2595,5.3483,5.3856,5.4697,5.5158,5.531,5.5815,5.6263,5.6653,5.6638,5.6783,5.7087,5.6933,5.6812,5.703,6.0188,6.1672,6.1806,6.0192,6.0792,6.2328,7.6973,7.7891,7.852,7.8192,7.8742,7.8942,7.8008,7.7481,7.6907,7.6276,7.5784,7.4873,7.3353,7.2673,7.1779,7.0264,6.9815,6.9495,6.9246,6.6909,6.493,6.3393,6.187,6.0412,5.9221,5.8156,5.7056,5.5901,5.5496,5.4755,5.3748,5.2745,5.1649,5.053,4.963,4.9107,4.8827,4.8736,4.8547,4.8289,4.7321,4.6433,4.5653,4.4476,4.3305,4.2141,4.1075,4.0365,3.974,3.8133,3.7196,3.6547,3.6059,3.5575,3.499,3.4013,3.4185,3.4389,3.2935,3.3098,3.3348,3.2162,3.2357,3.2965,3.3318,3.353,3.3882,3.4695,3.526,3.5895,3.6993,3.7822,3.8866,4.0334,4.0332,4.0742,4.2509,4.2193,4.2168,4.3108,4.3454,4.3904,4.4801,4.5078,4.5892,4.7507,4.7823,4.8645,5.0346,5.1123,5.1953,5.2677,5.2979,5.2981,5.2659,5.3744,5.4384,5.449,5.5365,5.5776,5.5829,5.6402,5.6653,5.6707,5.6707,5.676,5.6812,5.6492,5.6989,5.8096,6.0,6.1152,6.1672,6.1444,6.1501,6.1728,7.7011,7.8338,7.9166,7.8181,7.8593,7.8801,7.7943,7.6867,7.6198,7.6198,7.5216,7.4197,7.3277,7.2109,7.1024,7.0079,6.9776,6.9495,6.9209,6.6388,6.3994,6.247,6.1527,6.0412,5.9185,5.8121,5.7056,5.5901,5.559,5.5027,5.4046,5.3018,5.2018,5.1045,5.011,4.953,4.9168,4.9046,4.8956,4.8635,4.6938,4.6246,4.5896,4.4251,4.3509,4.3191,4.1566,4.1099,4.0885,3.8871,3.7801,3.7253,3.6774,3.6231,3.5674,3.5087,3.5091,3.5261,3.5302,3.5614,3.546,3.3621,3.3945,3.4972,3.5821,3.6183,3.6541,3.721,3.8553,3.961,3.9646,4.0586,4.1705,4.2577,4.2568,4.261,4.3242,4.3197,4.3097,4.3097,4.3735,4.4492,4.5511,4.636,4.7541,4.9342,4.9536,5.0255,5.1926,5.2107,5.2568,5.3379,5.4303,5.4839,5.4839,5.4914,5.5079,5.5241,5.6026,5.6418,5.6418,5.6253,5.6308,5.6418,5.6197,5.6383,5.6812,5.6492,5.8238,6.1034,6.036,6.0547,6.1152,6.1784,6.1615,6.1093,7.6999,7.7764,7.8176,7.7231,7.77,7.7905,7.6947,7.6455,7.6145,7.6062,7.5695,7.4817,7.3232,7.2303,7.1291,7.0043,6.9737,6.9073,6.7771,6.6256,6.4586,6.2778,6.1135,5.9683,5.8358,5.7406,5.6633,5.6106,5.5879,5.5318,5.4429,5.4103,5.3067,5.1431,5.098,5.0366,4.9496,4.8865,4.8447,4.8226,4.7217,4.633,4.5529,4.4976,4.3964,4.2816,4.1716,4.111,4.0688,3.9039,3.8539,3.8478,3.7479,3.7162,3.7074,3.6429,3.719,3.7988,3.6935,3.7545,3.8047,3.6303,3.6632,3.7496,3.7745,3.8315,3.9096,4.0288,4.0877,4.1384,4.2342,4.322,4.3895,4.4056,4.3895,4.3973,4.4647,4.4647,4.4749,4.5264,4.6109,4.6714,4.7064,4.7415,4.8231,4.9868,5.1172,5.2179,5.2804,5.2895,5.3247,5.402,5.4323,5.5014,5.6258,5.5865,5.5922,5.651,5.6816,5.7149,5.7717,5.7658,5.7504,5.7228,5.7171,5.6893,5.6492,5.6437,5.7952,6.036,6.0171,6.0234,6.0485,6.1152,6.0974,6.0642,7.6949,7.7509,7.7718,7.6769,7.725,7.7473,7.649,7.6276,7.6029,7.5543,7.5088,7.4204,7.2668,7.1735,7.0874,6.9891,6.9617,6.872,6.6934,6.5419,6.402,6.2842,6.1149,5.9626,5.8339,5.7567,5.6868,5.6308,5.6106,5.5688,5.5115,5.4514,5.3479,5.2228,5.1451,5.061,4.9732,4.8918,4.8436,4.8158,4.7043,4.6248,4.5578,4.5101,4.4112,4.2914,4.2011,4.1439,4.0931,3.9767,3.9452,3.9399,3.8469,3.8307,3.8444,3.8028,3.8929,3.9975,3.9297,4.0121,4.0978,4.0176,3.9727,3.9708,4.0388,4.0842,4.1428,4.2625,4.2943,4.336,4.4397,4.5172,4.5734,4.5858,4.5718,4.5696,4.6055,4.6014,4.6186,4.6721,4.7258,4.7885,4.8562,4.8687,4.9422,5.1026,5.223,5.3124,5.3612,5.3589,5.394,5.477,5.4653,5.5249,5.6691,5.6199,5.6552,5.7565,5.7506,5.7694,5.8129,5.8033,5.7691,5.7258,5.7588,5.7306,5.6776,5.7588,5.8754,6.0107,6.0107,5.9879,5.9748,6.045,6.1072,6.1708,7.6809,7.7365,7.7603,7.6686,7.7147,7.7373,7.6417,7.6147,7.576,7.4812,7.3752,7.2754,7.1756,7.0785,7.0077,6.9738,6.9374,6.8478,6.6761,6.4288,6.2745,6.2401,6.1441,6.0238,5.8761,5.8159,5.7424,5.6383,5.6308,5.607,5.5851,5.4434,5.3525,5.3071,5.163,5.0599,4.993,4.9205,4.8724,4.8333,4.6794,4.6067,4.583,4.4902,4.4101,4.3335,4.2483,4.1952,4.156,4.0891,4.0585,4.0298,3.9821,3.9782,3.9979,3.9979,4.0669,4.1573,4.2163,4.2952,4.3779,4.4503,4.3038,4.1801,4.3237,4.3429,4.3536,4.4314,4.48,4.5348,4.6075,4.6587,4.7069,4.7596,4.7567,4.742,4.7216,4.7284,4.741,4.7557,4.7717,4.8392,4.9976,5.0218,5.099,5.2671,5.2986,5.3509,5.4396,5.4349,5.4734,5.5624,5.5383,5.5672,5.6597,5.6377,5.6974,5.8295,5.8139,5.7991,5.7938,5.7779,5.7409,5.6962,5.7666,5.7814,5.7637,5.9504,6.0223,6.0043,6.0043,5.9617,5.9081,5.9748,6.15,6.3526,7.6809,7.6845,7.6826,7.663,7.6598,7.6519,7.6263,7.5593,7.4984,7.4649,7.3377,7.2225,7.1613,7.0604,6.9891,6.9737,6.9374,6.901,6.8628,6.5336,6.2133,5.9134,6.1129,6.0993,5.8057,5.7514,5.7009,5.6546,5.6546,5.6116,5.5347,5.4991,5.401,5.2536,5.2183,5.1473,5.0384,4.9672,4.9194,4.8812,4.7182,4.6399,4.6097,4.5268,4.4409,4.3712,4.2979,4.243,4.212,4.2334,4.2431,4.2467,4.2583,4.2721,4.2925,4.2925,4.3499,4.4181,4.4199,4.4293,4.467,4.596,4.5833,4.5138,4.4298,4.4491,4.507,4.5764,4.595,4.628,4.7439,4.7752,4.7765,4.7589,4.7511,4.7364,4.7077,4.7728,4.8312,4.8196,4.934,5.0282,5.0838,5.2062,5.3013,5.3385,5.4096,5.4878,5.5706,5.5802,5.6187,5.6927,5.6955,5.7276,5.798,5.7915,5.8049,5.8387,5.8352,5.8636,5.9164,5.9164,5.9029,5.8859,5.9354,5.926,5.8805,6.1028,6.0899,5.9217,5.9217,5.9149,5.9012,5.9149,6.0659,6.2693,7.7248,7.6924,7.6591,7.651,7.6421,7.6326,7.6198,7.5439,7.4665,7.4043,7.2916,7.1842,7.1006,7.0375,6.9966,6.9657,6.8696,6.7739,6.6913,6.4799,6.2687,6.0757,6.0599,5.9674,5.793,5.7473,5.7123,5.6881,5.6364,5.5864,5.5382,5.4561,5.3671,5.2607,5.2199,5.1547,5.0803,4.9995,4.952,4.9144,4.756,4.6741,4.6565,4.5612,4.4888,4.4216,4.3904,4.3478,4.315,4.3607,4.3827,4.3985,4.4635,4.491,4.5065,4.5467,4.6068,4.6629,4.6542,4.6614,4.6931,4.7606,4.8006,4.7872,4.6754,4.6694,4.6935,4.7407,4.7277,4.7422,4.8502,4.8549,4.8432,4.8564,4.8541,4.8483,4.8309,4.9076,4.9674,4.9555,5.0609,5.1588,5.2027,5.3156,5.397,5.4156,5.4911,5.5661,5.6105,5.6453,5.6871,5.7289,5.7225,5.7543,5.8307,5.8074,5.8215,5.8596,5.8863,5.9137,5.9453,5.9386,5.9251,5.9081,5.9804,5.9598,5.8874,6.0237,6.0107,5.9082,6.0206,5.972,5.8627,6.0096,6.1223,6.211,7.7583,7.7118,7.6553,7.6444,7.6397,7.6311,7.6032,7.5234,7.4306,7.3265,7.234,7.1382,7.0396,7.003,6.9662,6.9202,6.7451,6.5786,6.4397,6.3867,6.3602,6.3602,6.0646,5.864,5.7997,5.7715,5.7473,5.7239,5.614,5.5569,5.5425,5.3835,5.3017,5.2738,5.1943,5.1454,5.1158,5.0452,5.0065,4.9696,4.8242,4.7578,4.737,4.6499,4.5629,4.4963,4.5152,4.5045,4.4855,4.5062,4.5336,4.5702,4.6614,4.6916,4.7102,4.771,4.8271,4.8677,4.8575,4.8817,4.911,4.9245,4.9552,4.9818,4.9482,4.9011,4.8731,4.8835,4.8575,4.8553,4.9264,4.9284,4.9309,4.9752,4.9855,4.9889,4.9966,5.0472,5.0849,5.0952,5.1699,5.2551,5.321,5.3862,5.4436,5.4862,5.5479,5.5992,5.6362,5.6923,5.7339,5.7543,5.7382,5.7697,5.8524,5.822,5.8393,5.9183,5.9667,5.9665,5.9356,5.9219,5.9081,5.9005,5.9724,5.9621,5.89,5.9318,5.9492,5.9766,6.163,6.0782,5.874,6.1234,6.1904,6.1628,7.6884,7.673,7.6591,7.6488,7.6397,7.603,7.5221,7.4333,7.3432,7.2476,7.1487,7.0762,7.0419,6.9236,6.8186,6.7464,6.572,6.4547,6.4284,6.3867,6.3602,6.3602,6.3148,6.1328,5.807,5.795,5.7763,5.7388,5.6292,5.5433,5.4747,5.3734,5.288,5.2197,5.2089,5.1907,5.1571,5.1515,5.1327,5.0946,4.9924,4.9485,4.9414,4.8521,4.7277,4.6133,4.7047,4.7465,4.7604,4.7151,4.7922,4.9081,4.9325,4.9495,4.9575,4.9595,4.9568,4.9503,4.9269,4.915,4.9394,5.0558,5.0242,5.003,5.115,5.036,4.9361,4.9415,4.9253,4.9298,4.9746,5.0355,5.066,5.0339,5.04,5.0639,5.0939,5.0788,5.0837,5.1486,5.2585,5.3404,5.3999,5.4299,5.4707,5.5266,5.5533,5.6119,5.7361,5.7835,5.8248,5.8736,5.8872,5.9253,5.9944,5.9875,6.0114,6.0727,6.0799,6.0384,5.9553,5.9695,5.9895,6.0183,5.9621,5.9803,6.0432,6.1042,6.1582,6.1961,6.2324,6.1669,6.072,6.1119,6.1285,6.1252,7.7312,7.6943,7.6591,7.6466,7.6374,7.5967,7.5028,7.4179,7.3251,7.2349,7.1324,7.0639,7.0445,6.8887,6.7654,6.7316,6.5653,6.4443,6.3953,6.3736,6.2784,6.0964,6.0853,6.0055,5.8305,5.8088,5.795,5.7857,5.6248,5.5305,5.4942,5.353,5.2712,5.2293,5.215,5.2005,5.1808,5.1758,5.1607,5.1331,5.0464,5.0059,4.9937,4.9094,4.8388,4.7872,4.8435,4.8734,4.8887,4.8839,4.9253,4.9902,5.0416,5.0931,5.1365,5.1694,5.1946,5.2108,5.1958,5.1702,5.167,5.2216,5.1946,5.1654,5.2263,5.18,5.0954,5.014,5.0146,5.0253,4.9942,5.0385,5.0754,5.0571,5.0912,5.1287,5.1469,5.1668,5.2072,5.2759,5.3297,5.3669,5.3881,5.411,5.4583,5.5338,5.585,5.6537,5.7569,5.86,5.9288,5.9529,5.9871,6.0249,6.0593,6.045,6.0476,6.0637,6.0637,6.0467,6.0232,6.0086,6.0068,6.019,6.003,6.003,6.0173,6.1503,6.1904,6.1662,6.1662,6.1417,6.1102,6.1673,6.1883,6.1883]}]]